<?xml version="1.0" encoding="UTF-8" standalone="no" ?>
<gpx xmlns="http://www.topografix.com/GPX/1/1" xmlns:xsi="http://www.w3.org/2001/XMLSchema-instance" xsi:schemaLocation="http://www.topografix.com/GPX/1/1 http://www.topografix.com/GPX/1/1/gpx.xsd" version="1.1" creator="VisuGPX - https://www.visugpx.com">
  <metadata>
    <name>Pic d\'Estaragne (3006 mètres)</name>
    <desc><![CDATA[Pic d\'Estaragne (3006 mètres)

Sortie en ski de randonnée (E. G., J-G. N., X. F., E.B. et son chien Athos). passage par le Col d\'Estaragne. Départ skis aux pieds depuis la voiture.]]></desc>
  </metadata>
  <trk>
    <name><![CDATA[Pic d\'Estaragne (3006 mètres)_1]]></name>
    <trkseg>
      <trkpt lat="42.81581" lon="0.14639">
        <ele>2076.6</ele>
        <time>2014-06-01T07:31:05Z</time>
      </trkpt>
      <trkpt lat="42.81579" lon="0.14639">
        <ele>2076.6</ele>
        <time>2014-06-01T07:31:10Z</time>
      </trkpt>
      <trkpt lat="42.81585" lon="0.14631">
        <ele>2073.6362029855</ele>
        <time>2014-06-01T07:31:30Z</time>
      </trkpt>
      <trkpt lat="42.81576" lon="0.14635">
        <ele>2085.3880182262</ele>
        <time>2014-06-01T07:32:45Z</time>
      </trkpt>
      <trkpt lat="42.81576" lon="0.14635">
        <ele>2085.3880182262</ele>
        <time>2014-06-01T07:32:50Z</time>
      </trkpt>
      <trkpt lat="42.81579" lon="0.14633">
        <ele>2085.3880182262</ele>
        <time>2014-06-01T07:36:46Z</time>
      </trkpt>
      <trkpt lat="42.8158" lon="0.14632">
        <ele>2085.3880182262</ele>
        <time>2014-06-01T07:36:51Z</time>
      </trkpt>
      <trkpt lat="42.81575" lon="0.14637">
        <ele>2098.0659148897</ele>
        <time>2014-06-01T07:39:36Z</time>
      </trkpt>
      <trkpt lat="42.81575" lon="0.14636">
        <ele>2098.0659148897</ele>
        <time>2014-06-01T07:39:46Z</time>
      </trkpt>
      <trkpt lat="42.81574" lon="0.14632">
        <ele>2098.0659148897</ele>
        <time>2014-06-01T07:40:36Z</time>
      </trkpt>
      <trkpt lat="42.81573" lon="0.14625">
        <ele>2098.0659148897</ele>
        <time>2014-06-01T07:43:12Z</time>
      </trkpt>
      <trkpt lat="42.81565" lon="0.14627">
        <ele>2110.1163886876</ele>
        <time>2014-06-01T07:45:46Z</time>
      </trkpt>
      <trkpt lat="42.81558" lon="0.14632">
        <ele>2110.1163886876</ele>
        <time>2014-06-01T07:45:56Z</time>
      </trkpt>
      <trkpt lat="42.81554" lon="0.14634">
        <ele>2121.5707096752</ele>
        <time>2014-06-01T07:46:01Z</time>
      </trkpt>
      <trkpt lat="42.81547" lon="0.14634">
        <ele>2121.5707096752</ele>
        <time>2014-06-01T07:46:11Z</time>
      </trkpt>
      <trkpt lat="42.81546" lon="0.14632">
        <ele>2121.5707096752</ele>
        <time>2014-06-01T07:46:16Z</time>
      </trkpt>
      <trkpt lat="42.81541" lon="0.14629">
        <ele>2132.3553563271</ele>
        <time>2014-06-01T07:46:21Z</time>
      </trkpt>
      <trkpt lat="42.81535" lon="0.14629">
        <ele>2132.3553563271</ele>
        <time>2014-06-01T07:46:31Z</time>
      </trkpt>
      <trkpt lat="42.81533" lon="0.14628">
        <ele>2132.3553563271</ele>
        <time>2014-06-01T07:46:37Z</time>
      </trkpt>
      <trkpt lat="42.81531" lon="0.14626">
        <ele>2142.3617501584</ele>
        <time>2014-06-01T07:46:41Z</time>
      </trkpt>
      <trkpt lat="42.81528" lon="0.14625">
        <ele>2142.3617501584</ele>
        <time>2014-06-01T07:46:46Z</time>
      </trkpt>
      <trkpt lat="42.81519" lon="0.14626">
        <ele>2151.3031359077</ele>
        <time>2014-06-01T07:46:56Z</time>
      </trkpt>
      <trkpt lat="42.81515" lon="0.14628">
        <ele>2151.3031359077</ele>
        <time>2014-06-01T07:47:01Z</time>
      </trkpt>
      <trkpt lat="42.81509" lon="0.1463">
        <ele>2158.8136623044</ele>
        <time>2014-06-01T07:47:11Z</time>
      </trkpt>
      <trkpt lat="42.81506" lon="0.14631">
        <ele>2158.8136623044</ele>
        <time>2014-06-01T07:47:16Z</time>
      </trkpt>
      <trkpt lat="42.81499" lon="0.14634">
        <ele>2164.8554000717</ele>
        <time>2014-06-01T07:47:29Z</time>
      </trkpt>
      <trkpt lat="42.81493" lon="0.14637">
        <ele>2164.8554000717</ele>
        <time>2014-06-01T07:47:36Z</time>
      </trkpt>
      <trkpt lat="42.81487" lon="0.14638">
        <ele>2169.6976869947</ele>
        <time>2014-06-01T07:47:46Z</time>
      </trkpt>
      <trkpt lat="42.81481" lon="0.14641">
        <ele>2169.6976869947</ele>
        <time>2014-06-01T07:47:56Z</time>
      </trkpt>
      <trkpt lat="42.8148" lon="0.14641">
        <ele>2169.6976869947</ele>
        <time>2014-06-01T07:48:02Z</time>
      </trkpt>
      <trkpt lat="42.81472" lon="0.14645">
        <ele>2173.5840035625</ele>
        <time>2014-06-01T07:48:11Z</time>
      </trkpt>
      <trkpt lat="42.8147" lon="0.14645">
        <ele>2173.5840035625</ele>
        <time>2014-06-01T07:48:16Z</time>
      </trkpt>
      <trkpt lat="42.81463" lon="0.14645">
        <ele>2176.2779663311</ele>
        <time>2014-06-01T07:48:27Z</time>
      </trkpt>
      <trkpt lat="42.81456" lon="0.14645">
        <ele>2176.2779663311</ele>
        <time>2014-06-01T07:48:36Z</time>
      </trkpt>
      <trkpt lat="42.81455" lon="0.14645">
        <ele>2176.2779663311</ele>
        <time>2014-06-01T07:48:41Z</time>
      </trkpt>
      <trkpt lat="42.8145" lon="0.14643">
        <ele>2178.0480510101</ele>
        <time>2014-06-01T07:48:46Z</time>
      </trkpt>
      <trkpt lat="42.81444" lon="0.14641">
        <ele>2178.0480510101</ele>
        <time>2014-06-01T07:48:56Z</time>
      </trkpt>
      <trkpt lat="42.81441" lon="0.14641">
        <ele>2178.987892795</ele>
        <time>2014-06-01T07:49:01Z</time>
      </trkpt>
      <trkpt lat="42.81435" lon="0.14638">
        <ele>2178.987892795</ele>
        <time>2014-06-01T07:49:11Z</time>
      </trkpt>
      <trkpt lat="42.81433" lon="0.14637">
        <ele>2178.987892795</ele>
        <time>2014-06-01T07:49:16Z</time>
      </trkpt>
      <trkpt lat="42.81429" lon="0.14634">
        <ele>2179.414662292</ele>
        <time>2014-06-01T07:49:27Z</time>
      </trkpt>
      <trkpt lat="42.81429" lon="0.14634">
        <ele>2179.414662292</ele>
        <time>2014-06-01T07:49:36Z</time>
      </trkpt>
      <trkpt lat="42.81429" lon="0.14632">
        <ele>2179.414662292</ele>
        <time>2014-06-01T07:49:41Z</time>
      </trkpt>
      <trkpt lat="42.81419" lon="0.14627">
        <ele>2179.2272726436</ele>
        <time>2014-06-01T07:49:51Z</time>
      </trkpt>
      <trkpt lat="42.81417" lon="0.14624">
        <ele>2179.2272726436</ele>
        <time>2014-06-01T07:49:56Z</time>
      </trkpt>
      <trkpt lat="42.81414" lon="0.14622">
        <ele>2179.2272726436</ele>
        <time>2014-06-01T07:50:00Z</time>
      </trkpt>
      <trkpt lat="42.81411" lon="0.14618">
        <ele>2178.7775775761</ele>
        <time>2014-06-01T07:50:06Z</time>
      </trkpt>
      <trkpt lat="42.81409" lon="0.14617">
        <ele>2178.7775775761</ele>
        <time>2014-06-01T07:50:11Z</time>
      </trkpt>
      <trkpt lat="42.81406" lon="0.14614">
        <ele>2178.7775775761</ele>
        <time>2014-06-01T07:50:16Z</time>
      </trkpt>
      <trkpt lat="42.814" lon="0.1461">
        <ele>2178.2649850922</ele>
        <time>2014-06-01T07:50:26Z</time>
      </trkpt>
      <trkpt lat="42.81399" lon="0.1461">
        <ele>2178.2649850922</ele>
        <time>2014-06-01T07:50:32Z</time>
      </trkpt>
      <trkpt lat="42.81394" lon="0.14608">
        <ele>2178.2649850922</ele>
        <time>2014-06-01T07:50:36Z</time>
      </trkpt>
      <trkpt lat="42.81388" lon="0.14607">
        <ele>2177.6760393098</ele>
        <time>2014-06-01T07:50:46Z</time>
      </trkpt>
      <trkpt lat="42.81385" lon="0.14604">
        <ele>2177.6760393098</ele>
        <time>2014-06-01T07:50:51Z</time>
      </trkpt>
      <trkpt lat="42.81383" lon="0.14603">
        <ele>2177.6760393098</ele>
        <time>2014-06-01T07:50:56Z</time>
      </trkpt>
      <trkpt lat="42.81382" lon="0.14602">
        <ele>2177.6760393098</ele>
        <time>2014-06-01T07:51:01Z</time>
      </trkpt>
      <trkpt lat="42.81379" lon="0.14601">
        <ele>2177.1558001968</ele>
        <time>2014-06-01T07:51:06Z</time>
      </trkpt>
      <trkpt lat="42.81374" lon="0.14597">
        <ele>2177.1558001968</ele>
        <time>2014-06-01T07:51:11Z</time>
      </trkpt>
      <trkpt lat="42.81372" lon="0.14595">
        <ele>2177.1558001968</ele>
        <time>2014-06-01T07:51:16Z</time>
      </trkpt>
      <trkpt lat="42.81369" lon="0.14593">
        <ele>2176.7124369853</ele>
        <time>2014-06-01T07:51:21Z</time>
      </trkpt>
      <trkpt lat="42.81368" lon="0.14593">
        <ele>2176.7124369853</ele>
        <time>2014-06-01T07:51:26Z</time>
      </trkpt>
      <trkpt lat="42.81365" lon="0.14591">
        <ele>2176.7124369853</ele>
        <time>2014-06-01T07:51:31Z</time>
      </trkpt>
      <trkpt lat="42.81363" lon="0.14589">
        <ele>2176.7124369853</ele>
        <time>2014-06-01T07:51:36Z</time>
      </trkpt>
      <trkpt lat="42.81362" lon="0.14588">
        <ele>2176.7124369853</ele>
        <time>2014-06-01T07:51:42Z</time>
      </trkpt>
      <trkpt lat="42.81357" lon="0.14584">
        <ele>2176.5233391028</ele>
        <time>2014-06-01T07:51:46Z</time>
      </trkpt>
      <trkpt lat="42.81354" lon="0.14582">
        <ele>2176.5233391028</ele>
        <time>2014-06-01T07:51:51Z</time>
      </trkpt>
      <trkpt lat="42.81351" lon="0.14579">
        <ele>2176.5233391028</ele>
        <time>2014-06-01T07:51:56Z</time>
      </trkpt>
      <trkpt lat="42.81347" lon="0.14577">
        <ele>2176.2777686101</ele>
        <time>2014-06-01T07:52:01Z</time>
      </trkpt>
      <trkpt lat="42.81345" lon="0.14576">
        <ele>2176.2777686101</ele>
        <time>2014-06-01T07:52:07Z</time>
      </trkpt>
      <trkpt lat="42.81338" lon="0.14573">
        <ele>2175.9599129365</ele>
        <time>2014-06-01T07:52:16Z</time>
      </trkpt>
      <trkpt lat="42.81337" lon="0.14572">
        <ele>2175.9599129365</ele>
        <time>2014-06-01T07:52:21Z</time>
      </trkpt>
      <trkpt lat="42.81333" lon="0.14571">
        <ele>2175.9599129365</ele>
        <time>2014-06-01T07:52:27Z</time>
      </trkpt>
      <trkpt lat="42.81323" lon="0.14569">
        <ele>2175.6232935572</ele>
        <time>2014-06-01T07:52:36Z</time>
      </trkpt>
      <trkpt lat="42.81319" lon="0.14568">
        <ele>2175.6232935572</ele>
        <time>2014-06-01T07:52:40Z</time>
      </trkpt>
      <trkpt lat="42.81319" lon="0.14568">
        <ele>2175.6232935572</ele>
        <time>2014-06-01T07:52:47Z</time>
      </trkpt>
      <trkpt lat="42.81316" lon="0.14567">
        <ele>2175.6232935572</ele>
        <time>2014-06-01T07:52:51Z</time>
      </trkpt>
      <trkpt lat="42.81309" lon="0.14563">
        <ele>2175.4401645163</ele>
        <time>2014-06-01T07:53:01Z</time>
      </trkpt>
      <trkpt lat="42.81303" lon="0.14561">
        <ele>2175.4401645163</ele>
        <time>2014-06-01T07:53:11Z</time>
      </trkpt>
      <trkpt lat="42.81303" lon="0.14561">
        <ele>2175.4401645163</ele>
        <time>2014-06-01T07:53:16Z</time>
      </trkpt>
      <trkpt lat="42.81301" lon="0.14561">
        <ele>2175.4401645163</ele>
        <time>2014-06-01T07:53:21Z</time>
      </trkpt>
      <trkpt lat="42.81294" lon="0.14558">
        <ele>2175.6329211344</ele>
        <time>2014-06-01T07:53:34Z</time>
      </trkpt>
      <trkpt lat="42.8129" lon="0.14557">
        <ele>2175.6329211344</ele>
        <time>2014-06-01T07:53:41Z</time>
      </trkpt>
      <trkpt lat="42.81281" lon="0.14555">
        <ele>2176.051059945</ele>
        <time>2014-06-01T07:53:51Z</time>
      </trkpt>
      <trkpt lat="42.81279" lon="0.14554">
        <ele>2176.051059945</ele>
        <time>2014-06-01T07:53:56Z</time>
      </trkpt>
      <trkpt lat="42.81275" lon="0.14553">
        <ele>2176.051059945</ele>
        <time>2014-06-01T07:54:01Z</time>
      </trkpt>
      <trkpt lat="42.81273" lon="0.14553">
        <ele>2176.051059945</ele>
        <time>2014-06-01T07:54:06Z</time>
      </trkpt>
      <trkpt lat="42.81265" lon="0.14549">
        <ele>2176.5455162971</ele>
        <time>2014-06-01T07:54:16Z</time>
      </trkpt>
      <trkpt lat="42.81262" lon="0.14548">
        <ele>2176.5455162971</ele>
        <time>2014-06-01T07:54:20Z</time>
      </trkpt>
      <trkpt lat="42.81259" lon="0.14547">
        <ele>2176.5455162971</ele>
        <time>2014-06-01T07:54:26Z</time>
      </trkpt>
      <trkpt lat="42.81257" lon="0.14545">
        <ele>2176.5455162971</ele>
        <time>2014-06-01T07:54:32Z</time>
      </trkpt>
      <trkpt lat="42.81254" lon="0.14542">
        <ele>2177.0926988258</ele>
        <time>2014-06-01T07:54:41Z</time>
      </trkpt>
      <trkpt lat="42.81248" lon="0.14537">
        <ele>2177.0926988258</ele>
        <time>2014-06-01T07:54:50Z</time>
      </trkpt>
      <trkpt lat="42.81244" lon="0.14536">
        <ele>2177.5751678669</ele>
        <time>2014-06-01T07:54:57Z</time>
      </trkpt>
      <trkpt lat="42.81243" lon="0.14535">
        <ele>2177.5751678669</ele>
        <time>2014-06-01T07:55:01Z</time>
      </trkpt>
      <trkpt lat="42.81238" lon="0.14532">
        <ele>2177.5751678669</ele>
        <time>2014-06-01T07:55:11Z</time>
      </trkpt>
      <trkpt lat="42.81235" lon="0.14531">
        <ele>2178.0523291759</ele>
        <time>2014-06-01T07:55:16Z</time>
      </trkpt>
      <trkpt lat="42.81232" lon="0.14529">
        <ele>2178.0523291759</ele>
        <time>2014-06-01T07:55:21Z</time>
      </trkpt>
      <trkpt lat="42.81226" lon="0.14526">
        <ele>2178.5950691789</ele>
        <time>2014-06-01T07:55:31Z</time>
      </trkpt>
      <trkpt lat="42.81221" lon="0.14523">
        <ele>2178.5950691789</ele>
        <time>2014-06-01T07:55:37Z</time>
      </trkpt>
      <trkpt lat="42.8122" lon="0.14522">
        <ele>2178.5950691789</ele>
        <time>2014-06-01T07:55:41Z</time>
      </trkpt>
      <trkpt lat="42.81217" lon="0.1452">
        <ele>2179.0764545641</ele>
        <time>2014-06-01T07:55:47Z</time>
      </trkpt>
      <trkpt lat="42.81213" lon="0.14518">
        <ele>2179.0764545641</ele>
        <time>2014-06-01T07:55:51Z</time>
      </trkpt>
      <trkpt lat="42.81205" lon="0.14513">
        <ele>2179.6033579214</ele>
        <time>2014-06-01T07:56:01Z</time>
      </trkpt>
      <trkpt lat="42.81204" lon="0.14513">
        <ele>2179.6033579214</ele>
        <time>2014-06-01T07:56:06Z</time>
      </trkpt>
      <trkpt lat="42.81201" lon="0.14511">
        <ele>2179.6033579214</ele>
        <time>2014-06-01T07:56:11Z</time>
      </trkpt>
      <trkpt lat="42.81197" lon="0.14509">
        <ele>2180.0670807982</ele>
        <time>2014-06-01T07:56:16Z</time>
      </trkpt>
      <trkpt lat="42.81194" lon="0.14506">
        <ele>2180.0670807982</ele>
        <time>2014-06-01T07:56:21Z</time>
      </trkpt>
      <trkpt lat="42.81189" lon="0.14502">
        <ele>2180.4514642525</ele>
        <time>2014-06-01T07:56:27Z</time>
      </trkpt>
      <trkpt lat="42.81188" lon="0.145">
        <ele>2180.4514642525</ele>
        <time>2014-06-01T07:56:31Z</time>
      </trkpt>
      <trkpt lat="42.81184" lon="0.14496">
        <ele>2180.4514642525</ele>
        <time>2014-06-01T07:56:36Z</time>
      </trkpt>
      <trkpt lat="42.81182" lon="0.14493">
        <ele>2180.7426250874</ele>
        <time>2014-06-01T07:56:41Z</time>
      </trkpt>
      <trkpt lat="42.81176" lon="0.14487">
        <ele>2180.7426250874</ele>
        <time>2014-06-01T07:56:52Z</time>
      </trkpt>
      <trkpt lat="42.81174" lon="0.14485">
        <ele>2181.0436188614</ele>
        <time>2014-06-01T07:56:56Z</time>
      </trkpt>
      <trkpt lat="42.81169" lon="0.14482">
        <ele>2181.0436188614</ele>
        <time>2014-06-01T07:57:00Z</time>
      </trkpt>
      <trkpt lat="42.81163" lon="0.14477">
        <ele>2181.2504491583</ele>
        <time>2014-06-01T07:57:11Z</time>
      </trkpt>
      <trkpt lat="42.81161" lon="0.14476">
        <ele>2181.2504491583</ele>
        <time>2014-06-01T07:57:16Z</time>
      </trkpt>
      <trkpt lat="42.81156" lon="0.14474">
        <ele>2181.2504491583</ele>
        <time>2014-06-01T07:57:21Z</time>
      </trkpt>
      <trkpt lat="42.81153" lon="0.14473">
        <ele>2181.352491979</ele>
        <time>2014-06-01T07:57:26Z</time>
      </trkpt>
      <trkpt lat="42.8115" lon="0.1447">
        <ele>2181.352491979</ele>
        <time>2014-06-01T07:57:31Z</time>
      </trkpt>
      <trkpt lat="42.81149" lon="0.1447">
        <ele>2181.352491979</ele>
        <time>2014-06-01T07:57:37Z</time>
      </trkpt>
      <trkpt lat="42.81143" lon="0.14466">
        <ele>2181.428241022</ele>
        <time>2014-06-01T07:57:43Z</time>
      </trkpt>
      <trkpt lat="42.81135" lon="0.1446">
        <ele>2181.4487910854</ele>
        <time>2014-06-01T07:57:52Z</time>
      </trkpt>
      <trkpt lat="42.81128" lon="0.14458">
        <ele>2181.4487910854</ele>
        <time>2014-06-01T07:58:00Z</time>
      </trkpt>
      <trkpt lat="42.81127" lon="0.14458">
        <ele>2181.4487910854</ele>
        <time>2014-06-01T07:58:07Z</time>
      </trkpt>
      <trkpt lat="42.81118" lon="0.14455">
        <ele>2181.5350252807</ele>
        <time>2014-06-01T07:58:17Z</time>
      </trkpt>
      <trkpt lat="42.81114" lon="0.14454">
        <ele>2181.5350252807</ele>
        <time>2014-06-01T07:58:21Z</time>
      </trkpt>
      <trkpt lat="42.8111" lon="0.14453">
        <ele>2181.5350252807</ele>
        <time>2014-06-01T07:58:26Z</time>
      </trkpt>
      <trkpt lat="42.81109" lon="0.14453">
        <ele>2181.6063147811</ele>
        <time>2014-06-01T07:58:31Z</time>
      </trkpt>
      <trkpt lat="42.81098" lon="0.1445">
        <ele>2181.7208455099</ele>
        <time>2014-06-01T07:58:41Z</time>
      </trkpt>
      <trkpt lat="42.81096" lon="0.14449">
        <ele>2181.7208455099</ele>
        <time>2014-06-01T07:58:47Z</time>
      </trkpt>
      <trkpt lat="42.81088" lon="0.14445">
        <ele>2181.9922075489</ele>
        <time>2014-06-01T07:58:57Z</time>
      </trkpt>
      <trkpt lat="42.81082" lon="0.14443">
        <ele>2181.9922075489</ele>
        <time>2014-06-01T07:59:01Z</time>
      </trkpt>
      <trkpt lat="42.81082" lon="0.14443">
        <ele>2181.9922075489</ele>
        <time>2014-06-01T07:59:07Z</time>
      </trkpt>
      <trkpt lat="42.81073" lon="0.14443">
        <ele>2182.4045343826</ele>
        <time>2014-06-01T07:59:16Z</time>
      </trkpt>
      <trkpt lat="42.8107" lon="0.14442">
        <ele>2182.4045343826</ele>
        <time>2014-06-01T07:59:21Z</time>
      </trkpt>
      <trkpt lat="42.81069" lon="0.14441">
        <ele>2182.4045343826</ele>
        <time>2014-06-01T07:59:28Z</time>
      </trkpt>
      <trkpt lat="42.81058" lon="0.14439">
        <ele>2182.8962160204</ele>
        <time>2014-06-01T07:59:37Z</time>
      </trkpt>
      <trkpt lat="42.81056" lon="0.14439">
        <ele>2182.8962160204</ele>
        <time>2014-06-01T07:59:41Z</time>
      </trkpt>
      <trkpt lat="42.81049" lon="0.14441">
        <ele>2183.3333785773</ele>
        <time>2014-06-01T07:59:51Z</time>
      </trkpt>
      <trkpt lat="42.81048" lon="0.14441">
        <ele>2183.3333785773</ele>
        <time>2014-06-01T07:59:57Z</time>
      </trkpt>
      <trkpt lat="42.81048" lon="0.14441">
        <ele>2183.3333785773</ele>
        <time>2014-06-01T08:00:01Z</time>
      </trkpt>
      <trkpt lat="42.81039" lon="0.14444">
        <ele>2183.4707992709</ele>
        <time>2014-06-01T08:00:41Z</time>
      </trkpt>
      <trkpt lat="42.81037" lon="0.14443">
        <ele>2183.4707992709</ele>
        <time>2014-06-01T08:00:46Z</time>
      </trkpt>
      <trkpt lat="42.81034" lon="0.14442">
        <ele>2183.4707992709</ele>
        <time>2014-06-01T08:00:51Z</time>
      </trkpt>
      <trkpt lat="42.81031" lon="0.14442">
        <ele>2183.4707992709</ele>
        <time>2014-06-01T08:00:56Z</time>
      </trkpt>
      <trkpt lat="42.81028" lon="0.1444">
        <ele>2183.4751836061</ele>
        <time>2014-06-01T08:01:00Z</time>
      </trkpt>
      <trkpt lat="42.81026" lon="0.14438">
        <ele>2183.4751836061</ele>
        <time>2014-06-01T08:01:06Z</time>
      </trkpt>
      <trkpt lat="42.81019" lon="0.14435">
        <ele>2183.4553630991</ele>
        <time>2014-06-01T08:01:11Z</time>
      </trkpt>
      <trkpt lat="42.81011" lon="0.14429">
        <ele>2183.4553630991</ele>
        <time>2014-06-01T08:01:21Z</time>
      </trkpt>
      <trkpt lat="42.81008" lon="0.14427">
        <ele>2183.4961598861</ele>
        <time>2014-06-01T08:01:26Z</time>
      </trkpt>
      <trkpt lat="42.81007" lon="0.14428">
        <ele>2183.4961598861</ele>
        <time>2014-06-01T08:01:32Z</time>
      </trkpt>
      <trkpt lat="42.81" lon="0.14428">
        <ele>2183.4961598861</ele>
        <time>2014-06-01T08:01:40Z</time>
      </trkpt>
      <trkpt lat="42.80996" lon="0.14426">
        <ele>2183.4641166901</ele>
        <time>2014-06-01T08:01:46Z</time>
      </trkpt>
      <trkpt lat="42.80994" lon="0.14426">
        <ele>2183.4641166901</ele>
        <time>2014-06-01T08:01:51Z</time>
      </trkpt>
      <trkpt lat="42.80991" lon="0.14425">
        <ele>2183.4641166901</ele>
        <time>2014-06-01T08:01:56Z</time>
      </trkpt>
      <trkpt lat="42.80988" lon="0.14422">
        <ele>2183.4641166901</ele>
        <time>2014-06-01T08:03:01Z</time>
      </trkpt>
      <trkpt lat="42.80988" lon="0.14422">
        <ele>2183.4641166901</ele>
        <time>2014-06-01T08:03:06Z</time>
      </trkpt>
      <trkpt lat="42.80985" lon="0.1442">
        <ele>2183.026115058</ele>
        <time>2014-06-01T08:03:12Z</time>
      </trkpt>
      <trkpt lat="42.80982" lon="0.14419">
        <ele>2183.026115058</ele>
        <time>2014-06-01T08:03:16Z</time>
      </trkpt>
      <trkpt lat="42.80982" lon="0.14419">
        <ele>2183.026115058</ele>
        <time>2014-06-01T08:03:21Z</time>
      </trkpt>
      <trkpt lat="42.80977" lon="0.14419">
        <ele>2183.026115058</ele>
        <time>2014-06-01T08:03:26Z</time>
      </trkpt>
      <trkpt lat="42.80967" lon="0.14418">
        <ele>2182.5675528018</ele>
        <time>2014-06-01T08:03:36Z</time>
      </trkpt>
      <trkpt lat="42.80962" lon="0.14417">
        <ele>2182.5675528018</ele>
        <time>2014-06-01T08:03:41Z</time>
      </trkpt>
      <trkpt lat="42.80959" lon="0.14417">
        <ele>2182.5675528018</ele>
        <time>2014-06-01T08:03:46Z</time>
      </trkpt>
      <trkpt lat="42.80954" lon="0.14418">
        <ele>2182.1123011547</ele>
        <time>2014-06-01T08:03:51Z</time>
      </trkpt>
      <trkpt lat="42.80943" lon="0.14419">
        <ele>2181.6221287112</ele>
        <time>2014-06-01T08:04:01Z</time>
      </trkpt>
      <trkpt lat="42.80941" lon="0.1442">
        <ele>2181.6221287112</ele>
        <time>2014-06-01T08:04:06Z</time>
      </trkpt>
      <trkpt lat="42.80936" lon="0.14421">
        <ele>2181.6221287112</ele>
        <time>2014-06-01T08:04:12Z</time>
      </trkpt>
      <trkpt lat="42.80926" lon="0.14424">
        <ele>2181.0320052902</ele>
        <time>2014-06-01T08:04:21Z</time>
      </trkpt>
      <trkpt lat="42.80923" lon="0.14427">
        <ele>2181.0320052902</ele>
        <time>2014-06-01T08:04:27Z</time>
      </trkpt>
      <trkpt lat="42.80913" lon="0.14429">
        <ele>2180.609226535</ele>
        <time>2014-06-01T08:04:36Z</time>
      </trkpt>
      <trkpt lat="42.80909" lon="0.1443">
        <ele>2180.609226535</ele>
        <time>2014-06-01T08:04:41Z</time>
      </trkpt>
      <trkpt lat="42.80908" lon="0.14431">
        <ele>2180.609226535</ele>
        <time>2014-06-01T08:04:46Z</time>
      </trkpt>
      <trkpt lat="42.80893" lon="0.14437">
        <ele>2180.3458763355</ele>
        <time>2014-06-01T08:05:01Z</time>
      </trkpt>
      <trkpt lat="42.8089" lon="0.14439">
        <ele>2180.3458763355</ele>
        <time>2014-06-01T08:05:06Z</time>
      </trkpt>
      <trkpt lat="42.80887" lon="0.14441">
        <ele>2180.3458763355</ele>
        <time>2014-06-01T08:05:11Z</time>
      </trkpt>
      <trkpt lat="42.80882" lon="0.14443">
        <ele>2180.219236735</ele>
        <time>2014-06-01T08:05:16Z</time>
      </trkpt>
      <trkpt lat="42.80877" lon="0.14444">
        <ele>2180.219236735</ele>
        <time>2014-06-01T08:05:21Z</time>
      </trkpt>
      <trkpt lat="42.80873" lon="0.14447">
        <ele>2180.1636835615</ele>
        <time>2014-06-01T08:05:26Z</time>
      </trkpt>
      <trkpt lat="42.80872" lon="0.14447">
        <ele>2180.1636835615</ele>
        <time>2014-06-01T08:05:31Z</time>
      </trkpt>
      <trkpt lat="42.80862" lon="0.14452">
        <ele>2180.1628394528</ele>
        <time>2014-06-01T08:05:41Z</time>
      </trkpt>
      <trkpt lat="42.80859" lon="0.14454">
        <ele>2180.1628394528</ele>
        <time>2014-06-01T08:05:46Z</time>
      </trkpt>
      <trkpt lat="42.80854" lon="0.14457">
        <ele>2180.1628394528</ele>
        <time>2014-06-01T08:05:51Z</time>
      </trkpt>
      <trkpt lat="42.80852" lon="0.14459">
        <ele>2180.274766511</ele>
        <time>2014-06-01T08:05:55Z</time>
      </trkpt>
      <trkpt lat="42.80845" lon="0.14461">
        <ele>2180.274766511</ele>
        <time>2014-06-01T08:06:01Z</time>
      </trkpt>
      <trkpt lat="42.80844" lon="0.14461">
        <ele>2180.274766511</ele>
        <time>2014-06-01T08:06:06Z</time>
      </trkpt>
      <trkpt lat="42.80838" lon="0.14462">
        <ele>2180.4790565611</ele>
        <time>2014-06-01T08:06:11Z</time>
      </trkpt>
      <trkpt lat="42.80833" lon="0.1446">
        <ele>2180.4790565611</ele>
        <time>2014-06-01T08:06:21Z</time>
      </trkpt>
      <trkpt lat="42.80831" lon="0.14457">
        <ele>2180.4790565611</ele>
        <time>2014-06-01T08:06:26Z</time>
      </trkpt>
      <trkpt lat="42.80831" lon="0.14457">
        <ele>2180.4790565611</ele>
        <time>2014-06-01T08:06:32Z</time>
      </trkpt>
      <trkpt lat="42.80828" lon="0.14453">
        <ele>2180.8004525992</ele>
        <time>2014-06-01T08:06:36Z</time>
      </trkpt>
      <trkpt lat="42.80826" lon="0.14449">
        <ele>2180.8004525992</ele>
        <time>2014-06-01T08:06:41Z</time>
      </trkpt>
      <trkpt lat="42.80825" lon="0.14446">
        <ele>2180.8004525992</ele>
        <time>2014-06-01T08:06:46Z</time>
      </trkpt>
      <trkpt lat="42.80823" lon="0.14441">
        <ele>2181.2612563941</ele>
        <time>2014-06-01T08:06:51Z</time>
      </trkpt>
      <trkpt lat="42.80822" lon="0.14437">
        <ele>2181.2612563941</ele>
        <time>2014-06-01T08:06:58Z</time>
      </trkpt>
      <trkpt lat="42.80821" lon="0.14432">
        <ele>2181.2612563941</ele>
        <time>2014-06-01T08:07:00Z</time>
      </trkpt>
      <trkpt lat="42.8082" lon="0.14431">
        <ele>2181.2612563941</ele>
        <time>2014-06-01T08:07:06Z</time>
      </trkpt>
      <trkpt lat="42.80818" lon="0.14425">
        <ele>2181.8814986735</ele>
        <time>2014-06-01T08:07:11Z</time>
      </trkpt>
      <trkpt lat="42.80818" lon="0.14422">
        <ele>2181.8814986735</ele>
        <time>2014-06-01T08:07:16Z</time>
      </trkpt>
      <trkpt lat="42.80817" lon="0.1442">
        <ele>2181.8814986735</ele>
        <time>2014-06-01T08:07:22Z</time>
      </trkpt>
      <trkpt lat="42.80815" lon="0.14415">
        <ele>2181.8814986735</ele>
        <time>2014-06-01T08:07:26Z</time>
      </trkpt>
      <trkpt lat="42.80813" lon="0.14408">
        <ele>2182.8681475354</ele>
        <time>2014-06-01T08:07:35Z</time>
      </trkpt>
      <trkpt lat="42.80812" lon="0.14406">
        <ele>2182.8681475354</ele>
        <time>2014-06-01T08:07:42Z</time>
      </trkpt>
      <trkpt lat="42.80811" lon="0.14401">
        <ele>2182.8681475354</ele>
        <time>2014-06-01T08:07:46Z</time>
      </trkpt>
      <trkpt lat="42.80811" lon="0.14395">
        <ele>2184.2074411155</ele>
        <time>2014-06-01T08:07:51Z</time>
      </trkpt>
      <trkpt lat="42.80811" lon="0.14394">
        <ele>2184.2074411155</ele>
        <time>2014-06-01T08:07:57Z</time>
      </trkpt>
      <trkpt lat="42.8081" lon="0.14391">
        <ele>2184.2074411155</ele>
        <time>2014-06-01T08:08:00Z</time>
      </trkpt>
      <trkpt lat="42.8081" lon="0.14385">
        <ele>2184.2074411155</ele>
        <time>2014-06-01T08:08:06Z</time>
      </trkpt>
      <trkpt lat="42.80809" lon="0.14381">
        <ele>2185.7117442957</ele>
        <time>2014-06-01T08:08:11Z</time>
      </trkpt>
      <trkpt lat="42.80808" lon="0.14377">
        <ele>2185.7117442957</ele>
        <time>2014-06-01T08:08:17Z</time>
      </trkpt>
      <trkpt lat="42.80804" lon="0.14373">
        <ele>2185.7117442957</ele>
        <time>2014-06-01T08:08:26Z</time>
      </trkpt>
      <trkpt lat="42.80802" lon="0.1437">
        <ele>2187.5263277165</ele>
        <time>2014-06-01T08:08:31Z</time>
      </trkpt>
      <trkpt lat="42.80801" lon="0.14367">
        <ele>2187.5263277165</ele>
        <time>2014-06-01T08:08:36Z</time>
      </trkpt>
      <trkpt lat="42.80799" lon="0.14364">
        <ele>2187.5263277165</ele>
        <time>2014-06-01T08:08:42Z</time>
      </trkpt>
      <trkpt lat="42.80799" lon="0.14363">
        <ele>2187.5263277165</ele>
        <time>2014-06-01T08:08:47Z</time>
      </trkpt>
      <trkpt lat="42.80797" lon="0.1436">
        <ele>2187.5263277165</ele>
        <time>2014-06-01T08:08:51Z</time>
      </trkpt>
      <trkpt lat="42.80795" lon="0.14352">
        <ele>2190.0448402025</ele>
        <time>2014-06-01T08:09:01Z</time>
      </trkpt>
      <trkpt lat="42.80795" lon="0.1435">
        <ele>2190.0448402025</ele>
        <time>2014-06-01T08:09:06Z</time>
      </trkpt>
      <trkpt lat="42.80793" lon="0.14347">
        <ele>2190.0448402025</ele>
        <time>2014-06-01T08:09:11Z</time>
      </trkpt>
      <trkpt lat="42.80793" lon="0.14345">
        <ele>2190.0448402025</ele>
        <time>2014-06-01T08:09:17Z</time>
      </trkpt>
      <trkpt lat="42.80792" lon="0.14342">
        <ele>2190.0448402025</ele>
        <time>2014-06-01T08:09:22Z</time>
      </trkpt>
      <trkpt lat="42.80791" lon="0.14339">
        <ele>2192.9202097218</ele>
        <time>2014-06-01T08:09:26Z</time>
      </trkpt>
      <trkpt lat="42.80787" lon="0.14335">
        <ele>2192.9202097218</ele>
        <time>2014-06-01T08:09:36Z</time>
      </trkpt>
      <trkpt lat="42.80784" lon="0.14332">
        <ele>2192.9202097218</ele>
        <time>2014-06-01T08:09:42Z</time>
      </trkpt>
      <trkpt lat="42.80783" lon="0.14332">
        <ele>2196.0044322285</ele>
        <time>2014-06-01T08:09:46Z</time>
      </trkpt>
      <trkpt lat="42.80778" lon="0.14333">
        <ele>2196.0044322285</ele>
        <time>2014-06-01T08:09:51Z</time>
      </trkpt>
      <trkpt lat="42.80778" lon="0.14332">
        <ele>2196.0044322285</ele>
        <time>2014-06-01T08:09:56Z</time>
      </trkpt>
      <trkpt lat="42.80773" lon="0.14335">
        <ele>2199.1168148981</ele>
        <time>2014-06-01T08:10:01Z</time>
      </trkpt>
      <trkpt lat="42.80773" lon="0.14335">
        <ele>2199.1168148981</ele>
        <time>2014-06-01T08:10:06Z</time>
      </trkpt>
      <trkpt lat="42.80771" lon="0.14336">
        <ele>2199.1168148981</ele>
        <time>2014-06-01T08:10:11Z</time>
      </trkpt>
      <trkpt lat="42.80768" lon="0.14338">
        <ele>2199.1168148981</ele>
        <time>2014-06-01T08:10:17Z</time>
      </trkpt>
      <trkpt lat="42.80767" lon="0.14338">
        <ele>2199.1168148981</ele>
        <time>2014-06-01T08:10:22Z</time>
      </trkpt>
      <trkpt lat="42.80764" lon="0.14336">
        <ele>2202.4365979412</ele>
        <time>2014-06-01T08:10:26Z</time>
      </trkpt>
      <trkpt lat="42.80763" lon="0.14336">
        <ele>2202.4365979412</ele>
        <time>2014-06-01T08:10:32Z</time>
      </trkpt>
      <trkpt lat="42.80759" lon="0.14333">
        <ele>2202.4365979412</ele>
        <time>2014-06-01T08:10:36Z</time>
      </trkpt>
      <trkpt lat="42.80758" lon="0.14333">
        <ele>2202.4365979412</ele>
        <time>2014-06-01T08:10:42Z</time>
      </trkpt>
      <trkpt lat="42.80754" lon="0.14333">
        <ele>2205.854734407</ele>
        <time>2014-06-01T08:10:46Z</time>
      </trkpt>
      <trkpt lat="42.80751" lon="0.14334">
        <ele>2205.854734407</ele>
        <time>2014-06-01T08:10:52Z</time>
      </trkpt>
      <trkpt lat="42.80749" lon="0.14336">
        <ele>2205.854734407</ele>
        <time>2014-06-01T08:10:56Z</time>
      </trkpt>
      <trkpt lat="42.80748" lon="0.14343">
        <ele>2209.3710022498</ele>
        <time>2014-06-01T08:11:06Z</time>
      </trkpt>
      <trkpt lat="42.80745" lon="0.14346">
        <ele>2209.3710022498</ele>
        <time>2014-06-01T08:11:16Z</time>
      </trkpt>
      <trkpt lat="42.80739" lon="0.14352">
        <ele>2212.8983533055</ele>
        <time>2014-06-01T08:11:26Z</time>
      </trkpt>
      <trkpt lat="42.80737" lon="0.14355">
        <ele>2212.8983533055</ele>
        <time>2014-06-01T08:11:31Z</time>
      </trkpt>
      <trkpt lat="42.80734" lon="0.14356">
        <ele>2212.8983533055</ele>
        <time>2014-06-01T08:11:36Z</time>
      </trkpt>
      <trkpt lat="42.80734" lon="0.14356">
        <ele>2212.8983533055</ele>
        <time>2014-06-01T08:11:41Z</time>
      </trkpt>
      <trkpt lat="42.80733" lon="0.14353">
        <ele>2212.8983533055</ele>
        <time>2014-06-01T08:11:46Z</time>
      </trkpt>
      <trkpt lat="42.80732" lon="0.14353">
        <ele>2216.5003513587</ele>
        <time>2014-06-01T08:11:52Z</time>
      </trkpt>
      <trkpt lat="42.80728" lon="0.1435">
        <ele>2216.5003513587</ele>
        <time>2014-06-01T08:12:01Z</time>
      </trkpt>
      <trkpt lat="42.80725" lon="0.14353">
        <ele>2216.5003513587</ele>
        <time>2014-06-01T08:12:06Z</time>
      </trkpt>
      <trkpt lat="42.80721" lon="0.14358">
        <ele>2220.2789094702</ele>
        <time>2014-06-01T08:12:16Z</time>
      </trkpt>
      <trkpt lat="42.80721" lon="0.1436">
        <ele>2220.2789094702</ele>
        <time>2014-06-01T08:12:21Z</time>
      </trkpt>
      <trkpt lat="42.8072" lon="0.14361">
        <ele>2220.2789094702</ele>
        <time>2014-06-01T08:12:26Z</time>
      </trkpt>
      <trkpt lat="42.8072" lon="0.14364">
        <ele>2220.2789094702</ele>
        <time>2014-06-01T08:12:32Z</time>
      </trkpt>
      <trkpt lat="42.80716" lon="0.1437">
        <ele>2223.80892897</ele>
        <time>2014-06-01T08:12:36Z</time>
      </trkpt>
      <trkpt lat="42.80715" lon="0.14372">
        <ele>2223.80892897</ele>
        <time>2014-06-01T08:12:42Z</time>
      </trkpt>
      <trkpt lat="42.80712" lon="0.14377">
        <ele>2223.80892897</ele>
        <time>2014-06-01T08:12:46Z</time>
      </trkpt>
      <trkpt lat="42.80711" lon="0.14379">
        <ele>2223.80892897</ele>
        <time>2014-06-01T08:12:51Z</time>
      </trkpt>
      <trkpt lat="42.80708" lon="0.14384">
        <ele>2227.028968922</ele>
        <time>2014-06-01T08:13:01Z</time>
      </trkpt>
      <trkpt lat="42.80702" lon="0.14389">
        <ele>2227.028968922</ele>
        <time>2014-06-01T08:14:11Z</time>
      </trkpt>
      <trkpt lat="42.80701" lon="0.14391">
        <ele>2227.028968922</ele>
        <time>2014-06-01T08:14:21Z</time>
      </trkpt>
      <trkpt lat="42.80697" lon="0.14395">
        <ele>2229.7100068241</ele>
        <time>2014-06-01T08:15:01Z</time>
      </trkpt>
      <trkpt lat="42.80694" lon="0.14397">
        <ele>2229.7100068241</ele>
        <time>2014-06-01T08:15:06Z</time>
      </trkpt>
      <trkpt lat="42.80693" lon="0.14396">
        <ele>2229.7100068241</ele>
        <time>2014-06-01T08:15:11Z</time>
      </trkpt>
      <trkpt lat="42.80693" lon="0.14393">
        <ele>2229.7100068241</ele>
        <time>2014-06-01T08:15:16Z</time>
      </trkpt>
      <trkpt lat="42.80692" lon="0.14391">
        <ele>2229.7100068241</ele>
        <time>2014-06-01T08:15:22Z</time>
      </trkpt>
      <trkpt lat="42.80692" lon="0.14386">
        <ele>2232.3334836131</ele>
        <time>2014-06-01T08:15:26Z</time>
      </trkpt>
      <trkpt lat="42.8069" lon="0.14383">
        <ele>2232.3334836131</ele>
        <time>2014-06-01T08:15:31Z</time>
      </trkpt>
      <trkpt lat="42.80689" lon="0.14379">
        <ele>2232.3334836131</ele>
        <time>2014-06-01T08:15:41Z</time>
      </trkpt>
      <trkpt lat="42.80685" lon="0.1438">
        <ele>2234.8555382808</ele>
        <time>2014-06-01T08:15:46Z</time>
      </trkpt>
      <trkpt lat="42.8068" lon="0.14384">
        <ele>2234.8555382808</ele>
        <time>2014-06-01T08:15:56Z</time>
      </trkpt>
      <trkpt lat="42.80678" lon="0.14385">
        <ele>2234.8555382808</ele>
        <time>2014-06-01T08:16:02Z</time>
      </trkpt>
      <trkpt lat="42.80675" lon="0.14386">
        <ele>2237.3080391109</ele>
        <time>2014-06-01T08:16:06Z</time>
      </trkpt>
      <trkpt lat="42.80673" lon="0.14386">
        <ele>2237.3080391109</ele>
        <time>2014-06-01T08:16:11Z</time>
      </trkpt>
      <trkpt lat="42.8067" lon="0.14387">
        <ele>2237.3080391109</ele>
        <time>2014-06-01T08:16:16Z</time>
      </trkpt>
      <trkpt lat="42.80666" lon="0.14388">
        <ele>2239.6920110179</ele>
        <time>2014-06-01T08:16:22Z</time>
      </trkpt>
      <trkpt lat="42.80664" lon="0.14385">
        <ele>2239.6920110179</ele>
        <time>2014-06-01T08:16:26Z</time>
      </trkpt>
      <trkpt lat="42.80663" lon="0.14383">
        <ele>2239.6920110179</ele>
        <time>2014-06-01T08:16:31Z</time>
      </trkpt>
      <trkpt lat="42.80662" lon="0.14383">
        <ele>2239.6920110179</ele>
        <time>2014-06-01T08:16:37Z</time>
      </trkpt>
      <trkpt lat="42.80659" lon="0.14379">
        <ele>2242.0808457773</ele>
        <time>2014-06-01T08:16:41Z</time>
      </trkpt>
      <trkpt lat="42.80656" lon="0.14375">
        <ele>2242.0808457773</ele>
        <time>2014-06-01T08:16:46Z</time>
      </trkpt>
      <trkpt lat="42.80655" lon="0.14375">
        <ele>2242.0808457773</ele>
        <time>2014-06-01T08:16:51Z</time>
      </trkpt>
      <trkpt lat="42.80653" lon="0.14369">
        <ele>2244.4128903576</ele>
        <time>2014-06-01T08:16:57Z</time>
      </trkpt>
      <trkpt lat="42.80652" lon="0.14365">
        <ele>2244.4128903576</ele>
        <time>2014-06-01T08:17:01Z</time>
      </trkpt>
      <trkpt lat="42.80651" lon="0.14361">
        <ele>2244.4128903576</ele>
        <time>2014-06-01T08:17:12Z</time>
      </trkpt>
      <trkpt lat="42.80646" lon="0.14357">
        <ele>2246.9197724935</ele>
        <time>2014-06-01T08:17:22Z</time>
      </trkpt>
      <trkpt lat="42.80642" lon="0.14353">
        <ele>2246.9197724935</ele>
        <time>2014-06-01T08:17:26Z</time>
      </trkpt>
      <trkpt lat="42.80639" lon="0.14351">
        <ele>2246.9197724935</ele>
        <time>2014-06-01T08:17:31Z</time>
      </trkpt>
      <trkpt lat="42.80639" lon="0.1435">
        <ele>2249.6427039384</ele>
        <time>2014-06-01T08:17:36Z</time>
      </trkpt>
      <trkpt lat="42.80637" lon="0.14348">
        <ele>2249.6427039384</ele>
        <time>2014-06-01T08:17:42Z</time>
      </trkpt>
      <trkpt lat="42.80634" lon="0.14347">
        <ele>2249.6427039384</ele>
        <time>2014-06-01T08:17:45Z</time>
      </trkpt>
      <trkpt lat="42.80631" lon="0.14346">
        <ele>2249.6427039384</ele>
        <time>2014-06-01T08:17:51Z</time>
      </trkpt>
      <trkpt lat="42.8063" lon="0.14345">
        <ele>2249.6427039384</ele>
        <time>2014-06-01T08:17:57Z</time>
      </trkpt>
      <trkpt lat="42.80629" lon="0.14338">
        <ele>2252.792490705</ele>
        <time>2014-06-01T08:18:01Z</time>
      </trkpt>
      <trkpt lat="42.80628" lon="0.14335">
        <ele>2252.792490705</ele>
        <time>2014-06-01T08:18:06Z</time>
      </trkpt>
      <trkpt lat="42.80627" lon="0.14333">
        <ele>2252.792490705</ele>
        <time>2014-06-01T08:18:11Z</time>
      </trkpt>
      <trkpt lat="42.80626" lon="0.1433">
        <ele>2252.792490705</ele>
        <time>2014-06-01T08:18:17Z</time>
      </trkpt>
      <trkpt lat="42.80623" lon="0.14323">
        <ele>2256.1018286787</ele>
        <time>2014-06-01T08:18:26Z</time>
      </trkpt>
      <trkpt lat="42.80622" lon="0.14321">
        <ele>2256.1018286787</ele>
        <time>2014-06-01T08:18:31Z</time>
      </trkpt>
      <trkpt lat="42.8062" lon="0.14321">
        <ele>2256.1018286787</ele>
        <time>2014-06-01T08:18:37Z</time>
      </trkpt>
      <trkpt lat="42.80617" lon="0.14322">
        <ele>2256.1018286787</ele>
        <time>2014-06-01T08:18:41Z</time>
      </trkpt>
      <trkpt lat="42.80615" lon="0.14321">
        <ele>2259.4381360453</ele>
        <time>2014-06-01T08:18:47Z</time>
      </trkpt>
      <trkpt lat="42.80613" lon="0.14318">
        <ele>2259.4381360453</ele>
        <time>2014-06-01T08:18:50Z</time>
      </trkpt>
      <trkpt lat="42.80612" lon="0.14316">
        <ele>2259.4381360453</ele>
        <time>2014-06-01T08:18:56Z</time>
      </trkpt>
      <trkpt lat="42.8061" lon="0.14312">
        <ele>2259.4381360453</ele>
        <time>2014-06-01T08:19:02Z</time>
      </trkpt>
      <trkpt lat="42.80609" lon="0.14308">
        <ele>2262.707502167</ele>
        <time>2014-06-01T08:19:06Z</time>
      </trkpt>
      <trkpt lat="42.80608" lon="0.14304">
        <ele>2262.707502167</ele>
        <time>2014-06-01T08:19:11Z</time>
      </trkpt>
      <trkpt lat="42.80606" lon="0.14301">
        <ele>2262.707502167</ele>
        <time>2014-06-01T08:19:16Z</time>
      </trkpt>
      <trkpt lat="42.80607" lon="0.14298">
        <ele>2262.707502167</ele>
        <time>2014-06-01T08:19:22Z</time>
      </trkpt>
      <trkpt lat="42.80607" lon="0.14298">
        <ele>2262.707502167</ele>
        <time>2014-06-01T08:19:26Z</time>
      </trkpt>
      <trkpt lat="42.80604" lon="0.14292">
        <ele>2266.0973355115</ele>
        <time>2014-06-01T08:19:41Z</time>
      </trkpt>
      <trkpt lat="42.80604" lon="0.14292">
        <ele>2266.0973355115</ele>
        <time>2014-06-01T08:19:46Z</time>
      </trkpt>
      <trkpt lat="42.80602" lon="0.14289">
        <ele>2266.0973355115</ele>
        <time>2014-06-01T08:19:51Z</time>
      </trkpt>
      <trkpt lat="42.806" lon="0.14285">
        <ele>2266.0973355115</ele>
        <time>2014-06-01T08:19:56Z</time>
      </trkpt>
      <trkpt lat="42.80598" lon="0.14281">
        <ele>2269.2329692976</ele>
        <time>2014-06-01T08:20:01Z</time>
      </trkpt>
      <trkpt lat="42.80596" lon="0.14278">
        <ele>2269.2329692976</ele>
        <time>2014-06-01T08:20:06Z</time>
      </trkpt>
      <trkpt lat="42.80596" lon="0.14276">
        <ele>2269.2329692976</ele>
        <time>2014-06-01T08:20:11Z</time>
      </trkpt>
      <trkpt lat="42.80596" lon="0.14274">
        <ele>2269.2329692976</ele>
        <time>2014-06-01T08:20:16Z</time>
      </trkpt>
      <trkpt lat="42.80592" lon="0.1427">
        <ele>2272.2730241329</ele>
        <time>2014-06-01T08:20:22Z</time>
      </trkpt>
      <trkpt lat="42.8059" lon="0.14268">
        <ele>2272.2730241329</ele>
        <time>2014-06-01T08:20:26Z</time>
      </trkpt>
      <trkpt lat="42.8059" lon="0.14268">
        <ele>2272.2730241329</ele>
        <time>2014-06-01T08:20:31Z</time>
      </trkpt>
      <trkpt lat="42.80586" lon="0.1427">
        <ele>2272.2730241329</ele>
        <time>2014-06-01T08:20:40Z</time>
      </trkpt>
      <trkpt lat="42.80581" lon="0.1427">
        <ele>2275.3216169236</ele>
        <time>2014-06-01T08:20:47Z</time>
      </trkpt>
      <trkpt lat="42.80579" lon="0.14271">
        <ele>2275.3216169236</ele>
        <time>2014-06-01T08:20:51Z</time>
      </trkpt>
      <trkpt lat="42.80573" lon="0.14272">
        <ele>2275.3216169236</ele>
        <time>2014-06-01T08:21:01Z</time>
      </trkpt>
      <trkpt lat="42.80571" lon="0.14274">
        <ele>2278.2445756006</ele>
        <time>2014-06-01T08:21:11Z</time>
      </trkpt>
      <trkpt lat="42.80567" lon="0.14275">
        <ele>2278.2445756006</ele>
        <time>2014-06-01T08:21:16Z</time>
      </trkpt>
      <trkpt lat="42.80562" lon="0.14275">
        <ele>2278.2445756006</ele>
        <time>2014-06-01T08:21:21Z</time>
      </trkpt>
      <trkpt lat="42.8056" lon="0.14275">
        <ele>2280.9613945724</ele>
        <time>2014-06-01T08:21:27Z</time>
      </trkpt>
      <trkpt lat="42.80558" lon="0.14274">
        <ele>2280.9613945724</ele>
        <time>2014-06-01T08:21:31Z</time>
      </trkpt>
      <trkpt lat="42.80556" lon="0.14271">
        <ele>2280.9613945724</ele>
        <time>2014-06-01T08:21:36Z</time>
      </trkpt>
      <trkpt lat="42.80555" lon="0.14266">
        <ele>2280.9613945724</ele>
        <time>2014-06-01T08:21:41Z</time>
      </trkpt>
      <trkpt lat="42.80555" lon="0.14265">
        <ele>2283.6866746044</ele>
        <time>2014-06-01T08:21:46Z</time>
      </trkpt>
      <trkpt lat="42.80555" lon="0.14257">
        <ele>2283.6866746044</ele>
        <time>2014-06-01T08:21:50Z</time>
      </trkpt>
      <trkpt lat="42.80555" lon="0.14256">
        <ele>2283.6866746044</ele>
        <time>2014-06-01T08:21:57Z</time>
      </trkpt>
      <trkpt lat="42.80557" lon="0.1425">
        <ele>2286.4607091659</ele>
        <time>2014-06-01T08:22:01Z</time>
      </trkpt>
      <trkpt lat="42.80557" lon="0.14248">
        <ele>2286.4607091659</ele>
        <time>2014-06-01T08:22:07Z</time>
      </trkpt>
      <trkpt lat="42.80558" lon="0.14246">
        <ele>2286.4607091659</ele>
        <time>2014-06-01T08:22:11Z</time>
      </trkpt>
      <trkpt lat="42.8056" lon="0.14242">
        <ele>2286.4607091659</ele>
        <time>2014-06-01T08:22:17Z</time>
      </trkpt>
      <trkpt lat="42.80562" lon="0.1424">
        <ele>2289.2343153573</ele>
        <time>2014-06-01T08:22:21Z</time>
      </trkpt>
      <trkpt lat="42.80562" lon="0.14239">
        <ele>2289.2343153573</ele>
        <time>2014-06-01T08:22:26Z</time>
      </trkpt>
      <trkpt lat="42.80562" lon="0.14234">
        <ele>2289.2343153573</ele>
        <time>2014-06-01T08:22:41Z</time>
      </trkpt>
      <trkpt lat="42.80563" lon="0.14231">
        <ele>2289.2343153573</ele>
        <time>2014-06-01T08:22:46Z</time>
      </trkpt>
      <trkpt lat="42.80564" lon="0.14227">
        <ele>2292.0197597613</ele>
        <time>2014-06-01T08:22:51Z</time>
      </trkpt>
      <trkpt lat="42.80565" lon="0.14223">
        <ele>2292.0197597613</ele>
        <time>2014-06-01T08:22:56Z</time>
      </trkpt>
      <trkpt lat="42.80566" lon="0.14221">
        <ele>2292.0197597613</ele>
        <time>2014-06-01T08:23:02Z</time>
      </trkpt>
      <trkpt lat="42.80567" lon="0.14219">
        <ele>2292.0197597613</ele>
        <time>2014-06-01T08:23:06Z</time>
      </trkpt>
      <trkpt lat="42.80566" lon="0.14219">
        <ele>2292.0197597613</ele>
        <time>2014-06-01T08:23:11Z</time>
      </trkpt>
      <trkpt lat="42.80559" lon="0.14221">
        <ele>2294.9582832515</ele>
        <time>2014-06-01T08:23:26Z</time>
      </trkpt>
      <trkpt lat="42.80556" lon="0.14221">
        <ele>2294.9582832515</ele>
        <time>2014-06-01T08:23:31Z</time>
      </trkpt>
      <trkpt lat="42.80553" lon="0.14221">
        <ele>2294.9582832515</ele>
        <time>2014-06-01T08:23:41Z</time>
      </trkpt>
      <trkpt lat="42.8055" lon="0.14221">
        <ele>2294.9582832515</ele>
        <time>2014-06-01T08:23:47Z</time>
      </trkpt>
      <trkpt lat="42.80547" lon="0.14221">
        <ele>2297.90648608</ele>
        <time>2014-06-01T08:23:51Z</time>
      </trkpt>
      <trkpt lat="42.80543" lon="0.14221">
        <ele>2297.90648608</ele>
        <time>2014-06-01T08:23:56Z</time>
      </trkpt>
      <trkpt lat="42.80543" lon="0.14221">
        <ele>2297.90648608</ele>
        <time>2014-06-01T08:24:01Z</time>
      </trkpt>
      <trkpt lat="42.80537" lon="0.14222">
        <ele>2301.0920740436</ele>
        <time>2014-06-01T08:24:31Z</time>
      </trkpt>
      <trkpt lat="42.80534" lon="0.14222">
        <ele>2301.0920740436</ele>
        <time>2014-06-01T08:24:36Z</time>
      </trkpt>
      <trkpt lat="42.80531" lon="0.14222">
        <ele>2301.0920740436</ele>
        <time>2014-06-01T08:24:40Z</time>
      </trkpt>
      <trkpt lat="42.8053" lon="0.14223">
        <ele>2301.0920740436</ele>
        <time>2014-06-01T08:24:46Z</time>
      </trkpt>
      <trkpt lat="42.80528" lon="0.14224">
        <ele>2304.1776138461</ele>
        <time>2014-06-01T08:24:51Z</time>
      </trkpt>
      <trkpt lat="42.80524" lon="0.14227">
        <ele>2304.1776138461</ele>
        <time>2014-06-01T08:24:56Z</time>
      </trkpt>
      <trkpt lat="42.80521" lon="0.14228">
        <ele>2304.1776138461</ele>
        <time>2014-06-01T08:25:01Z</time>
      </trkpt>
      <trkpt lat="42.80518" lon="0.14229">
        <ele>2307.1104218227</ele>
        <time>2014-06-01T08:25:07Z</time>
      </trkpt>
      <trkpt lat="42.80516" lon="0.14231">
        <ele>2307.1104218227</ele>
        <time>2014-06-01T08:25:11Z</time>
      </trkpt>
      <trkpt lat="42.80513" lon="0.14233">
        <ele>2307.1104218227</ele>
        <time>2014-06-01T08:25:16Z</time>
      </trkpt>
      <trkpt lat="42.8051" lon="0.14235">
        <ele>2309.9287381201</ele>
        <time>2014-06-01T08:25:22Z</time>
      </trkpt>
      <trkpt lat="42.80507" lon="0.14237">
        <ele>2309.9287381201</ele>
        <time>2014-06-01T08:25:31Z</time>
      </trkpt>
      <trkpt lat="42.80504" lon="0.14238">
        <ele>2309.9287381201</ele>
        <time>2014-06-01T08:25:36Z</time>
      </trkpt>
      <trkpt lat="42.80501" lon="0.14239">
        <ele>2312.7693317266</ele>
        <time>2014-06-01T08:25:41Z</time>
      </trkpt>
      <trkpt lat="42.80499" lon="0.14241">
        <ele>2312.7693317266</ele>
        <time>2014-06-01T08:25:46Z</time>
      </trkpt>
      <trkpt lat="42.80499" lon="0.14242">
        <ele>2312.7693317266</ele>
        <time>2014-06-01T08:25:51Z</time>
      </trkpt>
      <trkpt lat="42.80495" lon="0.14246">
        <ele>2312.7693317266</ele>
        <time>2014-06-01T08:26:11Z</time>
      </trkpt>
      <trkpt lat="42.80492" lon="0.14244">
        <ele>2315.6724723643</ele>
        <time>2014-06-01T08:26:16Z</time>
      </trkpt>
      <trkpt lat="42.80493" lon="0.14243">
        <ele>2315.6724723643</ele>
        <time>2014-06-01T08:26:22Z</time>
      </trkpt>
      <trkpt lat="42.80493" lon="0.14238">
        <ele>2315.6724723643</ele>
        <time>2014-06-01T08:26:26Z</time>
      </trkpt>
      <trkpt lat="42.80493" lon="0.14233">
        <ele>2315.6724723643</ele>
        <time>2014-06-01T08:26:31Z</time>
      </trkpt>
      <trkpt lat="42.80493" lon="0.14229">
        <ele>2318.4591972217</ele>
        <time>2014-06-01T08:26:36Z</time>
      </trkpt>
      <trkpt lat="42.80491" lon="0.14225">
        <ele>2318.4591972217</ele>
        <time>2014-06-01T08:26:41Z</time>
      </trkpt>
      <trkpt lat="42.80492" lon="0.14219">
        <ele>2318.4591972217</ele>
        <time>2014-06-01T08:26:46Z</time>
      </trkpt>
      <trkpt lat="42.80492" lon="0.14216">
        <ele>2321.1371057118</ele>
        <time>2014-06-01T08:26:51Z</time>
      </trkpt>
      <trkpt lat="42.8049" lon="0.14211">
        <ele>2321.1371057118</ele>
        <time>2014-06-01T08:26:56Z</time>
      </trkpt>
      <trkpt lat="42.8049" lon="0.14206">
        <ele>2321.1371057118</ele>
        <time>2014-06-01T08:27:01Z</time>
      </trkpt>
      <trkpt lat="42.80491" lon="0.142">
        <ele>2323.8865992058</ele>
        <time>2014-06-01T08:27:11Z</time>
      </trkpt>
      <trkpt lat="42.8049" lon="0.14196">
        <ele>2323.8865992058</ele>
        <time>2014-06-01T08:27:17Z</time>
      </trkpt>
      <trkpt lat="42.80491" lon="0.14194">
        <ele>2323.8865992058</ele>
        <time>2014-06-01T08:27:21Z</time>
      </trkpt>
      <trkpt lat="42.80492" lon="0.14194">
        <ele>2323.8865992058</ele>
        <time>2014-06-01T08:27:27Z</time>
      </trkpt>
      <trkpt lat="42.80493" lon="0.14191">
        <ele>2323.8865992058</ele>
        <time>2014-06-01T08:27:31Z</time>
      </trkpt>
      <trkpt lat="42.80492" lon="0.14187">
        <ele>2326.7594047823</ele>
        <time>2014-06-01T08:27:36Z</time>
      </trkpt>
      <trkpt lat="42.80492" lon="0.14183">
        <ele>2326.7594047823</ele>
        <time>2014-06-01T08:27:42Z</time>
      </trkpt>
      <trkpt lat="42.80493" lon="0.14179">
        <ele>2326.7594047823</ele>
        <time>2014-06-01T08:27:46Z</time>
      </trkpt>
      <trkpt lat="42.80493" lon="0.14176">
        <ele>2326.7594047823</ele>
        <time>2014-06-01T08:27:53Z</time>
      </trkpt>
      <trkpt lat="42.80493" lon="0.14174">
        <ele>2329.4428851263</ele>
        <time>2014-06-01T08:27:55Z</time>
      </trkpt>
      <trkpt lat="42.80494" lon="0.1417">
        <ele>2329.4428851263</ele>
        <time>2014-06-01T08:28:02Z</time>
      </trkpt>
      <trkpt lat="42.80495" lon="0.14168">
        <ele>2329.4428851263</ele>
        <time>2014-06-01T08:28:06Z</time>
      </trkpt>
      <trkpt lat="42.80496" lon="0.14166">
        <ele>2329.4428851263</ele>
        <time>2014-06-01T08:28:11Z</time>
      </trkpt>
      <trkpt lat="42.80496" lon="0.14166">
        <ele>2329.4428851263</ele>
        <time>2014-06-01T08:28:16Z</time>
      </trkpt>
      <trkpt lat="42.80498" lon="0.14161">
        <ele>2332.2100790346</ele>
        <time>2014-06-01T08:28:26Z</time>
      </trkpt>
      <trkpt lat="42.80498" lon="0.14159">
        <ele>2332.2100790346</ele>
        <time>2014-06-01T08:28:30Z</time>
      </trkpt>
      <trkpt lat="42.80495" lon="0.14161">
        <ele>2332.2100790346</ele>
        <time>2014-06-01T08:28:51Z</time>
      </trkpt>
      <trkpt lat="42.80492" lon="0.14163">
        <ele>2332.2100790346</ele>
        <time>2014-06-01T08:28:56Z</time>
      </trkpt>
      <trkpt lat="42.80487" lon="0.14165">
        <ele>2335.0111491101</ele>
        <time>2014-06-01T08:29:01Z</time>
      </trkpt>
      <trkpt lat="42.80485" lon="0.14166">
        <ele>2335.0111491101</ele>
        <time>2014-06-01T08:29:06Z</time>
      </trkpt>
      <trkpt lat="42.80482" lon="0.14167">
        <ele>2335.0111491101</ele>
        <time>2014-06-01T08:29:11Z</time>
      </trkpt>
      <trkpt lat="42.8048" lon="0.14168">
        <ele>2335.0111491101</ele>
        <time>2014-06-01T08:29:16Z</time>
      </trkpt>
      <trkpt lat="42.80478" lon="0.14168">
        <ele>2337.6557872365</ele>
        <time>2014-06-01T08:29:22Z</time>
      </trkpt>
      <trkpt lat="42.80475" lon="0.14169">
        <ele>2337.6557872365</ele>
        <time>2014-06-01T08:29:26Z</time>
      </trkpt>
      <trkpt lat="42.80472" lon="0.14172">
        <ele>2337.6557872365</ele>
        <time>2014-06-01T08:29:31Z</time>
      </trkpt>
      <trkpt lat="42.8047" lon="0.14174">
        <ele>2337.6557872365</ele>
        <time>2014-06-01T08:29:35Z</time>
      </trkpt>
      <trkpt lat="42.8047" lon="0.14174">
        <ele>2340.2275903961</ele>
        <time>2014-06-01T08:29:41Z</time>
      </trkpt>
      <trkpt lat="42.80465" lon="0.14176">
        <ele>2340.2275903961</ele>
        <time>2014-06-01T08:29:47Z</time>
      </trkpt>
      <trkpt lat="42.80464" lon="0.14177">
        <ele>2340.2275903961</ele>
        <time>2014-06-01T08:29:51Z</time>
      </trkpt>
      <trkpt lat="42.80463" lon="0.1418">
        <ele>2340.2275903961</ele>
        <time>2014-06-01T08:30:02Z</time>
      </trkpt>
      <trkpt lat="42.80462" lon="0.14179">
        <ele>2342.9195731922</ele>
        <time>2014-06-01T08:30:06Z</time>
      </trkpt>
      <trkpt lat="42.80461" lon="0.1418">
        <ele>2342.9195731922</ele>
        <time>2014-06-01T08:30:11Z</time>
      </trkpt>
      <trkpt lat="42.80463" lon="0.14176">
        <ele>2342.9195731922</ele>
        <time>2014-06-01T08:30:27Z</time>
      </trkpt>
      <trkpt lat="42.80464" lon="0.14172">
        <ele>2342.9195731922</ele>
        <time>2014-06-01T08:30:31Z</time>
      </trkpt>
      <trkpt lat="42.80466" lon="0.14168">
        <ele>2345.636475542</ele>
        <time>2014-06-01T08:30:36Z</time>
      </trkpt>
      <trkpt lat="42.80467" lon="0.14163">
        <ele>2345.636475542</ele>
        <time>2014-06-01T08:30:43Z</time>
      </trkpt>
      <trkpt lat="42.80467" lon="0.14158">
        <ele>2345.636475542</ele>
        <time>2014-06-01T08:30:46Z</time>
      </trkpt>
      <trkpt lat="42.80468" lon="0.14152">
        <ele>2348.174733107</ele>
        <time>2014-06-01T08:30:51Z</time>
      </trkpt>
      <trkpt lat="42.80469" lon="0.14151">
        <ele>2348.174733107</ele>
        <time>2014-06-01T08:30:56Z</time>
      </trkpt>
      <trkpt lat="42.80472" lon="0.14144">
        <ele>2348.174733107</ele>
        <time>2014-06-01T08:31:02Z</time>
      </trkpt>
      <trkpt lat="42.80473" lon="0.14143">
        <ele>2348.174733107</ele>
        <time>2014-06-01T08:31:06Z</time>
      </trkpt>
      <trkpt lat="42.8047" lon="0.14149">
        <ele>2350.7642163172</ele>
        <time>2014-06-01T08:31:21Z</time>
      </trkpt>
      <trkpt lat="42.80468" lon="0.14151">
        <ele>2350.7642163172</ele>
        <time>2014-06-01T08:31:27Z</time>
      </trkpt>
      <trkpt lat="42.80466" lon="0.14152">
        <ele>2350.7642163172</ele>
        <time>2014-06-01T08:31:31Z</time>
      </trkpt>
      <trkpt lat="42.8046" lon="0.14156">
        <ele>2353.3007621896</ele>
        <time>2014-06-01T08:31:41Z</time>
      </trkpt>
      <trkpt lat="42.80457" lon="0.14159">
        <ele>2353.3007621896</ele>
        <time>2014-06-01T08:31:47Z</time>
      </trkpt>
      <trkpt lat="42.80458" lon="0.1416">
        <ele>2353.3007621896</ele>
        <time>2014-06-01T08:31:51Z</time>
      </trkpt>
      <trkpt lat="42.80456" lon="0.14155">
        <ele>2353.3007621896</ele>
        <time>2014-06-01T08:32:06Z</time>
      </trkpt>
      <trkpt lat="42.80458" lon="0.14151">
        <ele>2355.8465731957</ele>
        <time>2014-06-01T08:32:11Z</time>
      </trkpt>
      <trkpt lat="42.80459" lon="0.14148">
        <ele>2355.8465731957</ele>
        <time>2014-06-01T08:32:16Z</time>
      </trkpt>
      <trkpt lat="42.8046" lon="0.14143">
        <ele>2355.8465731957</ele>
        <time>2014-06-01T08:32:21Z</time>
      </trkpt>
      <trkpt lat="42.8046" lon="0.1414">
        <ele>2355.8465731957</ele>
        <time>2014-06-01T08:32:26Z</time>
      </trkpt>
      <trkpt lat="42.8046" lon="0.1414">
        <ele>2355.8465731957</ele>
        <time>2014-06-01T08:32:31Z</time>
      </trkpt>
      <trkpt lat="42.80457" lon="0.14144">
        <ele>2358.4016473489</ele>
        <time>2014-06-01T08:32:42Z</time>
      </trkpt>
      <trkpt lat="42.80454" lon="0.14145">
        <ele>2358.4016473489</ele>
        <time>2014-06-01T08:32:46Z</time>
      </trkpt>
      <trkpt lat="42.80452" lon="0.14147">
        <ele>2358.4016473489</ele>
        <time>2014-06-01T08:32:53Z</time>
      </trkpt>
      <trkpt lat="42.8045" lon="0.1415">
        <ele>2358.4016473489</ele>
        <time>2014-06-01T08:32:56Z</time>
      </trkpt>
      <trkpt lat="42.8045" lon="0.14149">
        <ele>2361.0956898455</ele>
        <time>2014-06-01T08:33:01Z</time>
      </trkpt>
      <trkpt lat="42.80447" lon="0.14153">
        <ele>2361.0956898455</ele>
        <time>2014-06-01T08:33:21Z</time>
      </trkpt>
      <trkpt lat="42.80446" lon="0.14154">
        <ele>2361.0956898455</ele>
        <time>2014-06-01T08:33:26Z</time>
      </trkpt>
      <trkpt lat="42.80447" lon="0.14148">
        <ele>2364.0773389944</ele>
        <time>2014-06-01T08:33:35Z</time>
      </trkpt>
      <trkpt lat="42.80448" lon="0.14143">
        <ele>2364.0773389944</ele>
        <time>2014-06-01T08:33:41Z</time>
      </trkpt>
      <trkpt lat="42.80447" lon="0.1414">
        <ele>2364.0773389944</ele>
        <time>2014-06-01T08:33:47Z</time>
      </trkpt>
      <trkpt lat="42.80448" lon="0.14135">
        <ele>2366.878257631</ele>
        <time>2014-06-01T08:33:51Z</time>
      </trkpt>
      <trkpt lat="42.80447" lon="0.14133">
        <ele>2366.878257631</ele>
        <time>2014-06-01T08:33:56Z</time>
      </trkpt>
      <trkpt lat="42.80447" lon="0.14132">
        <ele>2366.878257631</ele>
        <time>2014-06-01T08:34:00Z</time>
      </trkpt>
      <trkpt lat="42.80445" lon="0.14135">
        <ele>2366.878257631</ele>
        <time>2014-06-01T08:34:11Z</time>
      </trkpt>
      <trkpt lat="42.80444" lon="0.14135">
        <ele>2366.878257631</ele>
        <time>2014-06-01T08:34:16Z</time>
      </trkpt>
      <trkpt lat="42.80441" lon="0.14138">
        <ele>2369.8432527167</ele>
        <time>2014-06-01T08:34:22Z</time>
      </trkpt>
      <trkpt lat="42.8044" lon="0.14131">
        <ele>2369.8432527167</ele>
        <time>2014-06-01T08:35:11Z</time>
      </trkpt>
      <trkpt lat="42.80441" lon="0.14125">
        <ele>2372.9743150159</ele>
        <time>2014-06-01T08:35:16Z</time>
      </trkpt>
      <trkpt lat="42.80441" lon="0.14123">
        <ele>2372.9743150159</ele>
        <time>2014-06-01T08:35:21Z</time>
      </trkpt>
      <trkpt lat="42.80441" lon="0.1412">
        <ele>2372.9743150159</ele>
        <time>2014-06-01T08:35:26Z</time>
      </trkpt>
      <trkpt lat="42.80441" lon="0.14118">
        <ele>2372.9743150159</ele>
        <time>2014-06-01T08:35:32Z</time>
      </trkpt>
      <trkpt lat="42.80442" lon="0.14116">
        <ele>2372.9743150159</ele>
        <time>2014-06-01T08:35:35Z</time>
      </trkpt>
      <trkpt lat="42.80443" lon="0.14111">
        <ele>2376.388136331</ele>
        <time>2014-06-01T08:35:42Z</time>
      </trkpt>
      <trkpt lat="42.80443" lon="0.14109">
        <ele>2376.388136331</ele>
        <time>2014-06-01T08:35:46Z</time>
      </trkpt>
      <trkpt lat="42.80444" lon="0.14105">
        <ele>2376.388136331</ele>
        <time>2014-06-01T08:36:06Z</time>
      </trkpt>
      <trkpt lat="42.80443" lon="0.14102">
        <ele>2376.388136331</ele>
        <time>2014-06-01T08:36:12Z</time>
      </trkpt>
      <trkpt lat="42.80444" lon="0.14096">
        <ele>2379.7885465256</ele>
        <time>2014-06-01T08:36:16Z</time>
      </trkpt>
      <trkpt lat="42.80444" lon="0.14092">
        <ele>2379.7885465256</ele>
        <time>2014-06-01T08:36:22Z</time>
      </trkpt>
      <trkpt lat="42.80443" lon="0.14093">
        <ele>2379.7885465256</ele>
        <time>2014-06-01T08:36:26Z</time>
      </trkpt>
      <trkpt lat="42.80443" lon="0.1409">
        <ele>2379.7885465256</ele>
        <time>2014-06-01T08:37:16Z</time>
      </trkpt>
      <trkpt lat="42.80442" lon="0.14086">
        <ele>2379.7885465256</ele>
        <time>2014-06-01T08:37:21Z</time>
      </trkpt>
      <trkpt lat="42.80442" lon="0.14081">
        <ele>2383.4632397545</ele>
        <time>2014-06-01T08:37:26Z</time>
      </trkpt>
      <trkpt lat="42.80441" lon="0.14075">
        <ele>2383.4632397545</ele>
        <time>2014-06-01T08:37:31Z</time>
      </trkpt>
      <trkpt lat="42.80441" lon="0.14071">
        <ele>2383.4632397545</ele>
        <time>2014-06-01T08:37:36Z</time>
      </trkpt>
      <trkpt lat="42.80439" lon="0.14066">
        <ele>2386.8709937908</ele>
        <time>2014-06-01T08:37:41Z</time>
      </trkpt>
      <trkpt lat="42.80438" lon="0.14062">
        <ele>2386.8709937908</ele>
        <time>2014-06-01T08:37:46Z</time>
      </trkpt>
      <trkpt lat="42.80437" lon="0.14058">
        <ele>2386.8709937908</ele>
        <time>2014-06-01T08:37:52Z</time>
      </trkpt>
      <trkpt lat="42.80436" lon="0.14053">
        <ele>2390.058758573</ele>
        <time>2014-06-01T08:37:56Z</time>
      </trkpt>
      <trkpt lat="42.80434" lon="0.14048">
        <ele>2390.058758573</ele>
        <time>2014-06-01T08:38:01Z</time>
      </trkpt>
      <trkpt lat="42.8043" lon="0.14046">
        <ele>2390.058758573</ele>
        <time>2014-06-01T08:38:06Z</time>
      </trkpt>
      <trkpt lat="42.8043" lon="0.14044">
        <ele>2393.0706848717</ele>
        <time>2014-06-01T08:38:11Z</time>
      </trkpt>
      <trkpt lat="42.80427" lon="0.1404">
        <ele>2393.0706848717</ele>
        <time>2014-06-01T08:38:27Z</time>
      </trkpt>
      <trkpt lat="42.80426" lon="0.14035">
        <ele>2393.0706848717</ele>
        <time>2014-06-01T08:38:31Z</time>
      </trkpt>
      <trkpt lat="42.80426" lon="0.14031">
        <ele>2395.8329142598</ele>
        <time>2014-06-01T08:38:36Z</time>
      </trkpt>
      <trkpt lat="42.80426" lon="0.14026">
        <ele>2395.8329142598</ele>
        <time>2014-06-01T08:38:41Z</time>
      </trkpt>
      <trkpt lat="42.80426" lon="0.14023">
        <ele>2395.8329142598</ele>
        <time>2014-06-01T08:38:46Z</time>
      </trkpt>
      <trkpt lat="42.80427" lon="0.14017">
        <ele>2398.4650947953</ele>
        <time>2014-06-01T08:38:51Z</time>
      </trkpt>
      <trkpt lat="42.80428" lon="0.14016">
        <ele>2398.4650947953</ele>
        <time>2014-06-01T08:38:56Z</time>
      </trkpt>
      <trkpt lat="42.80428" lon="0.14015">
        <ele>2398.4650947953</ele>
        <time>2014-06-01T08:39:01Z</time>
      </trkpt>
      <trkpt lat="42.80428" lon="0.1401">
        <ele>2398.4650947953</ele>
        <time>2014-06-01T08:39:16Z</time>
      </trkpt>
      <trkpt lat="42.80428" lon="0.14006">
        <ele>2398.4650947953</ele>
        <time>2014-06-01T08:39:21Z</time>
      </trkpt>
      <trkpt lat="42.80426" lon="0.14003">
        <ele>2401.222592868</ele>
        <time>2014-06-01T08:39:26Z</time>
      </trkpt>
      <trkpt lat="42.80425" lon="0.14">
        <ele>2401.222592868</ele>
        <time>2014-06-01T08:39:31Z</time>
      </trkpt>
      <trkpt lat="42.80423" lon="0.13998">
        <ele>2401.222592868</ele>
        <time>2014-06-01T08:39:36Z</time>
      </trkpt>
      <trkpt lat="42.80423" lon="0.13998">
        <ele>2401.222592868</ele>
        <time>2014-06-01T08:39:41Z</time>
      </trkpt>
      <trkpt lat="42.80421" lon="0.13993">
        <ele>2404.0822816597</ele>
        <time>2014-06-01T08:39:56Z</time>
      </trkpt>
      <trkpt lat="42.8042" lon="0.13992">
        <ele>2404.0822816597</ele>
        <time>2014-06-01T08:40:01Z</time>
      </trkpt>
      <trkpt lat="42.8042" lon="0.13992">
        <ele>2404.0822816597</ele>
        <time>2014-06-01T08:40:06Z</time>
      </trkpt>
      <trkpt lat="42.80418" lon="0.1399">
        <ele>2404.0822816597</ele>
        <time>2014-06-01T08:49:11Z</time>
      </trkpt>
      <trkpt lat="42.80416" lon="0.13987">
        <ele>2404.0822816597</ele>
        <time>2014-06-01T08:49:16Z</time>
      </trkpt>
      <trkpt lat="42.80414" lon="0.13984">
        <ele>2407.771865512</ele>
        <time>2014-06-01T08:49:21Z</time>
      </trkpt>
      <trkpt lat="42.80412" lon="0.13979">
        <ele>2407.771865512</ele>
        <time>2014-06-01T08:49:26Z</time>
      </trkpt>
      <trkpt lat="42.8041" lon="0.13977">
        <ele>2407.771865512</ele>
        <time>2014-06-01T08:49:31Z</time>
      </trkpt>
      <trkpt lat="42.80408" lon="0.13975">
        <ele>2411.0177360506</ele>
        <time>2014-06-01T08:49:37Z</time>
      </trkpt>
      <trkpt lat="42.80405" lon="0.13972">
        <ele>2411.0177360506</ele>
        <time>2014-06-01T08:49:41Z</time>
      </trkpt>
      <trkpt lat="42.80403" lon="0.13969">
        <ele>2411.0177360506</ele>
        <time>2014-06-01T08:49:46Z</time>
      </trkpt>
      <trkpt lat="42.804" lon="0.13965">
        <ele>2413.923733692</ele>
        <time>2014-06-01T08:49:51Z</time>
      </trkpt>
      <trkpt lat="42.80399" lon="0.13963">
        <ele>2413.923733692</ele>
        <time>2014-06-01T08:49:56Z</time>
      </trkpt>
      <trkpt lat="42.80397" lon="0.1396">
        <ele>2413.923733692</ele>
        <time>2014-06-01T08:50:01Z</time>
      </trkpt>
      <trkpt lat="42.80394" lon="0.13956">
        <ele>2416.5870451507</ele>
        <time>2014-06-01T08:50:06Z</time>
      </trkpt>
      <trkpt lat="42.80393" lon="0.13955">
        <ele>2416.5870451507</ele>
        <time>2014-06-01T08:50:11Z</time>
      </trkpt>
      <trkpt lat="42.80389" lon="0.13949">
        <ele>2416.5870451507</ele>
        <time>2014-06-01T08:50:16Z</time>
      </trkpt>
      <trkpt lat="42.80388" lon="0.13947">
        <ele>2416.5870451507</ele>
        <time>2014-06-01T08:50:21Z</time>
      </trkpt>
      <trkpt lat="42.80386" lon="0.13941">
        <ele>2418.9687152306</ele>
        <time>2014-06-01T08:50:26Z</time>
      </trkpt>
      <trkpt lat="42.80385" lon="0.13937">
        <ele>2418.9687152306</ele>
        <time>2014-06-01T08:50:31Z</time>
      </trkpt>
      <trkpt lat="42.80383" lon="0.13932">
        <ele>2418.9687152306</ele>
        <time>2014-06-01T08:50:37Z</time>
      </trkpt>
      <trkpt lat="42.80381" lon="0.13928">
        <ele>2421.1199245332</ele>
        <time>2014-06-01T08:50:40Z</time>
      </trkpt>
      <trkpt lat="42.8038" lon="0.13923">
        <ele>2421.1199245332</ele>
        <time>2014-06-01T08:50:46Z</time>
      </trkpt>
      <trkpt lat="42.80379" lon="0.1392">
        <ele>2421.1199245332</ele>
        <time>2014-06-01T08:50:50Z</time>
      </trkpt>
      <trkpt lat="42.80379" lon="0.13919">
        <ele>2421.1199245332</ele>
        <time>2014-06-01T08:50:56Z</time>
      </trkpt>
      <trkpt lat="42.80376" lon="0.13913">
        <ele>2423.1031610821</ele>
        <time>2014-06-01T08:51:01Z</time>
      </trkpt>
      <trkpt lat="42.80374" lon="0.13906">
        <ele>2423.1031610821</ele>
        <time>2014-06-01T08:51:06Z</time>
      </trkpt>
      <trkpt lat="42.80374" lon="0.13904">
        <ele>2423.1031610821</ele>
        <time>2014-06-01T08:51:12Z</time>
      </trkpt>
      <trkpt lat="42.80374" lon="0.13901">
        <ele>2423.1031610821</ele>
        <time>2014-06-01T08:51:16Z</time>
      </trkpt>
      <trkpt lat="42.80373" lon="0.13897">
        <ele>2424.8903274066</ele>
        <time>2014-06-01T08:51:21Z</time>
      </trkpt>
      <trkpt lat="42.80371" lon="0.13891">
        <ele>2424.8903274066</ele>
        <time>2014-06-01T08:51:26Z</time>
      </trkpt>
      <trkpt lat="42.80368" lon="0.13889">
        <ele>2424.8903274066</ele>
        <time>2014-06-01T08:51:31Z</time>
      </trkpt>
      <trkpt lat="42.80367" lon="0.13885">
        <ele>2426.5424016336</ele>
        <time>2014-06-01T08:51:36Z</time>
      </trkpt>
      <trkpt lat="42.80365" lon="0.13883">
        <ele>2426.5424016336</ele>
        <time>2014-06-01T08:51:41Z</time>
      </trkpt>
      <trkpt lat="42.80365" lon="0.13878">
        <ele>2426.5424016336</ele>
        <time>2014-06-01T08:51:46Z</time>
      </trkpt>
      <trkpt lat="42.80364" lon="0.13875">
        <ele>2426.5424016336</ele>
        <time>2014-06-01T08:51:51Z</time>
      </trkpt>
      <trkpt lat="42.80364" lon="0.13871">
        <ele>2428.0874225938</ele>
        <time>2014-06-01T08:51:57Z</time>
      </trkpt>
      <trkpt lat="42.80363" lon="0.13868">
        <ele>2428.0874225938</ele>
        <time>2014-06-01T08:52:01Z</time>
      </trkpt>
      <trkpt lat="42.80362" lon="0.13865">
        <ele>2428.0874225938</ele>
        <time>2014-06-01T08:52:06Z</time>
      </trkpt>
      <trkpt lat="42.8036" lon="0.13861">
        <ele>2428.0874225938</ele>
        <time>2014-06-01T08:52:12Z</time>
      </trkpt>
      <trkpt lat="42.80359" lon="0.13858">
        <ele>2429.5372326125</ele>
        <time>2014-06-01T08:52:16Z</time>
      </trkpt>
      <trkpt lat="42.80358" lon="0.13852">
        <ele>2429.5372326125</ele>
        <time>2014-06-01T08:52:21Z</time>
      </trkpt>
      <trkpt lat="42.80357" lon="0.13849">
        <ele>2429.5372326125</ele>
        <time>2014-06-01T08:52:26Z</time>
      </trkpt>
      <trkpt lat="42.80354" lon="0.13847">
        <ele>2430.8309790398</ele>
        <time>2014-06-01T08:52:32Z</time>
      </trkpt>
      <trkpt lat="42.8035" lon="0.13842">
        <ele>2430.8309790398</ele>
        <time>2014-06-01T08:52:36Z</time>
      </trkpt>
      <trkpt lat="42.80349" lon="0.1384">
        <ele>2430.8309790398</ele>
        <time>2014-06-01T08:52:41Z</time>
      </trkpt>
      <trkpt lat="42.80348" lon="0.13838">
        <ele>2430.8309790398</ele>
        <time>2014-06-01T08:52:47Z</time>
      </trkpt>
      <trkpt lat="42.80345" lon="0.13831">
        <ele>2432.1576629498</ele>
        <time>2014-06-01T08:52:51Z</time>
      </trkpt>
      <trkpt lat="42.80343" lon="0.13826">
        <ele>2432.1576629498</ele>
        <time>2014-06-01T08:52:56Z</time>
      </trkpt>
      <trkpt lat="42.80341" lon="0.13824">
        <ele>2432.1576629498</ele>
        <time>2014-06-01T08:53:01Z</time>
      </trkpt>
      <trkpt lat="42.80339" lon="0.13819">
        <ele>2433.3896168642</ele>
        <time>2014-06-01T08:53:08Z</time>
      </trkpt>
      <trkpt lat="42.80337" lon="0.13817">
        <ele>2433.3896168642</ele>
        <time>2014-06-01T08:53:11Z</time>
      </trkpt>
      <trkpt lat="42.80336" lon="0.13812">
        <ele>2433.3896168642</ele>
        <time>2014-06-01T08:53:16Z</time>
      </trkpt>
      <trkpt lat="42.80334" lon="0.1381">
        <ele>2433.3896168642</ele>
        <time>2014-06-01T08:53:20Z</time>
      </trkpt>
      <trkpt lat="42.80332" lon="0.13806">
        <ele>2434.7257998596</ele>
        <time>2014-06-01T08:53:26Z</time>
      </trkpt>
      <trkpt lat="42.80329" lon="0.13802">
        <ele>2434.7257998596</ele>
        <time>2014-06-01T08:53:32Z</time>
      </trkpt>
      <trkpt lat="42.80327" lon="0.138">
        <ele>2434.7257998596</ele>
        <time>2014-06-01T08:53:36Z</time>
      </trkpt>
      <trkpt lat="42.80326" lon="0.13796">
        <ele>2436.0619651171</ele>
        <time>2014-06-01T08:53:41Z</time>
      </trkpt>
      <trkpt lat="42.80324" lon="0.13791">
        <ele>2436.0619651171</ele>
        <time>2014-06-01T08:53:46Z</time>
      </trkpt>
      <trkpt lat="42.80322" lon="0.13787">
        <ele>2436.0619651171</ele>
        <time>2014-06-01T08:53:51Z</time>
      </trkpt>
      <trkpt lat="42.80321" lon="0.13784">
        <ele>2437.3879103455</ele>
        <time>2014-06-01T08:53:56Z</time>
      </trkpt>
      <trkpt lat="42.8032" lon="0.13782">
        <ele>2437.3879103455</ele>
        <time>2014-06-01T08:54:01Z</time>
      </trkpt>
      <trkpt lat="42.80319" lon="0.13777">
        <ele>2437.3879103455</ele>
        <time>2014-06-01T08:54:06Z</time>
      </trkpt>
      <trkpt lat="42.80319" lon="0.13774">
        <ele>2437.3879103455</ele>
        <time>2014-06-01T08:54:11Z</time>
      </trkpt>
      <trkpt lat="42.80318" lon="0.13769">
        <ele>2438.8670580836</ele>
        <time>2014-06-01T08:54:16Z</time>
      </trkpt>
      <trkpt lat="42.80317" lon="0.13763">
        <ele>2438.8670580836</ele>
        <time>2014-06-01T08:54:21Z</time>
      </trkpt>
      <trkpt lat="42.80318" lon="0.13765">
        <ele>2438.8670580836</ele>
        <time>2014-06-01T08:54:27Z</time>
      </trkpt>
      <trkpt lat="42.80316" lon="0.13757">
        <ele>2440.4917803919</ele>
        <time>2014-06-01T08:54:46Z</time>
      </trkpt>
      <trkpt lat="42.80316" lon="0.13753">
        <ele>2440.4917803919</ele>
        <time>2014-06-01T08:54:51Z</time>
      </trkpt>
      <trkpt lat="42.80317" lon="0.13748">
        <ele>2440.4917803919</ele>
        <time>2014-06-01T08:54:56Z</time>
      </trkpt>
      <trkpt lat="42.80317" lon="0.13745">
        <ele>2440.4917803919</ele>
        <time>2014-06-01T08:55:01Z</time>
      </trkpt>
      <trkpt lat="42.80317" lon="0.13742">
        <ele>2441.9951038779</ele>
        <time>2014-06-01T08:55:06Z</time>
      </trkpt>
      <trkpt lat="42.80316" lon="0.13739">
        <ele>2441.9951038779</ele>
        <time>2014-06-01T08:55:11Z</time>
      </trkpt>
      <trkpt lat="42.80314" lon="0.13735">
        <ele>2441.9951038779</ele>
        <time>2014-06-01T08:55:16Z</time>
      </trkpt>
      <trkpt lat="42.80314" lon="0.1373">
        <ele>2443.4613644611</ele>
        <time>2014-06-01T08:55:21Z</time>
      </trkpt>
      <trkpt lat="42.80313" lon="0.13727">
        <ele>2443.4613644611</ele>
        <time>2014-06-01T08:55:26Z</time>
      </trkpt>
      <trkpt lat="42.80313" lon="0.1372">
        <ele>2443.4613644611</ele>
        <time>2014-06-01T08:55:31Z</time>
      </trkpt>
      <trkpt lat="42.80313" lon="0.13718">
        <ele>2443.4613644611</ele>
        <time>2014-06-01T08:55:37Z</time>
      </trkpt>
      <trkpt lat="42.80312" lon="0.13715">
        <ele>2444.954293103</ele>
        <time>2014-06-01T08:55:41Z</time>
      </trkpt>
      <trkpt lat="42.80311" lon="0.13711">
        <ele>2444.954293103</ele>
        <time>2014-06-01T08:55:46Z</time>
      </trkpt>
      <trkpt lat="42.8031" lon="0.13707">
        <ele>2444.954293103</ele>
        <time>2014-06-01T08:55:52Z</time>
      </trkpt>
      <trkpt lat="42.8031" lon="0.13705">
        <ele>2444.954293103</ele>
        <time>2014-06-01T08:55:56Z</time>
      </trkpt>
      <trkpt lat="42.8031" lon="0.13701">
        <ele>2446.5039377014</ele>
        <time>2014-06-01T08:56:01Z</time>
      </trkpt>
      <trkpt lat="42.80309" lon="0.13696">
        <ele>2446.5039377014</ele>
        <time>2014-06-01T08:56:06Z</time>
      </trkpt>
      <trkpt lat="42.80308" lon="0.13685">
        <ele>2448.0946406058</ele>
        <time>2014-06-01T08:56:17Z</time>
      </trkpt>
      <trkpt lat="42.80308" lon="0.13684">
        <ele>2448.0946406058</ele>
        <time>2014-06-01T08:56:21Z</time>
      </trkpt>
      <trkpt lat="42.80308" lon="0.13684">
        <ele>2448.0946406058</ele>
        <time>2014-06-01T08:56:26Z</time>
      </trkpt>
      <trkpt lat="42.80306" lon="0.13683">
        <ele>2448.0946406058</ele>
        <time>2014-06-01T08:56:36Z</time>
      </trkpt>
      <trkpt lat="42.80305" lon="0.13677">
        <ele>2448.0946406058</ele>
        <time>2014-06-01T08:56:41Z</time>
      </trkpt>
      <trkpt lat="42.80304" lon="0.13671">
        <ele>2449.8990176444</ele>
        <time>2014-06-01T08:56:47Z</time>
      </trkpt>
      <trkpt lat="42.80304" lon="0.13669">
        <ele>2449.8990176444</ele>
        <time>2014-06-01T08:56:51Z</time>
      </trkpt>
      <trkpt lat="42.80305" lon="0.13657">
        <ele>2451.5430871115</ele>
        <time>2014-06-01T08:56:56Z</time>
      </trkpt>
      <trkpt lat="42.80304" lon="0.13654">
        <ele>2451.5430871115</ele>
        <time>2014-06-01T08:57:01Z</time>
      </trkpt>
      <trkpt lat="42.80305" lon="0.13651">
        <ele>2451.5430871115</ele>
        <time>2014-06-01T08:57:05Z</time>
      </trkpt>
      <trkpt lat="42.80306" lon="0.1365">
        <ele>2451.5430871115</ele>
        <time>2014-06-01T08:57:12Z</time>
      </trkpt>
      <trkpt lat="42.80304" lon="0.13647">
        <ele>2451.5430871115</ele>
        <time>2014-06-01T08:57:46Z</time>
      </trkpt>
      <trkpt lat="42.80305" lon="0.13641">
        <ele>2453.4012408984</ele>
        <time>2014-06-01T08:57:51Z</time>
      </trkpt>
      <trkpt lat="42.80305" lon="0.13636">
        <ele>2453.4012408984</ele>
        <time>2014-06-01T08:57:56Z</time>
      </trkpt>
      <trkpt lat="42.80304" lon="0.13629">
        <ele>2453.4012408984</ele>
        <time>2014-06-01T08:58:01Z</time>
      </trkpt>
      <trkpt lat="42.80305" lon="0.13625">
        <ele>2455.0702857742</ele>
        <time>2014-06-01T08:58:07Z</time>
      </trkpt>
      <trkpt lat="42.80306" lon="0.13616">
        <ele>2455.0702857742</ele>
        <time>2014-06-01T08:58:11Z</time>
      </trkpt>
      <trkpt lat="42.80306" lon="0.1361">
        <ele>2456.5373535428</ele>
        <time>2014-06-01T08:58:16Z</time>
      </trkpt>
      <trkpt lat="42.80307" lon="0.13605">
        <ele>2456.5373535428</ele>
        <time>2014-06-01T08:58:21Z</time>
      </trkpt>
      <trkpt lat="42.80308" lon="0.13601">
        <ele>2456.5373535428</ele>
        <time>2014-06-01T08:58:26Z</time>
      </trkpt>
      <trkpt lat="42.8031" lon="0.13598">
        <ele>2457.906275977</ele>
        <time>2014-06-01T08:58:31Z</time>
      </trkpt>
      <trkpt lat="42.80312" lon="0.13593">
        <ele>2457.906275977</ele>
        <time>2014-06-01T08:58:36Z</time>
      </trkpt>
      <trkpt lat="42.80313" lon="0.13589">
        <ele>2457.906275977</ele>
        <time>2014-06-01T08:58:41Z</time>
      </trkpt>
      <trkpt lat="42.80315" lon="0.13586">
        <ele>2459.1004987902</ele>
        <time>2014-06-01T08:58:46Z</time>
      </trkpt>
      <trkpt lat="42.80317" lon="0.1358">
        <ele>2459.1004987902</ele>
        <time>2014-06-01T08:58:51Z</time>
      </trkpt>
      <trkpt lat="42.8032" lon="0.13576">
        <ele>2459.1004987902</ele>
        <time>2014-06-01T08:58:56Z</time>
      </trkpt>
      <trkpt lat="42.8032" lon="0.13575">
        <ele>2460.0927134677</ele>
        <time>2014-06-01T08:59:01Z</time>
      </trkpt>
      <trkpt lat="42.80321" lon="0.13573">
        <ele>2460.0927134677</ele>
        <time>2014-06-01T08:59:06Z</time>
      </trkpt>
      <trkpt lat="42.80323" lon="0.1357">
        <ele>2460.0927134677</ele>
        <time>2014-06-01T08:59:12Z</time>
      </trkpt>
      <trkpt lat="42.80327" lon="0.13565">
        <ele>2461.0021924789</ele>
        <time>2014-06-01T08:59:16Z</time>
      </trkpt>
      <trkpt lat="42.80329" lon="0.13563">
        <ele>2461.0021924789</ele>
        <time>2014-06-01T08:59:21Z</time>
      </trkpt>
      <trkpt lat="42.80331" lon="0.13561">
        <ele>2461.0021924789</ele>
        <time>2014-06-01T08:59:26Z</time>
      </trkpt>
      <trkpt lat="42.80334" lon="0.13558">
        <ele>2461.0021924789</ele>
        <time>2014-06-01T08:59:31Z</time>
      </trkpt>
      <trkpt lat="42.80337" lon="0.13555">
        <ele>2461.8531066576</ele>
        <time>2014-06-01T08:59:37Z</time>
      </trkpt>
      <trkpt lat="42.80339" lon="0.13551">
        <ele>2461.8531066576</ele>
        <time>2014-06-01T08:59:41Z</time>
      </trkpt>
      <trkpt lat="42.80341" lon="0.13548">
        <ele>2461.8531066576</ele>
        <time>2014-06-01T08:59:45Z</time>
      </trkpt>
      <trkpt lat="42.80344" lon="0.13543">
        <ele>2462.667907429</ele>
        <time>2014-06-01T08:59:52Z</time>
      </trkpt>
      <trkpt lat="42.80346" lon="0.13541">
        <ele>2462.667907429</ele>
        <time>2014-06-01T08:59:56Z</time>
      </trkpt>
      <trkpt lat="42.80348" lon="0.13539">
        <ele>2462.667907429</ele>
        <time>2014-06-01T09:00:01Z</time>
      </trkpt>
      <trkpt lat="42.8035" lon="0.13537">
        <ele>2462.667907429</ele>
        <time>2014-06-01T09:00:06Z</time>
      </trkpt>
      <trkpt lat="42.80353" lon="0.13534">
        <ele>2463.5538541261</ele>
        <time>2014-06-01T09:00:11Z</time>
      </trkpt>
      <trkpt lat="42.80356" lon="0.13532">
        <ele>2463.5538541261</ele>
        <time>2014-06-01T09:00:16Z</time>
      </trkpt>
      <trkpt lat="42.80359" lon="0.13528">
        <ele>2463.5538541261</ele>
        <time>2014-06-01T09:00:21Z</time>
      </trkpt>
      <trkpt lat="42.80361" lon="0.13526">
        <ele>2464.5523697197</ele>
        <time>2014-06-01T09:00:26Z</time>
      </trkpt>
      <trkpt lat="42.80362" lon="0.13523">
        <ele>2464.5523697197</ele>
        <time>2014-06-01T09:00:31Z</time>
      </trkpt>
      <trkpt lat="42.80365" lon="0.13522">
        <ele>2464.5523697197</ele>
        <time>2014-06-01T09:00:36Z</time>
      </trkpt>
      <trkpt lat="42.80367" lon="0.1352">
        <ele>2464.5523697197</ele>
        <time>2014-06-01T09:00:41Z</time>
      </trkpt>
      <trkpt lat="42.80369" lon="0.13519">
        <ele>2465.7446375525</ele>
        <time>2014-06-01T09:00:46Z</time>
      </trkpt>
      <trkpt lat="42.80372" lon="0.13518">
        <ele>2465.7446375525</ele>
        <time>2014-06-01T09:00:51Z</time>
      </trkpt>
      <trkpt lat="42.80374" lon="0.13518">
        <ele>2465.7446375525</ele>
        <time>2014-06-01T09:00:56Z</time>
      </trkpt>
      <trkpt lat="42.80376" lon="0.13517">
        <ele>2465.7446375525</ele>
        <time>2014-06-01T09:01:01Z</time>
      </trkpt>
      <trkpt lat="42.80378" lon="0.13517">
        <ele>2467.1475751196</ele>
        <time>2014-06-01T09:01:06Z</time>
      </trkpt>
      <trkpt lat="42.80381" lon="0.13516">
        <ele>2467.1475751196</ele>
        <time>2014-06-01T09:01:11Z</time>
      </trkpt>
      <trkpt lat="42.80383" lon="0.13515">
        <ele>2467.1475751196</ele>
        <time>2014-06-01T09:01:16Z</time>
      </trkpt>
      <trkpt lat="42.80385" lon="0.13514">
        <ele>2467.1475751196</ele>
        <time>2014-06-01T09:01:21Z</time>
      </trkpt>
      <trkpt lat="42.80387" lon="0.13512">
        <ele>2468.7185093271</ele>
        <time>2014-06-01T09:01:26Z</time>
      </trkpt>
      <trkpt lat="42.80389" lon="0.13511">
        <ele>2468.7185093271</ele>
        <time>2014-06-01T09:01:31Z</time>
      </trkpt>
      <trkpt lat="42.80392" lon="0.1351">
        <ele>2468.7185093271</ele>
        <time>2014-06-01T09:01:36Z</time>
      </trkpt>
      <trkpt lat="42.80395" lon="0.13509">
        <ele>2468.7185093271</ele>
        <time>2014-06-01T09:01:41Z</time>
      </trkpt>
      <trkpt lat="42.80397" lon="0.13509">
        <ele>2470.4461439108</ele>
        <time>2014-06-01T09:01:46Z</time>
      </trkpt>
      <trkpt lat="42.80399" lon="0.13508">
        <ele>2470.4461439108</ele>
        <time>2014-06-01T09:01:52Z</time>
      </trkpt>
      <trkpt lat="42.80401" lon="0.13507">
        <ele>2470.4461439108</ele>
        <time>2014-06-01T09:01:56Z</time>
      </trkpt>
      <trkpt lat="42.80401" lon="0.13507">
        <ele>2470.4461439108</ele>
        <time>2014-06-01T09:02:01Z</time>
      </trkpt>
      <trkpt lat="42.80406" lon="0.13506">
        <ele>2472.3627024348</ele>
        <time>2014-06-01T09:02:17Z</time>
      </trkpt>
      <trkpt lat="42.80412" lon="0.13504">
        <ele>2472.3627024348</ele>
        <time>2014-06-01T09:02:26Z</time>
      </trkpt>
      <trkpt lat="42.80414" lon="0.13504">
        <ele>2472.3627024348</ele>
        <time>2014-06-01T09:02:31Z</time>
      </trkpt>
      <trkpt lat="42.80414" lon="0.13504">
        <ele>2472.3627024348</ele>
        <time>2014-06-01T09:02:36Z</time>
      </trkpt>
      <trkpt lat="42.80418" lon="0.13504">
        <ele>2474.4253584226</ele>
        <time>2014-06-01T09:02:41Z</time>
      </trkpt>
      <trkpt lat="42.80419" lon="0.13504">
        <ele>2474.4253584226</ele>
        <time>2014-06-01T09:02:45Z</time>
      </trkpt>
      <trkpt lat="42.8042" lon="0.13504">
        <ele>2474.4253584226</ele>
        <time>2014-06-01T09:02:51Z</time>
      </trkpt>
      <trkpt lat="42.80424" lon="0.13505">
        <ele>2474.4253584226</ele>
        <time>2014-06-01T09:02:56Z</time>
      </trkpt>
      <trkpt lat="42.80424" lon="0.13505">
        <ele>2474.4253584226</ele>
        <time>2014-06-01T09:03:01Z</time>
      </trkpt>
      <trkpt lat="42.80427" lon="0.13503">
        <ele>2476.6371653058</ele>
        <time>2014-06-01T09:03:16Z</time>
      </trkpt>
      <trkpt lat="42.80429" lon="0.13502">
        <ele>2476.6371653058</ele>
        <time>2014-06-01T09:03:21Z</time>
      </trkpt>
      <trkpt lat="42.80431" lon="0.13501">
        <ele>2476.6371653058</ele>
        <time>2014-06-01T09:03:26Z</time>
      </trkpt>
      <trkpt lat="42.80432" lon="0.135">
        <ele>2476.6371653058</ele>
        <time>2014-06-01T09:03:31Z</time>
      </trkpt>
      <trkpt lat="42.80436" lon="0.13499">
        <ele>2478.7986967523</ele>
        <time>2014-06-01T09:03:37Z</time>
      </trkpt>
      <trkpt lat="42.80435" lon="0.13499">
        <ele>2478.7986967523</ele>
        <time>2014-06-01T09:03:41Z</time>
      </trkpt>
      <trkpt lat="42.80437" lon="0.13499">
        <ele>2478.7986967523</ele>
        <time>2014-06-01T09:03:57Z</time>
      </trkpt>
      <trkpt lat="42.80439" lon="0.13499">
        <ele>2478.7986967523</ele>
        <time>2014-06-01T09:04:01Z</time>
      </trkpt>
      <trkpt lat="42.80441" lon="0.13499">
        <ele>2478.7986967523</ele>
        <time>2014-06-01T09:04:06Z</time>
      </trkpt>
      <trkpt lat="42.80444" lon="0.13498">
        <ele>2481.1575788264</ele>
        <time>2014-06-01T09:04:11Z</time>
      </trkpt>
      <trkpt lat="42.80444" lon="0.13498">
        <ele>2481.1575788264</ele>
        <time>2014-06-01T09:04:19Z</time>
      </trkpt>
      <trkpt lat="42.80446" lon="0.13499">
        <ele>2481.1575788264</ele>
        <time>2014-06-01T09:04:21Z</time>
      </trkpt>
      <trkpt lat="42.80448" lon="0.13499">
        <ele>2481.1575788264</ele>
        <time>2014-06-01T09:04:26Z</time>
      </trkpt>
      <trkpt lat="42.80448" lon="0.13499">
        <ele>2481.1575788264</ele>
        <time>2014-06-01T09:04:31Z</time>
      </trkpt>
      <trkpt lat="42.80451" lon="0.13498">
        <ele>2481.1575788264</ele>
        <time>2014-06-01T09:04:36Z</time>
      </trkpt>
      <trkpt lat="42.80453" lon="0.13497">
        <ele>2483.4814744769</ele>
        <time>2014-06-01T09:04:41Z</time>
      </trkpt>
      <trkpt lat="42.80454" lon="0.13496">
        <ele>2483.4814744769</ele>
        <time>2014-06-01T09:04:46Z</time>
      </trkpt>
      <trkpt lat="42.80457" lon="0.13495">
        <ele>2483.4814744769</ele>
        <time>2014-06-01T09:04:51Z</time>
      </trkpt>
      <trkpt lat="42.80459" lon="0.13495">
        <ele>2483.4814744769</ele>
        <time>2014-06-01T09:04:57Z</time>
      </trkpt>
      <trkpt lat="42.8046" lon="0.13494">
        <ele>2483.4814744769</ele>
        <time>2014-06-01T09:05:01Z</time>
      </trkpt>
      <trkpt lat="42.80463" lon="0.13494">
        <ele>2486.0019036018</ele>
        <time>2014-06-01T09:05:06Z</time>
      </trkpt>
      <trkpt lat="42.80465" lon="0.13494">
        <ele>2486.0019036018</ele>
        <time>2014-06-01T09:05:11Z</time>
      </trkpt>
      <trkpt lat="42.80468" lon="0.13493">
        <ele>2486.0019036018</ele>
        <time>2014-06-01T09:05:16Z</time>
      </trkpt>
      <trkpt lat="42.80469" lon="0.13493">
        <ele>2486.0019036018</ele>
        <time>2014-06-01T09:05:21Z</time>
      </trkpt>
      <trkpt lat="42.80469" lon="0.13493">
        <ele>2486.0019036018</ele>
        <time>2014-06-01T09:05:26Z</time>
      </trkpt>
      <trkpt lat="42.8047" lon="0.13493">
        <ele>2486.0019036018</ele>
        <time>2014-06-01T09:05:31Z</time>
      </trkpt>
      <trkpt lat="42.80471" lon="0.13494">
        <ele>2486.0019036018</ele>
        <time>2014-06-01T09:05:36Z</time>
      </trkpt>
      <trkpt lat="42.80471" lon="0.13491">
        <ele>2488.6157388196</ele>
        <time>2014-06-01T09:05:46Z</time>
      </trkpt>
      <trkpt lat="42.8047" lon="0.1349">
        <ele>2488.6157388196</ele>
        <time>2014-06-01T09:05:51Z</time>
      </trkpt>
      <trkpt lat="42.8047" lon="0.13489">
        <ele>2488.6157388196</ele>
        <time>2014-06-01T09:05:57Z</time>
      </trkpt>
      <trkpt lat="42.80469" lon="0.13484">
        <ele>2488.6157388196</ele>
        <time>2014-06-01T09:06:01Z</time>
      </trkpt>
      <trkpt lat="42.80468" lon="0.13481">
        <ele>2488.6157388196</ele>
        <time>2014-06-01T09:06:06Z</time>
      </trkpt>
      <trkpt lat="42.80467" lon="0.1348">
        <ele>2491.1838988587</ele>
        <time>2014-06-01T09:06:11Z</time>
      </trkpt>
      <trkpt lat="42.80465" lon="0.13478">
        <ele>2491.1838988587</ele>
        <time>2014-06-01T09:06:16Z</time>
      </trkpt>
      <trkpt lat="42.80462" lon="0.13475">
        <ele>2491.1838988587</ele>
        <time>2014-06-01T09:06:37Z</time>
      </trkpt>
      <trkpt lat="42.80462" lon="0.13474">
        <ele>2491.1838988587</ele>
        <time>2014-06-01T09:06:41Z</time>
      </trkpt>
      <trkpt lat="42.80462" lon="0.13473">
        <ele>2491.1838988587</ele>
        <time>2014-06-01T09:06:46Z</time>
      </trkpt>
      <trkpt lat="42.80459" lon="0.13468">
        <ele>2493.8802566035</ele>
        <time>2014-06-01T09:06:51Z</time>
      </trkpt>
      <trkpt lat="42.80456" lon="0.13466">
        <ele>2493.8802566035</ele>
        <time>2014-06-01T09:06:56Z</time>
      </trkpt>
      <trkpt lat="42.80455" lon="0.13464">
        <ele>2493.8802566035</ele>
        <time>2014-06-01T09:07:03Z</time>
      </trkpt>
      <trkpt lat="42.80452" lon="0.13462">
        <ele>2493.8802566035</ele>
        <time>2014-06-01T09:07:05Z</time>
      </trkpt>
      <trkpt lat="42.8045" lon="0.1346">
        <ele>2496.6061376547</ele>
        <time>2014-06-01T09:07:11Z</time>
      </trkpt>
      <trkpt lat="42.80448" lon="0.13459">
        <ele>2496.6061376547</ele>
        <time>2014-06-01T09:07:17Z</time>
      </trkpt>
      <trkpt lat="42.80447" lon="0.13459">
        <ele>2496.6061376547</ele>
        <time>2014-06-01T09:07:21Z</time>
      </trkpt>
      <trkpt lat="42.80447" lon="0.13458">
        <ele>2496.6061376547</ele>
        <time>2014-06-01T09:07:26Z</time>
      </trkpt>
      <trkpt lat="42.80447" lon="0.13458">
        <ele>2496.6061376547</ele>
        <time>2014-06-01T09:07:33Z</time>
      </trkpt>
      <trkpt lat="42.80452" lon="0.13457">
        <ele>2499.486194993</ele>
        <time>2014-06-01T09:07:46Z</time>
      </trkpt>
      <trkpt lat="42.80453" lon="0.13457">
        <ele>2499.486194993</ele>
        <time>2014-06-01T09:07:51Z</time>
      </trkpt>
      <trkpt lat="42.80456" lon="0.13457">
        <ele>2499.486194993</ele>
        <time>2014-06-01T09:07:57Z</time>
      </trkpt>
      <trkpt lat="42.80458" lon="0.13456">
        <ele>2499.486194993</ele>
        <time>2014-06-01T09:08:01Z</time>
      </trkpt>
      <trkpt lat="42.8046" lon="0.13455">
        <ele>2499.486194993</ele>
        <time>2014-06-01T09:08:06Z</time>
      </trkpt>
      <trkpt lat="42.80462" lon="0.13456">
        <ele>2502.5346186478</ele>
        <time>2014-06-01T09:08:10Z</time>
      </trkpt>
      <trkpt lat="42.80463" lon="0.13456">
        <ele>2502.5346186478</ele>
        <time>2014-06-01T09:08:16Z</time>
      </trkpt>
      <trkpt lat="42.80466" lon="0.13457">
        <ele>2502.5346186478</ele>
        <time>2014-06-01T09:08:22Z</time>
      </trkpt>
      <trkpt lat="42.80468" lon="0.13457">
        <ele>2502.5346186478</ele>
        <time>2014-06-01T09:08:26Z</time>
      </trkpt>
      <trkpt lat="42.8047" lon="0.13457">
        <ele>2502.5346186478</ele>
        <time>2014-06-01T09:08:31Z</time>
      </trkpt>
      <trkpt lat="42.80473" lon="0.13458">
        <ele>2505.8649762937</ele>
        <time>2014-06-01T09:08:37Z</time>
      </trkpt>
      <trkpt lat="42.80474" lon="0.13458">
        <ele>2505.8649762937</ele>
        <time>2014-06-01T09:08:41Z</time>
      </trkpt>
      <trkpt lat="42.80477" lon="0.13458">
        <ele>2505.8649762937</ele>
        <time>2014-06-01T09:08:46Z</time>
      </trkpt>
      <trkpt lat="42.8048" lon="0.13458">
        <ele>2505.8649762937</ele>
        <time>2014-06-01T09:08:51Z</time>
      </trkpt>
      <trkpt lat="42.80479" lon="0.13458">
        <ele>2505.8649762937</ele>
        <time>2014-06-01T09:08:56Z</time>
      </trkpt>
      <trkpt lat="42.80483" lon="0.13457">
        <ele>2509.0196928865</ele>
        <time>2014-06-01T09:09:06Z</time>
      </trkpt>
      <trkpt lat="42.80486" lon="0.13456">
        <ele>2509.0196928865</ele>
        <time>2014-06-01T09:09:13Z</time>
      </trkpt>
      <trkpt lat="42.80487" lon="0.13453">
        <ele>2509.0196928865</ele>
        <time>2014-06-01T09:09:16Z</time>
      </trkpt>
      <trkpt lat="42.80483" lon="0.13449">
        <ele>2511.8347336611</ele>
        <time>2014-06-01T09:09:26Z</time>
      </trkpt>
      <trkpt lat="42.80482" lon="0.13447">
        <ele>2511.8347336611</ele>
        <time>2014-06-01T09:09:31Z</time>
      </trkpt>
      <trkpt lat="42.80479" lon="0.13444">
        <ele>2511.8347336611</ele>
        <time>2014-06-01T09:09:36Z</time>
      </trkpt>
      <trkpt lat="42.80478" lon="0.13446">
        <ele>2511.8347336611</ele>
        <time>2014-06-01T09:09:41Z</time>
      </trkpt>
      <trkpt lat="42.80477" lon="0.13444">
        <ele>2511.8347336611</ele>
        <time>2014-06-01T09:09:46Z</time>
      </trkpt>
      <trkpt lat="42.80475" lon="0.13443">
        <ele>2514.7643767167</ele>
        <time>2014-06-01T09:09:51Z</time>
      </trkpt>
      <trkpt lat="42.80473" lon="0.1344">
        <ele>2514.7643767167</ele>
        <time>2014-06-01T09:09:56Z</time>
      </trkpt>
      <trkpt lat="42.8047" lon="0.13439">
        <ele>2514.7643767167</ele>
        <time>2014-06-01T09:10:01Z</time>
      </trkpt>
      <trkpt lat="42.80468" lon="0.13438">
        <ele>2514.7643767167</ele>
        <time>2014-06-01T09:10:06Z</time>
      </trkpt>
      <trkpt lat="42.80467" lon="0.13437">
        <ele>2514.7643767167</ele>
        <time>2014-06-01T09:10:11Z</time>
      </trkpt>
      <trkpt lat="42.80464" lon="0.13435">
        <ele>2517.9122138591</ele>
        <time>2014-06-01T09:10:16Z</time>
      </trkpt>
      <trkpt lat="42.80464" lon="0.13435">
        <ele>2517.9122138591</ele>
        <time>2014-06-01T09:10:21Z</time>
      </trkpt>
      <trkpt lat="42.80461" lon="0.13434">
        <ele>2517.9122138591</ele>
        <time>2014-06-01T09:10:26Z</time>
      </trkpt>
      <trkpt lat="42.80459" lon="0.13432">
        <ele>2517.9122138591</ele>
        <time>2014-06-01T09:10:31Z</time>
      </trkpt>
      <trkpt lat="42.80458" lon="0.1343">
        <ele>2517.9122138591</ele>
        <time>2014-06-01T09:10:36Z</time>
      </trkpt>
      <trkpt lat="42.80456" lon="0.13429">
        <ele>2521.099861484</ele>
        <time>2014-06-01T09:10:42Z</time>
      </trkpt>
      <trkpt lat="42.80455" lon="0.13424">
        <ele>2521.099861484</ele>
        <time>2014-06-01T09:11:06Z</time>
      </trkpt>
      <trkpt lat="42.80452" lon="0.13425">
        <ele>2521.099861484</ele>
        <time>2014-06-01T09:11:11Z</time>
      </trkpt>
      <trkpt lat="42.80452" lon="0.13425">
        <ele>2521.099861484</ele>
        <time>2014-06-01T09:11:16Z</time>
      </trkpt>
      <trkpt lat="42.80449" lon="0.13422">
        <ele>2524.5366820235</ele>
        <time>2014-06-01T09:12:01Z</time>
      </trkpt>
      <trkpt lat="42.80452" lon="0.13419">
        <ele>2524.5366820235</ele>
        <time>2014-06-01T09:12:06Z</time>
      </trkpt>
      <trkpt lat="42.80452" lon="0.13418">
        <ele>2524.5366820235</ele>
        <time>2014-06-01T09:12:10Z</time>
      </trkpt>
      <trkpt lat="42.80454" lon="0.13419">
        <ele>2524.5366820235</ele>
        <time>2014-06-01T09:12:35Z</time>
      </trkpt>
      <trkpt lat="42.80455" lon="0.1342">
        <ele>2524.5366820235</ele>
        <time>2014-06-01T09:12:41Z</time>
      </trkpt>
      <trkpt lat="42.80453" lon="0.13417">
        <ele>2527.9836974737</ele>
        <time>2014-06-01T09:12:48Z</time>
      </trkpt>
      <trkpt lat="42.80453" lon="0.13417">
        <ele>2527.9836974737</ele>
        <time>2014-06-01T09:12:51Z</time>
      </trkpt>
      <trkpt lat="42.80451" lon="0.13415">
        <ele>2527.9836974737</ele>
        <time>2014-06-01T09:12:56Z</time>
      </trkpt>
      <trkpt lat="42.80451" lon="0.13414">
        <ele>2527.9836974737</ele>
        <time>2014-06-01T09:13:01Z</time>
      </trkpt>
      <trkpt lat="42.8045" lon="0.13414">
        <ele>2527.9836974737</ele>
        <time>2014-06-01T09:13:17Z</time>
      </trkpt>
      <trkpt lat="42.80448" lon="0.13413">
        <ele>2527.9836974737</ele>
        <time>2014-06-01T09:13:31Z</time>
      </trkpt>
      <trkpt lat="42.80447" lon="0.13413">
        <ele>2527.9836974737</ele>
        <time>2014-06-01T09:13:37Z</time>
      </trkpt>
      <trkpt lat="42.80447" lon="0.13415">
        <ele>2527.9836974737</ele>
        <time>2014-06-01T09:13:57Z</time>
      </trkpt>
      <trkpt lat="42.80447" lon="0.13415">
        <ele>2527.9836974737</ele>
        <time>2014-06-01T09:14:02Z</time>
      </trkpt>
      <trkpt lat="42.80448" lon="0.13413">
        <ele>2531.4068800495</ele>
        <time>2014-06-01T09:14:06Z</time>
      </trkpt>
      <trkpt lat="42.80449" lon="0.13411">
        <ele>2531.4068800495</ele>
        <time>2014-06-01T09:14:11Z</time>
      </trkpt>
      <trkpt lat="42.8045" lon="0.1341">
        <ele>2531.4068800495</ele>
        <time>2014-06-01T09:14:17Z</time>
      </trkpt>
      <trkpt lat="42.8045" lon="0.13405">
        <ele>2531.4068800495</ele>
        <time>2014-06-01T09:15:02Z</time>
      </trkpt>
      <trkpt lat="42.8045" lon="0.13405">
        <ele>2531.4068800495</ele>
        <time>2014-06-01T09:15:06Z</time>
      </trkpt>
      <trkpt lat="42.80448" lon="0.13404">
        <ele>2531.4068800495</ele>
        <time>2014-06-01T09:15:10Z</time>
      </trkpt>
      <trkpt lat="42.80447" lon="0.13403">
        <ele>2535.1207219116</ele>
        <time>2014-06-01T09:15:16Z</time>
      </trkpt>
      <trkpt lat="42.80444" lon="0.13401">
        <ele>2535.1207219116</ele>
        <time>2014-06-01T09:15:42Z</time>
      </trkpt>
      <trkpt lat="42.80445" lon="0.134">
        <ele>2535.1207219116</ele>
        <time>2014-06-01T09:15:46Z</time>
      </trkpt>
      <trkpt lat="42.80448" lon="0.13397">
        <ele>2535.1207219116</ele>
        <time>2014-06-01T09:15:51Z</time>
      </trkpt>
      <trkpt lat="42.8045" lon="0.13394">
        <ele>2538.4071123594</ele>
        <time>2014-06-01T09:15:56Z</time>
      </trkpt>
      <trkpt lat="42.80453" lon="0.13393">
        <ele>2538.4071123594</ele>
        <time>2014-06-01T09:16:02Z</time>
      </trkpt>
      <trkpt lat="42.80454" lon="0.13393">
        <ele>2538.4071123594</ele>
        <time>2014-06-01T09:16:07Z</time>
      </trkpt>
      <trkpt lat="42.80456" lon="0.13392">
        <ele>2538.4071123594</ele>
        <time>2014-06-01T09:16:10Z</time>
      </trkpt>
      <trkpt lat="42.80457" lon="0.13392">
        <ele>2538.4071123594</ele>
        <time>2014-06-01T09:16:16Z</time>
      </trkpt>
      <trkpt lat="42.8046" lon="0.13393">
        <ele>2542.0719255955</ele>
        <time>2014-06-01T09:17:07Z</time>
      </trkpt>
      <trkpt lat="42.80461" lon="0.13393">
        <ele>2542.0719255955</ele>
        <time>2014-06-01T09:18:01Z</time>
      </trkpt>
      <trkpt lat="42.80459" lon="0.13391">
        <ele>2542.0719255955</ele>
        <time>2014-06-01T09:18:06Z</time>
      </trkpt>
      <trkpt lat="42.80458" lon="0.1339">
        <ele>2542.0719255955</ele>
        <time>2014-06-01T09:18:11Z</time>
      </trkpt>
      <trkpt lat="42.80457" lon="0.13389">
        <ele>2542.0719255955</ele>
        <time>2014-06-01T09:18:16Z</time>
      </trkpt>
      <trkpt lat="42.80455" lon="0.13387">
        <ele>2542.0719255955</ele>
        <time>2014-06-01T09:18:22Z</time>
      </trkpt>
      <trkpt lat="42.80454" lon="0.13386">
        <ele>2546.2844369841</ele>
        <time>2014-06-01T09:18:26Z</time>
      </trkpt>
      <trkpt lat="42.80453" lon="0.13386">
        <ele>2546.2844369841</ele>
        <time>2014-06-01T09:19:16Z</time>
      </trkpt>
      <trkpt lat="42.80452" lon="0.13387">
        <ele>2546.2844369841</ele>
        <time>2014-06-01T09:19:21Z</time>
      </trkpt>
      <trkpt lat="42.80451" lon="0.13386">
        <ele>2546.2844369841</ele>
        <time>2014-06-01T09:19:26Z</time>
      </trkpt>
      <trkpt lat="42.80451" lon="0.13386">
        <ele>2546.2844369841</ele>
        <time>2014-06-01T09:19:31Z</time>
      </trkpt>
      <trkpt lat="42.80452" lon="0.13382">
        <ele>2546.2844369841</ele>
        <time>2014-06-01T09:20:02Z</time>
      </trkpt>
      <trkpt lat="42.80452" lon="0.13382">
        <ele>2546.2844369841</ele>
        <time>2014-06-01T09:20:06Z</time>
      </trkpt>
      <trkpt lat="42.80454" lon="0.1338">
        <ele>2550.2056965456</ele>
        <time>2014-06-01T09:20:11Z</time>
      </trkpt>
      <trkpt lat="42.80455" lon="0.13379">
        <ele>2550.2056965456</ele>
        <time>2014-06-01T09:20:16Z</time>
      </trkpt>
      <trkpt lat="42.80456" lon="0.13379">
        <ele>2550.2056965456</ele>
        <time>2014-06-01T09:20:21Z</time>
      </trkpt>
      <trkpt lat="42.80456" lon="0.13379">
        <ele>2550.2056965456</ele>
        <time>2014-06-01T09:20:27Z</time>
      </trkpt>
      <trkpt lat="42.80459" lon="0.13379">
        <ele>2550.2056965456</ele>
        <time>2014-06-01T09:20:36Z</time>
      </trkpt>
      <trkpt lat="42.80459" lon="0.13379">
        <ele>2550.2056965456</ele>
        <time>2014-06-01T09:20:42Z</time>
      </trkpt>
      <trkpt lat="42.80456" lon="0.13368">
        <ele>2554.1689759472</ele>
        <time>2014-06-01T09:22:36Z</time>
      </trkpt>
      <trkpt lat="42.80453" lon="0.13365">
        <ele>2554.1689759472</ele>
        <time>2014-06-01T09:22:41Z</time>
      </trkpt>
      <trkpt lat="42.80451" lon="0.13366">
        <ele>2554.1689759472</ele>
        <time>2014-06-01T09:22:46Z</time>
      </trkpt>
      <trkpt lat="42.8045" lon="0.13365">
        <ele>2554.1689759472</ele>
        <time>2014-06-01T09:22:51Z</time>
      </trkpt>
      <trkpt lat="42.80451" lon="0.13363">
        <ele>2554.1689759472</ele>
        <time>2014-06-01T09:23:21Z</time>
      </trkpt>
      <trkpt lat="42.80452" lon="0.13363">
        <ele>2554.1689759472</ele>
        <time>2014-06-01T09:23:26Z</time>
      </trkpt>
      <trkpt lat="42.80453" lon="0.13362">
        <ele>2558.4110185532</ele>
        <time>2014-06-01T09:23:31Z</time>
      </trkpt>
      <trkpt lat="42.80455" lon="0.13361">
        <ele>2558.4110185532</ele>
        <time>2014-06-01T09:23:36Z</time>
      </trkpt>
      <trkpt lat="42.80457" lon="0.13361">
        <ele>2558.4110185532</ele>
        <time>2014-06-01T09:23:42Z</time>
      </trkpt>
      <trkpt lat="42.80459" lon="0.1336">
        <ele>2558.4110185532</ele>
        <time>2014-06-01T09:24:47Z</time>
      </trkpt>
      <trkpt lat="42.80461" lon="0.13358">
        <ele>2558.4110185532</ele>
        <time>2014-06-01T09:24:51Z</time>
      </trkpt>
      <trkpt lat="42.80462" lon="0.13355">
        <ele>2562.6317285789</ele>
        <time>2014-06-01T09:24:56Z</time>
      </trkpt>
      <trkpt lat="42.80461" lon="0.13346">
        <ele>2562.6317285789</ele>
        <time>2014-06-01T09:25:26Z</time>
      </trkpt>
      <trkpt lat="42.80461" lon="0.13345">
        <ele>2562.6317285789</ele>
        <time>2014-06-01T09:25:31Z</time>
      </trkpt>
      <trkpt lat="42.80458" lon="0.13338">
        <ele>2566.4667879788</ele>
        <time>2014-06-01T09:25:38Z</time>
      </trkpt>
      <trkpt lat="42.80456" lon="0.13334">
        <ele>2566.4667879788</ele>
        <time>2014-06-01T09:25:47Z</time>
      </trkpt>
      <trkpt lat="42.80453" lon="0.13332">
        <ele>2566.4667879788</ele>
        <time>2014-06-01T09:25:52Z</time>
      </trkpt>
      <trkpt lat="42.80451" lon="0.13331">
        <ele>2566.4667879788</ele>
        <time>2014-06-01T09:25:56Z</time>
      </trkpt>
      <trkpt lat="42.80449" lon="0.13329">
        <ele>2570.358068121</ele>
        <time>2014-06-01T09:26:01Z</time>
      </trkpt>
      <trkpt lat="42.80448" lon="0.13327">
        <ele>2570.358068121</ele>
        <time>2014-06-01T09:26:06Z</time>
      </trkpt>
      <trkpt lat="42.80446" lon="0.13325">
        <ele>2570.358068121</ele>
        <time>2014-06-01T09:26:12Z</time>
      </trkpt>
      <trkpt lat="42.80445" lon="0.13324">
        <ele>2570.358068121</ele>
        <time>2014-06-01T09:26:15Z</time>
      </trkpt>
      <trkpt lat="42.80445" lon="0.13324">
        <ele>2570.358068121</ele>
        <time>2014-06-01T09:26:21Z</time>
      </trkpt>
      <trkpt lat="42.8044" lon="0.13327">
        <ele>2574.6140942228</ele>
        <time>2014-06-01T09:26:51Z</time>
      </trkpt>
      <trkpt lat="42.80438" lon="0.13323">
        <ele>2574.6140942228</ele>
        <time>2014-06-01T09:26:56Z</time>
      </trkpt>
      <trkpt lat="42.80436" lon="0.1332">
        <ele>2574.6140942228</ele>
        <time>2014-06-01T09:27:02Z</time>
      </trkpt>
      <trkpt lat="42.80435" lon="0.1332">
        <ele>2574.6140942228</ele>
        <time>2014-06-01T09:27:06Z</time>
      </trkpt>
      <trkpt lat="42.80432" lon="0.13318">
        <ele>2578.6984226248</ele>
        <time>2014-06-01T09:27:11Z</time>
      </trkpt>
      <trkpt lat="42.8043" lon="0.13317">
        <ele>2578.6984226248</ele>
        <time>2014-06-01T09:27:16Z</time>
      </trkpt>
      <trkpt lat="42.80428" lon="0.13315">
        <ele>2578.6984226248</ele>
        <time>2014-06-01T09:27:22Z</time>
      </trkpt>
      <trkpt lat="42.80426" lon="0.13314">
        <ele>2578.6984226248</ele>
        <time>2014-06-01T09:27:26Z</time>
      </trkpt>
      <trkpt lat="42.80424" lon="0.1331">
        <ele>2582.7775641097</ele>
        <time>2014-06-01T09:27:32Z</time>
      </trkpt>
      <trkpt lat="42.80423" lon="0.13308">
        <ele>2582.7775641097</ele>
        <time>2014-06-01T09:27:36Z</time>
      </trkpt>
      <trkpt lat="42.80421" lon="0.13305">
        <ele>2582.7775641097</ele>
        <time>2014-06-01T09:27:41Z</time>
      </trkpt>
      <trkpt lat="42.80421" lon="0.13305">
        <ele>2582.7775641097</ele>
        <time>2014-06-01T09:27:46Z</time>
      </trkpt>
      <trkpt lat="42.80417" lon="0.133">
        <ele>2586.8330356234</ele>
        <time>2014-06-01T09:28:01Z</time>
      </trkpt>
      <trkpt lat="42.80417" lon="0.13299">
        <ele>2586.8330356234</ele>
        <time>2014-06-01T09:28:06Z</time>
      </trkpt>
      <trkpt lat="42.80417" lon="0.133">
        <ele>2586.8330356234</ele>
        <time>2014-06-01T09:28:12Z</time>
      </trkpt>
      <trkpt lat="42.80416" lon="0.13294">
        <ele>2586.8330356234</ele>
        <time>2014-06-01T09:28:26Z</time>
      </trkpt>
      <trkpt lat="42.80414" lon="0.13291">
        <ele>2586.8330356234</ele>
        <time>2014-06-01T09:28:31Z</time>
      </trkpt>
      <trkpt lat="42.80413" lon="0.1329">
        <ele>2590.8191144092</ele>
        <time>2014-06-01T09:28:36Z</time>
      </trkpt>
      <trkpt lat="42.80411" lon="0.13285">
        <ele>2590.8191144092</ele>
        <time>2014-06-01T09:28:46Z</time>
      </trkpt>
      <trkpt lat="42.80409" lon="0.13282">
        <ele>2590.8191144092</ele>
        <time>2014-06-01T09:28:51Z</time>
      </trkpt>
      <trkpt lat="42.80409" lon="0.1328">
        <ele>2590.8191144092</ele>
        <time>2014-06-01T09:28:56Z</time>
      </trkpt>
      <trkpt lat="42.80409" lon="0.13279">
        <ele>2590.8191144092</ele>
        <time>2014-06-01T09:29:02Z</time>
      </trkpt>
      <trkpt lat="42.80408" lon="0.13277">
        <ele>2595.5584584258</ele>
        <time>2014-06-01T09:32:22Z</time>
      </trkpt>
      <trkpt lat="42.80407" lon="0.13276">
        <ele>2595.5584584258</ele>
        <time>2014-06-01T09:32:26Z</time>
      </trkpt>
      <trkpt lat="42.80406" lon="0.13275">
        <ele>2595.5584584258</ele>
        <time>2014-06-01T09:32:32Z</time>
      </trkpt>
      <trkpt lat="42.80405" lon="0.13279">
        <ele>2595.5584584258</ele>
        <time>2014-06-01T09:34:51Z</time>
      </trkpt>
      <trkpt lat="42.80404" lon="0.13277">
        <ele>2595.5584584258</ele>
        <time>2014-06-01T09:34:56Z</time>
      </trkpt>
      <trkpt lat="42.80404" lon="0.13274">
        <ele>2600.3125867746</ele>
        <time>2014-06-01T09:35:01Z</time>
      </trkpt>
      <trkpt lat="42.80404" lon="0.13272">
        <ele>2600.3125867746</ele>
        <time>2014-06-01T09:35:06Z</time>
      </trkpt>
      <trkpt lat="42.80403" lon="0.13267">
        <ele>2600.3125867746</ele>
        <time>2014-06-01T09:35:12Z</time>
      </trkpt>
      <trkpt lat="42.80403" lon="0.13264">
        <ele>2600.3125867746</ele>
        <time>2014-06-01T09:35:16Z</time>
      </trkpt>
      <trkpt lat="42.80402" lon="0.13262">
        <ele>2604.6279678022</ele>
        <time>2014-06-01T09:35:21Z</time>
      </trkpt>
      <trkpt lat="42.80401" lon="0.13258">
        <ele>2604.6279678022</ele>
        <time>2014-06-01T09:35:26Z</time>
      </trkpt>
      <trkpt lat="42.804" lon="0.13256">
        <ele>2604.6279678022</ele>
        <time>2014-06-01T09:35:31Z</time>
      </trkpt>
      <trkpt lat="42.804" lon="0.13254">
        <ele>2604.6279678022</ele>
        <time>2014-06-01T09:35:36Z</time>
      </trkpt>
      <trkpt lat="42.804" lon="0.13252">
        <ele>2604.6279678022</ele>
        <time>2014-06-01T09:35:43Z</time>
      </trkpt>
      <trkpt lat="42.80399" lon="0.13251">
        <ele>2604.6279678022</ele>
        <time>2014-06-01T09:35:46Z</time>
      </trkpt>
      <trkpt lat="42.80398" lon="0.13249">
        <ele>2608.6045832207</ele>
        <time>2014-06-01T09:35:52Z</time>
      </trkpt>
      <trkpt lat="42.80398" lon="0.13248">
        <ele>2608.6045832207</ele>
        <time>2014-06-01T09:35:56Z</time>
      </trkpt>
      <trkpt lat="42.80397" lon="0.13246">
        <ele>2608.6045832207</ele>
        <time>2014-06-01T09:36:01Z</time>
      </trkpt>
      <trkpt lat="42.80396" lon="0.13244">
        <ele>2608.6045832207</ele>
        <time>2014-06-01T09:36:06Z</time>
      </trkpt>
      <trkpt lat="42.80396" lon="0.13243">
        <ele>2608.6045832207</ele>
        <time>2014-06-01T09:36:12Z</time>
      </trkpt>
      <trkpt lat="42.80396" lon="0.13242">
        <ele>2608.6045832207</ele>
        <time>2014-06-01T09:36:16Z</time>
      </trkpt>
      <trkpt lat="42.80395" lon="0.13237">
        <ele>2612.6676432566</ele>
        <time>2014-06-01T09:36:21Z</time>
      </trkpt>
      <trkpt lat="42.80394" lon="0.13234">
        <ele>2612.6676432566</ele>
        <time>2014-06-01T09:36:29Z</time>
      </trkpt>
      <trkpt lat="42.80394" lon="0.13232">
        <ele>2612.6676432566</ele>
        <time>2014-06-01T09:36:31Z</time>
      </trkpt>
      <trkpt lat="42.80394" lon="0.13232">
        <ele>2612.6676432566</ele>
        <time>2014-06-01T09:36:36Z</time>
      </trkpt>
      <trkpt lat="42.80393" lon="0.13226">
        <ele>2612.6676432566</ele>
        <time>2014-06-01T09:36:40Z</time>
      </trkpt>
      <trkpt lat="42.80392" lon="0.13225">
        <ele>2616.5625453789</ele>
        <time>2014-06-01T09:36:46Z</time>
      </trkpt>
      <trkpt lat="42.80393" lon="0.13223">
        <ele>2616.5625453789</ele>
        <time>2014-06-01T09:36:51Z</time>
      </trkpt>
      <trkpt lat="42.80393" lon="0.13222">
        <ele>2616.5625453789</ele>
        <time>2014-06-01T09:36:56Z</time>
      </trkpt>
      <trkpt lat="42.80392" lon="0.13219">
        <ele>2616.5625453789</ele>
        <time>2014-06-01T09:37:02Z</time>
      </trkpt>
      <trkpt lat="42.80392" lon="0.13219">
        <ele>2616.5625453789</ele>
        <time>2014-06-01T09:37:06Z</time>
      </trkpt>
      <trkpt lat="42.80392" lon="0.13213">
        <ele>2620.3566576081</ele>
        <time>2014-06-01T09:37:16Z</time>
      </trkpt>
      <trkpt lat="42.80392" lon="0.13212">
        <ele>2620.3566576081</ele>
        <time>2014-06-01T09:37:22Z</time>
      </trkpt>
      <trkpt lat="42.80391" lon="0.13208">
        <ele>2620.3566576081</ele>
        <time>2014-06-01T09:37:32Z</time>
      </trkpt>
      <trkpt lat="42.80391" lon="0.13208">
        <ele>2620.3566576081</ele>
        <time>2014-06-01T09:37:36Z</time>
      </trkpt>
      <trkpt lat="42.8039" lon="0.13203">
        <ele>2620.3566576081</ele>
        <time>2014-06-01T09:37:42Z</time>
      </trkpt>
      <trkpt lat="42.8039" lon="0.13202">
        <ele>2620.3566576081</ele>
        <time>2014-06-01T09:37:47Z</time>
      </trkpt>
      <trkpt lat="42.8039" lon="0.13199">
        <ele>2623.9110839624</ele>
        <time>2014-06-01T09:37:51Z</time>
      </trkpt>
      <trkpt lat="42.80389" lon="0.13197">
        <ele>2623.9110839624</ele>
        <time>2014-06-01T09:37:56Z</time>
      </trkpt>
      <trkpt lat="42.80389" lon="0.13194">
        <ele>2623.9110839624</ele>
        <time>2014-06-01T09:38:01Z</time>
      </trkpt>
      <trkpt lat="42.80389" lon="0.13191">
        <ele>2623.9110839624</ele>
        <time>2014-06-01T09:38:07Z</time>
      </trkpt>
      <trkpt lat="42.80389" lon="0.13189">
        <ele>2623.9110839624</ele>
        <time>2014-06-01T09:38:12Z</time>
      </trkpt>
      <trkpt lat="42.8039" lon="0.13186">
        <ele>2627.2564781195</ele>
        <time>2014-06-01T09:38:16Z</time>
      </trkpt>
      <trkpt lat="42.8039" lon="0.13184">
        <ele>2627.2564781195</ele>
        <time>2014-06-01T09:38:21Z</time>
      </trkpt>
      <trkpt lat="42.80392" lon="0.13182">
        <ele>2627.2564781195</ele>
        <time>2014-06-01T09:38:27Z</time>
      </trkpt>
      <trkpt lat="42.80392" lon="0.1318">
        <ele>2627.2564781195</ele>
        <time>2014-06-01T09:38:30Z</time>
      </trkpt>
      <trkpt lat="42.80393" lon="0.13177">
        <ele>2627.2564781195</ele>
        <time>2014-06-01T09:38:36Z</time>
      </trkpt>
      <trkpt lat="42.80394" lon="0.13176">
        <ele>2627.2564781195</ele>
        <time>2014-06-01T09:38:42Z</time>
      </trkpt>
      <trkpt lat="42.80395" lon="0.13173">
        <ele>2630.6669620731</ele>
        <time>2014-06-01T09:38:47Z</time>
      </trkpt>
      <trkpt lat="42.80396" lon="0.13171">
        <ele>2630.6669620731</ele>
        <time>2014-06-01T09:38:51Z</time>
      </trkpt>
      <trkpt lat="42.80396" lon="0.13171">
        <ele>2630.6669620731</ele>
        <time>2014-06-01T09:38:56Z</time>
      </trkpt>
      <trkpt lat="42.80397" lon="0.13169">
        <ele>2630.6669620731</ele>
        <time>2014-06-01T09:39:01Z</time>
      </trkpt>
      <trkpt lat="42.80397" lon="0.13166">
        <ele>2630.6669620731</ele>
        <time>2014-06-01T09:39:07Z</time>
      </trkpt>
      <trkpt lat="42.80398" lon="0.13164">
        <ele>2630.6669620731</ele>
        <time>2014-06-01T09:39:10Z</time>
      </trkpt>
      <trkpt lat="42.804" lon="0.13161">
        <ele>2634.1226640785</ele>
        <time>2014-06-01T09:39:16Z</time>
      </trkpt>
      <trkpt lat="42.80401" lon="0.1316">
        <ele>2634.1226640785</ele>
        <time>2014-06-01T09:39:21Z</time>
      </trkpt>
      <trkpt lat="42.80402" lon="0.13158">
        <ele>2634.1226640785</ele>
        <time>2014-06-01T09:39:27Z</time>
      </trkpt>
      <trkpt lat="42.80403" lon="0.13157">
        <ele>2634.1226640785</ele>
        <time>2014-06-01T09:39:31Z</time>
      </trkpt>
      <trkpt lat="42.80403" lon="0.13156">
        <ele>2634.1226640785</ele>
        <time>2014-06-01T09:39:36Z</time>
      </trkpt>
      <trkpt lat="42.80405" lon="0.13154">
        <ele>2634.1226640785</ele>
        <time>2014-06-01T09:39:41Z</time>
      </trkpt>
      <trkpt lat="42.80406" lon="0.13153">
        <ele>2634.1226640785</ele>
        <time>2014-06-01T09:39:47Z</time>
      </trkpt>
      <trkpt lat="42.80407" lon="0.13153">
        <ele>2637.8213412226</ele>
        <time>2014-06-01T09:40:06Z</time>
      </trkpt>
      <trkpt lat="42.80403" lon="0.13152">
        <ele>2637.8213412226</ele>
        <time>2014-06-01T09:40:16Z</time>
      </trkpt>
      <trkpt lat="42.80401" lon="0.13151">
        <ele>2637.8213412226</ele>
        <time>2014-06-01T09:40:22Z</time>
      </trkpt>
      <trkpt lat="42.80399" lon="0.1315">
        <ele>2637.8213412226</ele>
        <time>2014-06-01T09:40:27Z</time>
      </trkpt>
      <trkpt lat="42.80397" lon="0.13149">
        <ele>2641.3548076439</ele>
        <time>2014-06-01T09:40:33Z</time>
      </trkpt>
      <trkpt lat="42.80395" lon="0.13148">
        <ele>2641.3548076439</ele>
        <time>2014-06-01T09:40:36Z</time>
      </trkpt>
      <trkpt lat="42.80393" lon="0.13146">
        <ele>2641.3548076439</ele>
        <time>2014-06-01T09:40:40Z</time>
      </trkpt>
      <trkpt lat="42.80391" lon="0.13146">
        <ele>2641.3548076439</ele>
        <time>2014-06-01T09:40:46Z</time>
      </trkpt>
      <trkpt lat="42.8039" lon="0.13145">
        <ele>2641.3548076439</ele>
        <time>2014-06-01T09:40:51Z</time>
      </trkpt>
      <trkpt lat="42.80389" lon="0.13144">
        <ele>2644.6336626041</ele>
        <time>2014-06-01T09:40:56Z</time>
      </trkpt>
      <trkpt lat="42.80388" lon="0.13144">
        <ele>2644.6336626041</ele>
        <time>2014-06-01T09:41:02Z</time>
      </trkpt>
      <trkpt lat="42.8039" lon="0.13138">
        <ele>2644.6336626041</ele>
        <time>2014-06-01T09:41:16Z</time>
      </trkpt>
      <trkpt lat="42.80392" lon="0.13136">
        <ele>2644.6336626041</ele>
        <time>2014-06-01T09:41:21Z</time>
      </trkpt>
      <trkpt lat="42.80395" lon="0.13133">
        <ele>2647.8064715879</ele>
        <time>2014-06-01T09:41:27Z</time>
      </trkpt>
      <trkpt lat="42.80396" lon="0.13131">
        <ele>2647.8064715879</ele>
        <time>2014-06-01T09:41:31Z</time>
      </trkpt>
      <trkpt lat="42.80397" lon="0.13131">
        <ele>2647.8064715879</ele>
        <time>2014-06-01T09:41:36Z</time>
      </trkpt>
      <trkpt lat="42.80398" lon="0.13129">
        <ele>2647.8064715879</ele>
        <time>2014-06-01T09:41:41Z</time>
      </trkpt>
      <trkpt lat="42.80399" lon="0.13126">
        <ele>2647.8064715879</ele>
        <time>2014-06-01T09:41:47Z</time>
      </trkpt>
      <trkpt lat="42.80401" lon="0.13124">
        <ele>2650.9392272687</ele>
        <time>2014-06-01T09:41:52Z</time>
      </trkpt>
      <trkpt lat="42.80402" lon="0.13122">
        <ele>2650.9392272687</ele>
        <time>2014-06-01T09:41:56Z</time>
      </trkpt>
      <trkpt lat="42.80403" lon="0.13122">
        <ele>2650.9392272687</ele>
        <time>2014-06-01T09:42:01Z</time>
      </trkpt>
      <trkpt lat="42.80404" lon="0.1312">
        <ele>2650.9392272687</ele>
        <time>2014-06-01T09:42:16Z</time>
      </trkpt>
      <trkpt lat="42.80406" lon="0.13118">
        <ele>2650.9392272687</ele>
        <time>2014-06-01T09:42:21Z</time>
      </trkpt>
      <trkpt lat="42.80406" lon="0.13118">
        <ele>2650.9392272687</ele>
        <time>2014-06-01T09:42:26Z</time>
      </trkpt>
      <trkpt lat="42.80405" lon="0.13118">
        <ele>2650.9392272687</ele>
        <time>2014-06-01T09:42:41Z</time>
      </trkpt>
      <trkpt lat="42.80403" lon="0.13115">
        <ele>2654.3094442345</ele>
        <time>2014-06-01T09:42:47Z</time>
      </trkpt>
      <trkpt lat="42.80402" lon="0.13114">
        <ele>2654.3094442345</ele>
        <time>2014-06-01T09:42:52Z</time>
      </trkpt>
      <trkpt lat="42.80399" lon="0.13113">
        <ele>2654.3094442345</ele>
        <time>2014-06-01T09:42:56Z</time>
      </trkpt>
      <trkpt lat="42.80399" lon="0.13112">
        <ele>2654.3094442345</ele>
        <time>2014-06-01T09:43:02Z</time>
      </trkpt>
      <trkpt lat="42.80395" lon="0.13111">
        <ele>2657.4386998677</ele>
        <time>2014-06-01T09:43:06Z</time>
      </trkpt>
      <trkpt lat="42.80393" lon="0.1311">
        <ele>2657.4386998677</ele>
        <time>2014-06-01T09:43:11Z</time>
      </trkpt>
      <trkpt lat="42.80391" lon="0.13109">
        <ele>2657.4386998677</ele>
        <time>2014-06-01T09:43:16Z</time>
      </trkpt>
      <trkpt lat="42.8039" lon="0.13108">
        <ele>2657.4386998677</ele>
        <time>2014-06-01T09:43:21Z</time>
      </trkpt>
      <trkpt lat="42.80387" lon="0.13108">
        <ele>2657.4386998677</ele>
        <time>2014-06-01T09:43:27Z</time>
      </trkpt>
      <trkpt lat="42.80386" lon="0.13107">
        <ele>2660.6050217665</ele>
        <time>2014-06-01T09:43:31Z</time>
      </trkpt>
      <trkpt lat="42.80386" lon="0.13107">
        <ele>2660.6050217665</ele>
        <time>2014-06-01T09:43:36Z</time>
      </trkpt>
      <trkpt lat="42.80384" lon="0.13105">
        <ele>2660.6050217665</ele>
        <time>2014-06-01T09:43:40Z</time>
      </trkpt>
      <trkpt lat="42.80382" lon="0.13104">
        <ele>2660.6050217665</ele>
        <time>2014-06-01T09:43:47Z</time>
      </trkpt>
      <trkpt lat="42.80382" lon="0.13104">
        <ele>2660.6050217665</ele>
        <time>2014-06-01T09:43:51Z</time>
      </trkpt>
      <trkpt lat="42.80379" lon="0.13104">
        <ele>2660.6050217665</ele>
        <time>2014-06-01T09:43:56Z</time>
      </trkpt>
      <trkpt lat="42.80376" lon="0.13102">
        <ele>2663.6480531287</ele>
        <time>2014-06-01T09:44:11Z</time>
      </trkpt>
      <trkpt lat="42.80376" lon="0.13102">
        <ele>2663.6480531287</ele>
        <time>2014-06-01T09:44:16Z</time>
      </trkpt>
      <trkpt lat="42.80375" lon="0.13101">
        <ele>2663.6480531287</ele>
        <time>2014-06-01T09:44:21Z</time>
      </trkpt>
      <trkpt lat="42.80378" lon="0.13097">
        <ele>2663.6480531287</ele>
        <time>2014-06-01T09:44:31Z</time>
      </trkpt>
      <trkpt lat="42.80379" lon="0.13095">
        <ele>2663.6480531287</ele>
        <time>2014-06-01T09:44:41Z</time>
      </trkpt>
      <trkpt lat="42.80381" lon="0.13092">
        <ele>2666.6357872315</ele>
        <time>2014-06-01T09:44:47Z</time>
      </trkpt>
      <trkpt lat="42.80382" lon="0.13092">
        <ele>2666.6357872315</ele>
        <time>2014-06-01T09:44:51Z</time>
      </trkpt>
      <trkpt lat="42.80384" lon="0.13088">
        <ele>2666.6357872315</ele>
        <time>2014-06-01T09:44:56Z</time>
      </trkpt>
      <trkpt lat="42.80384" lon="0.13087">
        <ele>2666.6357872315</ele>
        <time>2014-06-01T09:45:01Z</time>
      </trkpt>
      <trkpt lat="42.80386" lon="0.13084">
        <ele>2666.6357872315</ele>
        <time>2014-06-01T09:45:06Z</time>
      </trkpt>
      <trkpt lat="42.80389" lon="0.13084">
        <ele>2669.8331833535</ele>
        <time>2014-06-01T09:45:26Z</time>
      </trkpt>
      <trkpt lat="42.80389" lon="0.13083">
        <ele>2669.8331833535</ele>
        <time>2014-06-01T09:45:31Z</time>
      </trkpt>
      <trkpt lat="42.80389" lon="0.13082">
        <ele>2669.8331833535</ele>
        <time>2014-06-01T09:45:36Z</time>
      </trkpt>
      <trkpt lat="42.80391" lon="0.13081">
        <ele>2669.8331833535</ele>
        <time>2014-06-01T09:45:41Z</time>
      </trkpt>
      <trkpt lat="42.80391" lon="0.13081">
        <ele>2669.8331833535</ele>
        <time>2014-06-01T09:45:46Z</time>
      </trkpt>
      <trkpt lat="42.80392" lon="0.13079">
        <ele>2669.8331833535</ele>
        <time>2014-06-01T09:46:07Z</time>
      </trkpt>
      <trkpt lat="42.80389" lon="0.13079">
        <ele>2669.8331833535</ele>
        <time>2014-06-01T09:46:17Z</time>
      </trkpt>
      <trkpt lat="42.80387" lon="0.13078">
        <ele>2673.2257917362</ele>
        <time>2014-06-01T09:46:27Z</time>
      </trkpt>
      <trkpt lat="42.80385" lon="0.13078">
        <ele>2673.2257917362</ele>
        <time>2014-06-01T09:46:31Z</time>
      </trkpt>
      <trkpt lat="42.80382" lon="0.13076">
        <ele>2673.2257917362</ele>
        <time>2014-06-01T09:46:36Z</time>
      </trkpt>
      <trkpt lat="42.80382" lon="0.13075">
        <ele>2673.2257917362</ele>
        <time>2014-06-01T09:46:41Z</time>
      </trkpt>
      <trkpt lat="42.80379" lon="0.13076">
        <ele>2673.2257917362</ele>
        <time>2014-06-01T09:46:46Z</time>
      </trkpt>
      <trkpt lat="42.80377" lon="0.13075">
        <ele>2676.4250238897</ele>
        <time>2014-06-01T09:46:52Z</time>
      </trkpt>
      <trkpt lat="42.80374" lon="0.13074">
        <ele>2676.4250238897</ele>
        <time>2014-06-01T09:46:58Z</time>
      </trkpt>
      <trkpt lat="42.80372" lon="0.13074">
        <ele>2676.4250238897</ele>
        <time>2014-06-01T09:47:00Z</time>
      </trkpt>
      <trkpt lat="42.80371" lon="0.13074">
        <ele>2676.4250238897</ele>
        <time>2014-06-01T09:47:06Z</time>
      </trkpt>
      <trkpt lat="42.80369" lon="0.13074">
        <ele>2676.4250238897</ele>
        <time>2014-06-01T09:47:16Z</time>
      </trkpt>
      <trkpt lat="42.8037" lon="0.1307">
        <ele>2679.5757991022</ele>
        <time>2014-06-01T09:47:21Z</time>
      </trkpt>
      <trkpt lat="42.80372" lon="0.13069">
        <ele>2679.5757991022</ele>
        <time>2014-06-01T09:47:27Z</time>
      </trkpt>
      <trkpt lat="42.80374" lon="0.13067">
        <ele>2679.5757991022</ele>
        <time>2014-06-01T09:47:31Z</time>
      </trkpt>
      <trkpt lat="42.80375" lon="0.13066">
        <ele>2679.5757991022</ele>
        <time>2014-06-01T09:47:36Z</time>
      </trkpt>
      <trkpt lat="42.80376" lon="0.13064">
        <ele>2679.5757991022</ele>
        <time>2014-06-01T09:47:41Z</time>
      </trkpt>
      <trkpt lat="42.80378" lon="0.13062">
        <ele>2682.740496903</ele>
        <time>2014-06-01T09:47:46Z</time>
      </trkpt>
      <trkpt lat="42.80379" lon="0.13061">
        <ele>2682.740496903</ele>
        <time>2014-06-01T09:47:52Z</time>
      </trkpt>
      <trkpt lat="42.8038" lon="0.13059">
        <ele>2682.740496903</ele>
        <time>2014-06-01T09:47:56Z</time>
      </trkpt>
      <trkpt lat="42.80382" lon="0.13056">
        <ele>2682.740496903</ele>
        <time>2014-06-01T09:48:01Z</time>
      </trkpt>
      <trkpt lat="42.80384" lon="0.13054">
        <ele>2682.740496903</ele>
        <time>2014-06-01T09:48:06Z</time>
      </trkpt>
      <trkpt lat="42.80384" lon="0.13054">
        <ele>2682.740496903</ele>
        <time>2014-06-01T09:48:12Z</time>
      </trkpt>
      <trkpt lat="42.80386" lon="0.13052">
        <ele>2685.8183735023</ele>
        <time>2014-06-01T09:48:16Z</time>
      </trkpt>
      <trkpt lat="42.80387" lon="0.1305">
        <ele>2685.8183735023</ele>
        <time>2014-06-01T09:48:21Z</time>
      </trkpt>
      <trkpt lat="42.80388" lon="0.13049">
        <ele>2685.8183735023</ele>
        <time>2014-06-01T09:48:26Z</time>
      </trkpt>
      <trkpt lat="42.8039" lon="0.13048">
        <ele>2685.8183735023</ele>
        <time>2014-06-01T09:48:31Z</time>
      </trkpt>
      <trkpt lat="42.80391" lon="0.13047">
        <ele>2685.8183735023</ele>
        <time>2014-06-01T09:48:36Z</time>
      </trkpt>
      <trkpt lat="42.80393" lon="0.13046">
        <ele>2685.8183735023</ele>
        <time>2014-06-01T09:48:41Z</time>
      </trkpt>
      <trkpt lat="42.80395" lon="0.13045">
        <ele>2688.9757445706</ele>
        <time>2014-06-01T09:48:46Z</time>
      </trkpt>
      <trkpt lat="42.80396" lon="0.13044">
        <ele>2688.9757445706</ele>
        <time>2014-06-01T09:48:51Z</time>
      </trkpt>
      <trkpt lat="42.80397" lon="0.13044">
        <ele>2688.9757445706</ele>
        <time>2014-06-01T09:48:56Z</time>
      </trkpt>
      <trkpt lat="42.80399" lon="0.13043">
        <ele>2688.9757445706</ele>
        <time>2014-06-01T09:49:01Z</time>
      </trkpt>
      <trkpt lat="42.804" lon="0.13043">
        <ele>2688.9757445706</ele>
        <time>2014-06-01T09:49:06Z</time>
      </trkpt>
      <trkpt lat="42.80403" lon="0.13042">
        <ele>2688.9757445706</ele>
        <time>2014-06-01T09:49:16Z</time>
      </trkpt>
      <trkpt lat="42.80404" lon="0.13041">
        <ele>2692.6403077138</ele>
        <time>2014-06-01T09:49:41Z</time>
      </trkpt>
      <trkpt lat="42.80405" lon="0.13041">
        <ele>2692.6403077138</ele>
        <time>2014-06-01T09:49:46Z</time>
      </trkpt>
      <trkpt lat="42.80405" lon="0.1304">
        <ele>2692.6403077138</ele>
        <time>2014-06-01T09:49:56Z</time>
      </trkpt>
      <trkpt lat="42.80405" lon="0.1304">
        <ele>2692.6403077138</ele>
        <time>2014-06-01T09:50:01Z</time>
      </trkpt>
      <trkpt lat="42.80403" lon="0.13038">
        <ele>2692.6403077138</ele>
        <time>2014-06-01T09:50:11Z</time>
      </trkpt>
      <trkpt lat="42.80402" lon="0.13036">
        <ele>2692.6403077138</ele>
        <time>2014-06-01T09:50:16Z</time>
      </trkpt>
      <trkpt lat="42.80401" lon="0.13034">
        <ele>2692.6403077138</ele>
        <time>2014-06-01T09:50:20Z</time>
      </trkpt>
      <trkpt lat="42.804" lon="0.13032">
        <ele>2696.1837378945</ele>
        <time>2014-06-01T09:50:27Z</time>
      </trkpt>
      <trkpt lat="42.80399" lon="0.1303">
        <ele>2696.1837378945</ele>
        <time>2014-06-01T09:50:31Z</time>
      </trkpt>
      <trkpt lat="42.80399" lon="0.1303">
        <ele>2696.1837378945</ele>
        <time>2014-06-01T09:50:36Z</time>
      </trkpt>
      <trkpt lat="42.80397" lon="0.13028">
        <ele>2696.1837378945</ele>
        <time>2014-06-01T09:50:41Z</time>
      </trkpt>
      <trkpt lat="42.80397" lon="0.13028">
        <ele>2696.1837378945</ele>
        <time>2014-06-01T09:50:46Z</time>
      </trkpt>
      <trkpt lat="42.80395" lon="0.13026">
        <ele>2696.1837378945</ele>
        <time>2014-06-01T09:50:52Z</time>
      </trkpt>
      <trkpt lat="42.80396" lon="0.13026">
        <ele>2696.1837378945</ele>
        <time>2014-06-01T09:50:56Z</time>
      </trkpt>
      <trkpt lat="42.80397" lon="0.13021">
        <ele>2699.6294787509</ele>
        <time>2014-06-01T09:51:12Z</time>
      </trkpt>
      <trkpt lat="42.80399" lon="0.13019">
        <ele>2699.6294787509</ele>
        <time>2014-06-01T09:51:17Z</time>
      </trkpt>
      <trkpt lat="42.804" lon="0.13019">
        <ele>2699.6294787509</ele>
        <time>2014-06-01T09:51:21Z</time>
      </trkpt>
      <trkpt lat="42.80401" lon="0.13018">
        <ele>2699.6294787509</ele>
        <time>2014-06-01T09:51:26Z</time>
      </trkpt>
      <trkpt lat="42.80403" lon="0.13017">
        <ele>2699.6294787509</ele>
        <time>2014-06-01T09:51:31Z</time>
      </trkpt>
      <trkpt lat="42.80405" lon="0.13016">
        <ele>2703.201285821</ele>
        <time>2014-06-01T09:51:37Z</time>
      </trkpt>
      <trkpt lat="42.80407" lon="0.13015">
        <ele>2703.201285821</ele>
        <time>2014-06-01T09:51:52Z</time>
      </trkpt>
      <trkpt lat="42.80408" lon="0.13015">
        <ele>2703.201285821</ele>
        <time>2014-06-01T09:51:57Z</time>
      </trkpt>
      <trkpt lat="42.80411" lon="0.13014">
        <ele>2703.201285821</ele>
        <time>2014-06-01T09:52:26Z</time>
      </trkpt>
      <trkpt lat="42.80411" lon="0.13014">
        <ele>2703.201285821</ele>
        <time>2014-06-01T09:52:30Z</time>
      </trkpt>
      <trkpt lat="42.80414" lon="0.13008">
        <ele>2707.9563856546</ele>
        <time>2014-06-01T09:53:31Z</time>
      </trkpt>
      <trkpt lat="42.80413" lon="0.13006">
        <ele>2707.9563856546</ele>
        <time>2014-06-01T09:53:36Z</time>
      </trkpt>
      <trkpt lat="42.80411" lon="0.13004">
        <ele>2707.9563856546</ele>
        <time>2014-06-01T09:53:41Z</time>
      </trkpt>
      <trkpt lat="42.80411" lon="0.13003">
        <ele>2707.9563856546</ele>
        <time>2014-06-01T09:53:47Z</time>
      </trkpt>
      <trkpt lat="42.80409" lon="0.13">
        <ele>2707.9563856546</ele>
        <time>2014-06-01T09:53:51Z</time>
      </trkpt>
      <trkpt lat="42.80407" lon="0.12998">
        <ele>2712.3202621924</ele>
        <time>2014-06-01T09:53:56Z</time>
      </trkpt>
      <trkpt lat="42.80406" lon="0.12995">
        <ele>2712.3202621924</ele>
        <time>2014-06-01T09:54:01Z</time>
      </trkpt>
      <trkpt lat="42.80406" lon="0.12995">
        <ele>2712.3202621924</ele>
        <time>2014-06-01T09:54:06Z</time>
      </trkpt>
      <trkpt lat="42.80404" lon="0.12992">
        <ele>2712.3202621924</ele>
        <time>2014-06-01T09:54:12Z</time>
      </trkpt>
      <trkpt lat="42.80404" lon="0.12991">
        <ele>2712.3202621924</ele>
        <time>2014-06-01T09:54:16Z</time>
      </trkpt>
      <trkpt lat="42.80403" lon="0.12991">
        <ele>2712.3202621924</ele>
        <time>2014-06-01T09:54:51Z</time>
      </trkpt>
      <trkpt lat="42.80403" lon="0.12991">
        <ele>2712.3202621924</ele>
        <time>2014-06-01T09:54:56Z</time>
      </trkpt>
      <trkpt lat="42.80402" lon="0.12986">
        <ele>2716.7518501987</ele>
        <time>2014-06-01T09:55:11Z</time>
      </trkpt>
      <trkpt lat="42.80401" lon="0.12982">
        <ele>2716.7518501987</ele>
        <time>2014-06-01T09:55:21Z</time>
      </trkpt>
      <trkpt lat="42.80401" lon="0.12982">
        <ele>2716.7518501987</ele>
        <time>2014-06-01T09:55:26Z</time>
      </trkpt>
      <trkpt lat="42.80403" lon="0.12982">
        <ele>2716.7518501987</ele>
        <time>2014-06-01T09:55:36Z</time>
      </trkpt>
      <trkpt lat="42.80405" lon="0.12981">
        <ele>2716.7518501987</ele>
        <time>2014-06-01T09:55:41Z</time>
      </trkpt>
      <trkpt lat="42.80407" lon="0.12981">
        <ele>2721.0132870102</ele>
        <time>2014-06-01T09:55:46Z</time>
      </trkpt>
      <trkpt lat="42.80409" lon="0.1298">
        <ele>2721.0132870102</ele>
        <time>2014-06-01T09:55:51Z</time>
      </trkpt>
      <trkpt lat="42.80409" lon="0.1298">
        <ele>2721.0132870102</ele>
        <time>2014-06-01T09:55:56Z</time>
      </trkpt>
      <trkpt lat="42.80413" lon="0.12977">
        <ele>2721.0132870102</ele>
        <time>2014-06-01T09:56:31Z</time>
      </trkpt>
      <trkpt lat="42.80412" lon="0.12976">
        <ele>2721.0132870102</ele>
        <time>2014-06-01T09:56:36Z</time>
      </trkpt>
      <trkpt lat="42.80412" lon="0.12976">
        <ele>2721.0132870102</ele>
        <time>2014-06-01T09:56:41Z</time>
      </trkpt>
      <trkpt lat="42.8041" lon="0.12973">
        <ele>2725.4034834115</ele>
        <time>2014-06-01T09:56:46Z</time>
      </trkpt>
      <trkpt lat="42.80407" lon="0.12968">
        <ele>2725.4034834115</ele>
        <time>2014-06-01T09:56:51Z</time>
      </trkpt>
      <trkpt lat="42.80406" lon="0.12965">
        <ele>2725.4034834115</ele>
        <time>2014-06-01T09:56:56Z</time>
      </trkpt>
      <trkpt lat="42.80406" lon="0.12965">
        <ele>2725.4034834115</ele>
        <time>2014-06-01T09:57:02Z</time>
      </trkpt>
      <trkpt lat="42.80405" lon="0.12965">
        <ele>2725.4034834115</ele>
        <time>2014-06-01T09:57:16Z</time>
      </trkpt>
      <trkpt lat="42.80404" lon="0.12963">
        <ele>2725.4034834115</ele>
        <time>2014-06-01T09:57:22Z</time>
      </trkpt>
      <trkpt lat="42.80404" lon="0.12961">
        <ele>2730.0405366114</ele>
        <time>2014-06-01T09:57:51Z</time>
      </trkpt>
      <trkpt lat="42.80405" lon="0.12961">
        <ele>2730.0405366114</ele>
        <time>2014-06-01T09:57:57Z</time>
      </trkpt>
      <trkpt lat="42.80406" lon="0.1296">
        <ele>2730.0405366114</ele>
        <time>2014-06-01T09:58:01Z</time>
      </trkpt>
      <trkpt lat="42.80407" lon="0.12959">
        <ele>2730.0405366114</ele>
        <time>2014-06-01T09:58:06Z</time>
      </trkpt>
      <trkpt lat="42.8041" lon="0.12958">
        <ele>2730.0405366114</ele>
        <time>2014-06-01T09:58:12Z</time>
      </trkpt>
      <trkpt lat="42.80411" lon="0.12959">
        <ele>2730.0405366114</ele>
        <time>2014-06-01T09:58:16Z</time>
      </trkpt>
      <trkpt lat="42.80411" lon="0.12955">
        <ele>2735.0187980991</ele>
        <time>2014-06-01T09:58:51Z</time>
      </trkpt>
      <trkpt lat="42.80411" lon="0.12956">
        <ele>2735.0187980991</ele>
        <time>2014-06-01T09:58:57Z</time>
      </trkpt>
      <trkpt lat="42.8041" lon="0.12952">
        <ele>2735.0187980991</ele>
        <time>2014-06-01T09:59:01Z</time>
      </trkpt>
      <trkpt lat="42.80409" lon="0.12952">
        <ele>2735.0187980991</ele>
        <time>2014-06-01T09:59:06Z</time>
      </trkpt>
      <trkpt lat="42.80408" lon="0.12948">
        <ele>2735.0187980991</ele>
        <time>2014-06-01T10:00:01Z</time>
      </trkpt>
      <trkpt lat="42.80407" lon="0.12945">
        <ele>2739.9059700622</ele>
        <time>2014-06-01T10:00:06Z</time>
      </trkpt>
      <trkpt lat="42.80406" lon="0.12942">
        <ele>2739.9059700622</ele>
        <time>2014-06-01T10:00:11Z</time>
      </trkpt>
      <trkpt lat="42.80407" lon="0.12941">
        <ele>2739.9059700622</ele>
        <time>2014-06-01T10:00:16Z</time>
      </trkpt>
      <trkpt lat="42.80407" lon="0.1294">
        <ele>2739.9059700622</ele>
        <time>2014-06-01T10:00:22Z</time>
      </trkpt>
      <trkpt lat="42.8041" lon="0.12939">
        <ele>2739.9059700622</ele>
        <time>2014-06-01T10:00:26Z</time>
      </trkpt>
      <trkpt lat="42.80413" lon="0.12937">
        <ele>2744.4459227424</ele>
        <time>2014-06-01T10:00:31Z</time>
      </trkpt>
      <trkpt lat="42.80416" lon="0.12937">
        <ele>2744.4459227424</ele>
        <time>2014-06-01T10:00:37Z</time>
      </trkpt>
      <trkpt lat="42.80418" lon="0.12938">
        <ele>2744.4459227424</ele>
        <time>2014-06-01T10:00:41Z</time>
      </trkpt>
      <trkpt lat="42.80419" lon="0.12938">
        <ele>2744.4459227424</ele>
        <time>2014-06-01T10:00:46Z</time>
      </trkpt>
      <trkpt lat="42.80422" lon="0.12939">
        <ele>2748.8779329413</ele>
        <time>2014-06-01T10:00:57Z</time>
      </trkpt>
      <trkpt lat="42.80422" lon="0.12939">
        <ele>2748.8779329413</ele>
        <time>2014-06-01T10:01:01Z</time>
      </trkpt>
      <trkpt lat="42.80422" lon="0.12938">
        <ele>2748.8779329413</ele>
        <time>2014-06-01T10:01:16Z</time>
      </trkpt>
      <trkpt lat="42.80421" lon="0.12935">
        <ele>2748.8779329413</ele>
        <time>2014-06-01T10:01:22Z</time>
      </trkpt>
      <trkpt lat="42.8042" lon="0.12932">
        <ele>2748.8779329413</ele>
        <time>2014-06-01T10:01:25Z</time>
      </trkpt>
      <trkpt lat="42.80419" lon="0.12928">
        <ele>2748.8779329413</ele>
        <time>2014-06-01T10:01:31Z</time>
      </trkpt>
      <trkpt lat="42.80419" lon="0.12927">
        <ele>2753.4384693489</ele>
        <time>2014-06-01T10:01:36Z</time>
      </trkpt>
      <trkpt lat="42.80417" lon="0.12924">
        <ele>2753.4384693489</ele>
        <time>2014-06-01T10:01:41Z</time>
      </trkpt>
      <trkpt lat="42.80417" lon="0.12922">
        <ele>2753.4384693489</ele>
        <time>2014-06-01T10:01:46Z</time>
      </trkpt>
      <trkpt lat="42.80415" lon="0.1292">
        <ele>2753.4384693489</ele>
        <time>2014-06-01T10:01:52Z</time>
      </trkpt>
      <trkpt lat="42.80414" lon="0.12919">
        <ele>2753.4384693489</ele>
        <time>2014-06-01T10:02:12Z</time>
      </trkpt>
      <trkpt lat="42.80412" lon="0.12916">
        <ele>2757.9139938952</ele>
        <time>2014-06-01T10:02:16Z</time>
      </trkpt>
      <trkpt lat="42.80411" lon="0.12913">
        <ele>2757.9139938952</ele>
        <time>2014-06-01T10:02:21Z</time>
      </trkpt>
      <trkpt lat="42.8041" lon="0.12912">
        <ele>2757.9139938952</ele>
        <time>2014-06-01T10:02:26Z</time>
      </trkpt>
      <trkpt lat="42.8041" lon="0.12912">
        <ele>2757.9139938952</ele>
        <time>2014-06-01T10:02:32Z</time>
      </trkpt>
      <trkpt lat="42.80408" lon="0.12911">
        <ele>2757.9139938952</ele>
        <time>2014-06-01T10:02:36Z</time>
      </trkpt>
      <trkpt lat="42.80407" lon="0.12909">
        <ele>2757.9139938952</ele>
        <time>2014-06-01T10:02:41Z</time>
      </trkpt>
      <trkpt lat="42.80406" lon="0.12908">
        <ele>2757.9139938952</ele>
        <time>2014-06-01T10:02:46Z</time>
      </trkpt>
      <trkpt lat="42.80406" lon="0.12908">
        <ele>2757.9139938952</ele>
        <time>2014-06-01T10:02:52Z</time>
      </trkpt>
      <trkpt lat="42.80404" lon="0.12909">
        <ele>2762.4095871076</ele>
        <time>2014-06-01T10:03:01Z</time>
      </trkpt>
      <trkpt lat="42.80405" lon="0.12908">
        <ele>2762.4095871076</ele>
        <time>2014-06-01T10:03:06Z</time>
      </trkpt>
      <trkpt lat="42.8041" lon="0.12903">
        <ele>2762.4095871076</ele>
        <time>2014-06-01T10:03:21Z</time>
      </trkpt>
      <trkpt lat="42.80412" lon="0.12901">
        <ele>2766.604693195</ele>
        <time>2014-06-01T10:03:26Z</time>
      </trkpt>
      <trkpt lat="42.80415" lon="0.129">
        <ele>2766.604693195</ele>
        <time>2014-06-01T10:03:32Z</time>
      </trkpt>
      <trkpt lat="42.80417" lon="0.12899">
        <ele>2766.604693195</ele>
        <time>2014-06-01T10:03:37Z</time>
      </trkpt>
      <trkpt lat="42.80419" lon="0.12899">
        <ele>2766.604693195</ele>
        <time>2014-06-01T10:03:42Z</time>
      </trkpt>
      <trkpt lat="42.80421" lon="0.12899">
        <ele>2766.604693195</ele>
        <time>2014-06-01T10:03:45Z</time>
      </trkpt>
      <trkpt lat="42.80423" lon="0.12898">
        <ele>2770.7364204798</ele>
        <time>2014-06-01T10:03:51Z</time>
      </trkpt>
      <trkpt lat="42.80424" lon="0.12901">
        <ele>2770.7364204798</ele>
        <time>2014-06-01T10:04:21Z</time>
      </trkpt>
      <trkpt lat="42.80426" lon="0.12901">
        <ele>2770.7364204798</ele>
        <time>2014-06-01T10:04:26Z</time>
      </trkpt>
      <trkpt lat="42.80429" lon="0.12901">
        <ele>2770.7364204798</ele>
        <time>2014-06-01T10:04:31Z</time>
      </trkpt>
      <trkpt lat="42.80431" lon="0.12901">
        <ele>2770.7364204798</ele>
        <time>2014-06-01T10:04:36Z</time>
      </trkpt>
      <trkpt lat="42.80431" lon="0.12901">
        <ele>2775.082343567</ele>
        <time>2014-06-01T10:04:42Z</time>
      </trkpt>
      <trkpt lat="42.8043" lon="0.12896">
        <ele>2775.082343567</ele>
        <time>2014-06-01T10:05:11Z</time>
      </trkpt>
      <trkpt lat="42.80428" lon="0.12892">
        <ele>2775.082343567</ele>
        <time>2014-06-01T10:05:16Z</time>
      </trkpt>
      <trkpt lat="42.80427" lon="0.1289">
        <ele>2775.082343567</ele>
        <time>2014-06-01T10:05:22Z</time>
      </trkpt>
      <trkpt lat="42.80426" lon="0.12887">
        <ele>2779.6829405258</ele>
        <time>2014-06-01T10:05:26Z</time>
      </trkpt>
      <trkpt lat="42.80425" lon="0.12885">
        <ele>2779.6829405258</ele>
        <time>2014-06-01T10:05:32Z</time>
      </trkpt>
      <trkpt lat="42.80425" lon="0.12885">
        <ele>2779.6829405258</ele>
        <time>2014-06-01T10:05:36Z</time>
      </trkpt>
      <trkpt lat="42.80425" lon="0.12883">
        <ele>2779.6829405258</ele>
        <time>2014-06-01T10:05:42Z</time>
      </trkpt>
      <trkpt lat="42.80425" lon="0.12882">
        <ele>2779.6829405258</ele>
        <time>2014-06-01T10:05:51Z</time>
      </trkpt>
      <trkpt lat="42.80424" lon="0.12882">
        <ele>2779.6829405258</ele>
        <time>2014-06-01T10:05:57Z</time>
      </trkpt>
      <trkpt lat="42.80421" lon="0.12878">
        <ele>2785.0218087502</ele>
        <time>2014-06-01T10:07:12Z</time>
      </trkpt>
      <trkpt lat="42.8042" lon="0.12876">
        <ele>2785.0218087502</ele>
        <time>2014-06-01T10:07:16Z</time>
      </trkpt>
      <trkpt lat="42.80419" lon="0.12872">
        <ele>2785.0218087502</ele>
        <time>2014-06-01T10:07:22Z</time>
      </trkpt>
      <trkpt lat="42.80418" lon="0.1287">
        <ele>2785.0218087502</ele>
        <time>2014-06-01T10:07:25Z</time>
      </trkpt>
      <trkpt lat="42.80416" lon="0.12867">
        <ele>2790.4065369458</ele>
        <time>2014-06-01T10:07:32Z</time>
      </trkpt>
      <trkpt lat="42.80415" lon="0.12866">
        <ele>2790.4065369458</ele>
        <time>2014-06-01T10:07:36Z</time>
      </trkpt>
      <trkpt lat="42.80417" lon="0.12865">
        <ele>2790.4065369458</ele>
        <time>2014-06-01T10:07:42Z</time>
      </trkpt>
      <trkpt lat="42.80418" lon="0.12866">
        <ele>2790.4065369458</ele>
        <time>2014-06-01T10:07:46Z</time>
      </trkpt>
      <trkpt lat="42.80422" lon="0.12865">
        <ele>2790.4065369458</ele>
        <time>2014-06-01T10:07:56Z</time>
      </trkpt>
      <trkpt lat="42.80424" lon="0.12864">
        <ele>2795.7143194466</ele>
        <time>2014-06-01T10:08:01Z</time>
      </trkpt>
      <trkpt lat="42.80426" lon="0.12864">
        <ele>2795.7143194466</ele>
        <time>2014-06-01T10:08:06Z</time>
      </trkpt>
      <trkpt lat="42.80426" lon="0.12864">
        <ele>2795.7143194466</ele>
        <time>2014-06-01T10:08:11Z</time>
      </trkpt>
      <trkpt lat="42.80427" lon="0.12864">
        <ele>2795.7143194466</ele>
        <time>2014-06-01T10:08:57Z</time>
      </trkpt>
      <trkpt lat="42.80429" lon="0.12863">
        <ele>2795.7143194466</ele>
        <time>2014-06-01T10:09:01Z</time>
      </trkpt>
      <trkpt lat="42.80431" lon="0.12864">
        <ele>2795.7143194466</ele>
        <time>2014-06-01T10:09:06Z</time>
      </trkpt>
      <trkpt lat="42.80434" lon="0.12865">
        <ele>2801.3648753635</ele>
        <time>2014-06-01T10:09:11Z</time>
      </trkpt>
      <trkpt lat="42.80436" lon="0.12865">
        <ele>2801.3648753635</ele>
        <time>2014-06-01T10:09:17Z</time>
      </trkpt>
      <trkpt lat="42.80439" lon="0.12866">
        <ele>2801.3648753635</ele>
        <time>2014-06-01T10:09:21Z</time>
      </trkpt>
      <trkpt lat="42.80441" lon="0.12866">
        <ele>2801.3648753635</ele>
        <time>2014-06-01T10:09:26Z</time>
      </trkpt>
      <trkpt lat="42.80444" lon="0.12866">
        <ele>2806.6653790191</ele>
        <time>2014-06-01T10:09:32Z</time>
      </trkpt>
      <trkpt lat="42.80445" lon="0.12866">
        <ele>2806.6653790191</ele>
        <time>2014-06-01T10:09:37Z</time>
      </trkpt>
      <trkpt lat="42.80446" lon="0.12866">
        <ele>2806.6653790191</ele>
        <time>2014-06-01T10:09:41Z</time>
      </trkpt>
      <trkpt lat="42.8045" lon="0.12868">
        <ele>2806.6653790191</ele>
        <time>2014-06-01T10:09:51Z</time>
      </trkpt>
      <trkpt lat="42.8045" lon="0.12867">
        <ele>2806.6653790191</ele>
        <time>2014-06-01T10:09:57Z</time>
      </trkpt>
      <trkpt lat="42.8045" lon="0.12867">
        <ele>2806.6653790191</ele>
        <time>2014-06-01T10:10:12Z</time>
      </trkpt>
      <trkpt lat="42.8045" lon="0.12867">
        <ele>2806.6653790191</ele>
        <time>2014-06-01T10:10:15Z</time>
      </trkpt>
      <trkpt lat="42.80448" lon="0.12864">
        <ele>2811.9261036793</ele>
        <time>2014-06-01T10:10:26Z</time>
      </trkpt>
      <trkpt lat="42.80448" lon="0.12862">
        <ele>2811.9261036793</ele>
        <time>2014-06-01T10:10:31Z</time>
      </trkpt>
      <trkpt lat="42.80446" lon="0.12858">
        <ele>2811.9261036793</ele>
        <time>2014-06-01T10:10:36Z</time>
      </trkpt>
      <trkpt lat="42.80446" lon="0.12855">
        <ele>2811.9261036793</ele>
        <time>2014-06-01T10:10:42Z</time>
      </trkpt>
      <trkpt lat="42.80445" lon="0.1285">
        <ele>2816.570067226</ele>
        <time>2014-06-01T10:10:46Z</time>
      </trkpt>
      <trkpt lat="42.80446" lon="0.1285">
        <ele>2816.570067226</ele>
        <time>2014-06-01T10:10:51Z</time>
      </trkpt>
      <trkpt lat="42.80446" lon="0.1285">
        <ele>2816.570067226</ele>
        <time>2014-06-01T10:11:01Z</time>
      </trkpt>
      <trkpt lat="42.80445" lon="0.12846">
        <ele>2816.570067226</ele>
        <time>2014-06-01T10:11:06Z</time>
      </trkpt>
      <trkpt lat="42.80445" lon="0.12846">
        <ele>2816.570067226</ele>
        <time>2014-06-01T10:11:11Z</time>
      </trkpt>
      <trkpt lat="42.80445" lon="0.12845">
        <ele>2816.570067226</ele>
        <time>2014-06-01T10:11:16Z</time>
      </trkpt>
      <trkpt lat="42.80449" lon="0.12844">
        <ele>2816.570067226</ele>
        <time>2014-06-01T10:11:26Z</time>
      </trkpt>
      <trkpt lat="42.80451" lon="0.12844">
        <ele>2820.8571079394</ele>
        <time>2014-06-01T10:11:31Z</time>
      </trkpt>
      <trkpt lat="42.80452" lon="0.12844">
        <ele>2820.8571079394</ele>
        <time>2014-06-01T10:11:38Z</time>
      </trkpt>
      <trkpt lat="42.80457" lon="0.12845">
        <ele>2820.8571079394</ele>
        <time>2014-06-01T10:12:01Z</time>
      </trkpt>
      <trkpt lat="42.80458" lon="0.12845">
        <ele>2820.8571079394</ele>
        <time>2014-06-01T10:12:06Z</time>
      </trkpt>
      <trkpt lat="42.80463" lon="0.12848">
        <ele>2825.1299484182</ele>
        <time>2014-06-01T10:12:26Z</time>
      </trkpt>
      <trkpt lat="42.80464" lon="0.12849">
        <ele>2825.1299484182</ele>
        <time>2014-06-01T10:12:31Z</time>
      </trkpt>
      <trkpt lat="42.80466" lon="0.1285">
        <ele>2825.1299484182</ele>
        <time>2014-06-01T10:12:41Z</time>
      </trkpt>
      <trkpt lat="42.80466" lon="0.12849">
        <ele>2825.1299484182</ele>
        <time>2014-06-01T10:12:46Z</time>
      </trkpt>
      <trkpt lat="42.80466" lon="0.12843">
        <ele>2825.1299484182</ele>
        <time>2014-06-01T10:13:01Z</time>
      </trkpt>
      <trkpt lat="42.80466" lon="0.1284">
        <ele>2829.4612753626</ele>
        <time>2014-06-01T10:13:06Z</time>
      </trkpt>
      <trkpt lat="42.80464" lon="0.12837">
        <ele>2829.4612753626</ele>
        <time>2014-06-01T10:13:11Z</time>
      </trkpt>
      <trkpt lat="42.80463" lon="0.12834">
        <ele>2829.4612753626</ele>
        <time>2014-06-01T10:13:16Z</time>
      </trkpt>
      <trkpt lat="42.80462" lon="0.12831">
        <ele>2829.4612753626</ele>
        <time>2014-06-01T10:13:21Z</time>
      </trkpt>
      <trkpt lat="42.80462" lon="0.12831">
        <ele>2829.4612753626</ele>
        <time>2014-06-01T10:13:27Z</time>
      </trkpt>
      <trkpt lat="42.8046" lon="0.1283">
        <ele>2833.9904123939</ele>
        <time>2014-06-01T10:14:06Z</time>
      </trkpt>
      <trkpt lat="42.8046" lon="0.1283">
        <ele>2833.9904123939</ele>
        <time>2014-06-01T10:14:11Z</time>
      </trkpt>
      <trkpt lat="42.80459" lon="0.12831">
        <ele>2833.9904123939</ele>
        <time>2014-06-01T10:14:30Z</time>
      </trkpt>
      <trkpt lat="42.80459" lon="0.12828">
        <ele>2833.9904123939</ele>
        <time>2014-06-01T10:14:37Z</time>
      </trkpt>
      <trkpt lat="42.8046" lon="0.12822">
        <ele>2833.9904123939</ele>
        <time>2014-06-01T10:15:06Z</time>
      </trkpt>
      <trkpt lat="42.80462" lon="0.12822">
        <ele>2838.3848179937</ele>
        <time>2014-06-01T10:15:11Z</time>
      </trkpt>
      <trkpt lat="42.80466" lon="0.12821">
        <ele>2838.3848179937</ele>
        <time>2014-06-01T10:15:17Z</time>
      </trkpt>
      <trkpt lat="42.80468" lon="0.1282">
        <ele>2838.3848179937</ele>
        <time>2014-06-01T10:15:21Z</time>
      </trkpt>
      <trkpt lat="42.8047" lon="0.12821">
        <ele>2838.3848179937</ele>
        <time>2014-06-01T10:15:26Z</time>
      </trkpt>
      <trkpt lat="42.80469" lon="0.12821">
        <ele>2838.3848179937</ele>
        <time>2014-06-01T10:15:31Z</time>
      </trkpt>
      <trkpt lat="42.80473" lon="0.12824">
        <ele>2842.7115216196</ele>
        <time>2014-06-01T10:15:57Z</time>
      </trkpt>
      <trkpt lat="42.80474" lon="0.12824">
        <ele>2842.7115216196</ele>
        <time>2014-06-01T10:16:01Z</time>
      </trkpt>
      <trkpt lat="42.80477" lon="0.12821">
        <ele>2842.7115216196</ele>
        <time>2014-06-01T10:16:57Z</time>
      </trkpt>
      <trkpt lat="42.80476" lon="0.12817">
        <ele>2842.7115216196</ele>
        <time>2014-06-01T10:17:01Z</time>
      </trkpt>
      <trkpt lat="42.80476" lon="0.12812">
        <ele>2847.1193569811</ele>
        <time>2014-06-01T10:17:06Z</time>
      </trkpt>
      <trkpt lat="42.80475" lon="0.12808">
        <ele>2847.1193569811</ele>
        <time>2014-06-01T10:17:11Z</time>
      </trkpt>
      <trkpt lat="42.80474" lon="0.12806">
        <ele>2847.1193569811</ele>
        <time>2014-06-01T10:17:16Z</time>
      </trkpt>
      <trkpt lat="42.80472" lon="0.12803">
        <ele>2847.1193569811</ele>
        <time>2014-06-01T10:17:26Z</time>
      </trkpt>
      <trkpt lat="42.80471" lon="0.12802">
        <ele>2847.1193569811</ele>
        <time>2014-06-01T10:17:31Z</time>
      </trkpt>
      <trkpt lat="42.80469" lon="0.12799">
        <ele>2851.4722531736</ele>
        <time>2014-06-01T10:17:51Z</time>
      </trkpt>
      <trkpt lat="42.80469" lon="0.12799">
        <ele>2851.4722531736</ele>
        <time>2014-06-01T10:17:56Z</time>
      </trkpt>
      <trkpt lat="42.80466" lon="0.12795">
        <ele>2851.4722531736</ele>
        <time>2014-06-01T10:18:11Z</time>
      </trkpt>
      <trkpt lat="42.80465" lon="0.12793">
        <ele>2851.4722531736</ele>
        <time>2014-06-01T10:18:16Z</time>
      </trkpt>
      <trkpt lat="42.80465" lon="0.1279">
        <ele>2851.4722531736</ele>
        <time>2014-06-01T10:18:22Z</time>
      </trkpt>
      <trkpt lat="42.80465" lon="0.12787">
        <ele>2855.6155296941</ele>
        <time>2014-06-01T10:18:26Z</time>
      </trkpt>
      <trkpt lat="42.80465" lon="0.12787">
        <ele>2855.6155296941</ele>
        <time>2014-06-01T10:18:31Z</time>
      </trkpt>
      <trkpt lat="42.80457" lon="0.12792">
        <ele>2859.5650368198</ele>
        <time>2014-06-01T10:20:36Z</time>
      </trkpt>
      <trkpt lat="42.80455" lon="0.12791">
        <ele>2859.5650368198</ele>
        <time>2014-06-01T10:20:42Z</time>
      </trkpt>
      <trkpt lat="42.80455" lon="0.12793">
        <ele>2859.5650368198</ele>
        <time>2014-06-01T10:29:16Z</time>
      </trkpt>
      <trkpt lat="42.80457" lon="0.12791">
        <ele>2859.5650368198</ele>
        <time>2014-06-01T10:29:22Z</time>
      </trkpt>
      <trkpt lat="42.80457" lon="0.12791">
        <ele>2859.5650368198</ele>
        <time>2014-06-01T10:29:26Z</time>
      </trkpt>
      <trkpt lat="42.80461" lon="0.1279">
        <ele>2863.1775333128</ele>
        <time>2014-06-01T10:29:41Z</time>
      </trkpt>
      <trkpt lat="42.80463" lon="0.12788">
        <ele>2863.1775333128</ele>
        <time>2014-06-01T10:29:46Z</time>
      </trkpt>
      <trkpt lat="42.80467" lon="0.12786">
        <ele>2863.1775333128</ele>
        <time>2014-06-01T10:29:51Z</time>
      </trkpt>
      <trkpt lat="42.80469" lon="0.12785">
        <ele>2866.2348224394</ele>
        <time>2014-06-01T10:29:56Z</time>
      </trkpt>
      <trkpt lat="42.80472" lon="0.12785">
        <ele>2866.2348224394</ele>
        <time>2014-06-01T10:30:01Z</time>
      </trkpt>
      <trkpt lat="42.80473" lon="0.12785">
        <ele>2866.2348224394</ele>
        <time>2014-06-01T10:30:06Z</time>
      </trkpt>
      <trkpt lat="42.80479" lon="0.12782">
        <ele>2868.8245486976</ele>
        <time>2014-06-01T10:30:16Z</time>
      </trkpt>
      <trkpt lat="42.80481" lon="0.12781">
        <ele>2868.8245486976</ele>
        <time>2014-06-01T10:30:22Z</time>
      </trkpt>
      <trkpt lat="42.80485" lon="0.12777">
        <ele>2868.8245486976</ele>
        <time>2014-06-01T10:33:21Z</time>
      </trkpt>
      <trkpt lat="42.80486" lon="0.12775">
        <ele>2870.4672149089</ele>
        <time>2014-06-01T10:33:26Z</time>
      </trkpt>
      <trkpt lat="42.80489" lon="0.12776">
        <ele>2870.4672149089</ele>
        <time>2014-06-01T10:33:36Z</time>
      </trkpt>
      <trkpt lat="42.8049" lon="0.12776">
        <ele>2870.4672149089</ele>
        <time>2014-06-01T10:33:41Z</time>
      </trkpt>
      <trkpt lat="42.80492" lon="0.12774">
        <ele>2870.4672149089</ele>
        <time>2014-06-01T10:33:51Z</time>
      </trkpt>
      <trkpt lat="42.80494" lon="0.12761">
        <ele>2871.4273493149</ele>
        <time>2014-06-01T10:35:01Z</time>
      </trkpt>
      <trkpt lat="42.80491" lon="0.12749">
        <ele>2871.2602061943</ele>
        <time>2014-06-01T10:36:36Z</time>
      </trkpt>
      <trkpt lat="42.80488" lon="0.12743">
        <ele>2871.2602061943</ele>
        <time>2014-06-01T10:37:07Z</time>
      </trkpt>
      <trkpt lat="42.80488" lon="0.12742">
        <ele>2871.2602061943</ele>
        <time>2014-06-01T10:37:11Z</time>
      </trkpt>
      <trkpt lat="42.80496" lon="0.12734">
        <ele>2869.686520648</ele>
        <time>2014-06-01T10:37:51Z</time>
      </trkpt>
      <trkpt lat="42.80496" lon="0.12734">
        <ele>2869.686520648</ele>
        <time>2014-06-01T10:37:56Z</time>
      </trkpt>
      <trkpt lat="42.80496" lon="0.12726">
        <ele>2869.686520648</ele>
        <time>2014-06-01T10:38:26Z</time>
      </trkpt>
      <trkpt lat="42.80497" lon="0.12725">
        <ele>2869.686520648</ele>
        <time>2014-06-01T10:38:31Z</time>
      </trkpt>
      <trkpt lat="42.80493" lon="0.12719">
        <ele>2866.8404999712</ele>
        <time>2014-06-01T10:40:07Z</time>
      </trkpt>
      <trkpt lat="42.80488" lon="0.12718">
        <ele>2866.8404999712</ele>
        <time>2014-06-01T10:40:26Z</time>
      </trkpt>
      <trkpt lat="42.80489" lon="0.12718">
        <ele>2866.8404999712</ele>
        <time>2014-06-01T10:40:31Z</time>
      </trkpt>
      <trkpt lat="42.80483" lon="0.1272">
        <ele>2862.0573180203</ele>
        <time>2014-06-01T10:45:11Z</time>
      </trkpt>
      <trkpt lat="42.80483" lon="0.1272">
        <ele>2862.0573180203</ele>
        <time>2014-06-01T10:45:17Z</time>
      </trkpt>
      <trkpt lat="42.80481" lon="0.12721">
        <ele>2862.0573180203</ele>
        <time>2014-06-01T10:45:21Z</time>
      </trkpt>
      <trkpt lat="42.80481" lon="0.12721">
        <ele>2862.0573180203</ele>
        <time>2014-06-01T10:46:41Z</time>
      </trkpt>
      <trkpt lat="42.8048" lon="0.12722">
        <ele>2862.0573180203</ele>
        <time>2014-06-01T10:46:46Z</time>
      </trkpt>
      <trkpt lat="42.80477" lon="0.12722">
        <ele>2862.0573180203</ele>
        <time>2014-06-01T10:46:51Z</time>
      </trkpt>
      <trkpt lat="42.80477" lon="0.12722">
        <ele>2862.0573180203</ele>
        <time>2014-06-01T10:46:55Z</time>
      </trkpt>
      <trkpt lat="42.80474" lon="0.12723">
        <ele>2856.7870270866</ele>
        <time>2014-06-01T10:47:06Z</time>
      </trkpt>
      <trkpt lat="42.80473" lon="0.12722">
        <ele>2856.7870270866</ele>
        <time>2014-06-01T10:47:10Z</time>
      </trkpt>
      <trkpt lat="42.80474" lon="0.12722">
        <ele>2856.7870270866</ele>
        <time>2014-06-01T10:47:15Z</time>
      </trkpt>
      <trkpt lat="42.80464" lon="0.12725">
        <ele>2851.1205193849</ele>
        <time>2014-06-01T10:48:12Z</time>
      </trkpt>
      <trkpt lat="42.80464" lon="0.12725">
        <ele>2851.1205193849</ele>
        <time>2014-06-01T10:48:16Z</time>
      </trkpt>
      <trkpt lat="42.80461" lon="0.12725">
        <ele>2851.1205193849</ele>
        <time>2014-06-01T10:48:26Z</time>
      </trkpt>
      <trkpt lat="42.80461" lon="0.12725">
        <ele>2851.1205193849</ele>
        <time>2014-06-01T10:48:32Z</time>
      </trkpt>
      <trkpt lat="42.80455" lon="0.12723">
        <ele>2845.142823532</ele>
        <time>2014-06-01T10:49:12Z</time>
      </trkpt>
      <trkpt lat="42.80454" lon="0.12724">
        <ele>2845.142823532</ele>
        <time>2014-06-01T10:49:17Z</time>
      </trkpt>
      <trkpt lat="42.8045" lon="0.12725">
        <ele>2845.142823532</ele>
        <time>2014-06-01T10:49:31Z</time>
      </trkpt>
      <trkpt lat="42.80448" lon="0.12726">
        <ele>2845.142823532</ele>
        <time>2014-06-01T10:49:37Z</time>
      </trkpt>
      <trkpt lat="42.80448" lon="0.12727">
        <ele>2845.142823532</ele>
        <time>2014-06-01T10:49:41Z</time>
      </trkpt>
      <trkpt lat="42.80445" lon="0.12728">
        <ele>2839.1061718106</ele>
        <time>2014-06-01T10:49:51Z</time>
      </trkpt>
      <trkpt lat="42.8044" lon="0.12729">
        <ele>2839.1061718106</ele>
        <time>2014-06-01T10:49:57Z</time>
      </trkpt>
      <trkpt lat="42.80438" lon="0.1273">
        <ele>2839.1061718106</ele>
        <time>2014-06-01T10:50:01Z</time>
      </trkpt>
      <trkpt lat="42.80437" lon="0.12731">
        <ele>2839.1061718106</ele>
        <time>2014-06-01T10:50:06Z</time>
      </trkpt>
      <trkpt lat="42.80433" lon="0.12731">
        <ele>2833.085499259</ele>
        <time>2014-06-01T10:50:11Z</time>
      </trkpt>
      <trkpt lat="42.80434" lon="0.12732">
        <ele>2833.085499259</ele>
        <time>2014-06-01T10:50:17Z</time>
      </trkpt>
      <trkpt lat="42.80433" lon="0.12733">
        <ele>2833.085499259</ele>
        <time>2014-06-01T10:50:21Z</time>
      </trkpt>
      <trkpt lat="42.8043" lon="0.12733">
        <ele>2833.085499259</ele>
        <time>2014-06-01T10:50:26Z</time>
      </trkpt>
      <trkpt lat="42.80428" lon="0.12735">
        <ele>2833.085499259</ele>
        <time>2014-06-01T10:50:31Z</time>
      </trkpt>
      <trkpt lat="42.80428" lon="0.12735">
        <ele>2833.085499259</ele>
        <time>2014-06-01T10:50:36Z</time>
      </trkpt>
      <trkpt lat="42.80424" lon="0.12735">
        <ele>2827.1209069749</ele>
        <time>2014-06-01T10:50:41Z</time>
      </trkpt>
      <trkpt lat="42.80422" lon="0.12736">
        <ele>2827.1209069749</ele>
        <time>2014-06-01T10:50:46Z</time>
      </trkpt>
      <trkpt lat="42.80423" lon="0.12738">
        <ele>2827.1209069749</ele>
        <time>2014-06-01T10:50:52Z</time>
      </trkpt>
      <trkpt lat="42.80415" lon="0.12739">
        <ele>2821.2777073276</ele>
        <time>2014-06-01T10:51:13Z</time>
      </trkpt>
      <trkpt lat="42.80412" lon="0.1274">
        <ele>2821.2777073276</ele>
        <time>2014-06-01T10:51:16Z</time>
      </trkpt>
      <trkpt lat="42.80409" lon="0.12739">
        <ele>2821.2777073276</ele>
        <time>2014-06-01T10:51:21Z</time>
      </trkpt>
      <trkpt lat="42.80407" lon="0.1274">
        <ele>2821.2777073276</ele>
        <time>2014-06-01T10:51:26Z</time>
      </trkpt>
      <trkpt lat="42.80403" lon="0.12741">
        <ele>2815.5867041364</ele>
        <time>2014-06-01T10:51:32Z</time>
      </trkpt>
      <trkpt lat="42.80399" lon="0.12741">
        <ele>2815.5867041364</ele>
        <time>2014-06-01T10:51:36Z</time>
      </trkpt>
      <trkpt lat="42.804" lon="0.12741">
        <ele>2815.5867041364</ele>
        <time>2014-06-01T10:51:41Z</time>
      </trkpt>
      <trkpt lat="42.80391" lon="0.12741">
        <ele>2810.075428958</ele>
        <time>2014-06-01T10:51:56Z</time>
      </trkpt>
      <trkpt lat="42.80388" lon="0.12741">
        <ele>2810.075428958</ele>
        <time>2014-06-01T10:52:01Z</time>
      </trkpt>
      <trkpt lat="42.80385" lon="0.1274">
        <ele>2810.075428958</ele>
        <time>2014-06-01T10:52:06Z</time>
      </trkpt>
      <trkpt lat="42.8038" lon="0.1274">
        <ele>2804.7826864835</ele>
        <time>2014-06-01T10:52:11Z</time>
      </trkpt>
      <trkpt lat="42.80377" lon="0.1274">
        <ele>2804.7826864835</ele>
        <time>2014-06-01T10:52:16Z</time>
      </trkpt>
      <trkpt lat="42.80373" lon="0.1274">
        <ele>2804.7826864835</ele>
        <time>2014-06-01T10:52:21Z</time>
      </trkpt>
      <trkpt lat="42.80372" lon="0.12739">
        <ele>2804.7826864835</ele>
        <time>2014-06-01T10:52:26Z</time>
      </trkpt>
      <trkpt lat="42.80371" lon="0.12738">
        <ele>2799.6999497786</ele>
        <time>2014-06-01T10:52:31Z</time>
      </trkpt>
      <trkpt lat="42.80368" lon="0.12736">
        <ele>2799.6999497786</ele>
        <time>2014-06-01T10:54:01Z</time>
      </trkpt>
      <trkpt lat="42.80365" lon="0.12735">
        <ele>2799.6999497786</ele>
        <time>2014-06-01T10:54:06Z</time>
      </trkpt>
      <trkpt lat="42.80363" lon="0.12734">
        <ele>2799.6999497786</ele>
        <time>2014-06-01T10:54:11Z</time>
      </trkpt>
      <trkpt lat="42.80361" lon="0.12734">
        <ele>2794.4433868508</ele>
        <time>2014-06-01T10:54:15Z</time>
      </trkpt>
      <trkpt lat="42.80358" lon="0.12733">
        <ele>2794.4433868508</ele>
        <time>2014-06-01T10:54:22Z</time>
      </trkpt>
      <trkpt lat="42.80358" lon="0.12733">
        <ele>2794.4433868508</ele>
        <time>2014-06-01T10:54:26Z</time>
      </trkpt>
      <trkpt lat="42.80357" lon="0.12734">
        <ele>2794.4433868508</ele>
        <time>2014-06-01T10:54:41Z</time>
      </trkpt>
      <trkpt lat="42.80355" lon="0.12733">
        <ele>2794.4433868508</ele>
        <time>2014-06-01T10:54:46Z</time>
      </trkpt>
      <trkpt lat="42.80352" lon="0.12733">
        <ele>2789.6371385005</ele>
        <time>2014-06-01T10:54:51Z</time>
      </trkpt>
      <trkpt lat="42.80348" lon="0.12732">
        <ele>2789.6371385005</ele>
        <time>2014-06-01T10:54:56Z</time>
      </trkpt>
      <trkpt lat="42.80344" lon="0.12731">
        <ele>2789.6371385005</ele>
        <time>2014-06-01T10:55:01Z</time>
      </trkpt>
      <trkpt lat="42.80343" lon="0.1273">
        <ele>2789.6371385005</ele>
        <time>2014-06-01T10:55:06Z</time>
      </trkpt>
      <trkpt lat="42.80344" lon="0.1273">
        <ele>2789.6371385005</ele>
        <time>2014-06-01T10:55:11Z</time>
      </trkpt>
      <trkpt lat="42.80341" lon="0.12727">
        <ele>2785.4108132419</ele>
        <time>2014-06-01T10:55:32Z</time>
      </trkpt>
      <trkpt lat="42.80338" lon="0.12727">
        <ele>2785.4108132419</ele>
        <time>2014-06-01T10:55:36Z</time>
      </trkpt>
      <trkpt lat="42.80336" lon="0.1273">
        <ele>2785.4108132419</ele>
        <time>2014-06-01T10:55:42Z</time>
      </trkpt>
      <trkpt lat="42.80335" lon="0.12733">
        <ele>2785.4108132419</ele>
        <time>2014-06-01T10:55:46Z</time>
      </trkpt>
      <trkpt lat="42.80333" lon="0.12735">
        <ele>2781.8245488224</ele>
        <time>2014-06-01T10:55:51Z</time>
      </trkpt>
      <trkpt lat="42.80333" lon="0.12735">
        <ele>2781.8245488224</ele>
        <time>2014-06-01T10:55:56Z</time>
      </trkpt>
      <trkpt lat="42.80329" lon="0.12738">
        <ele>2781.8245488224</ele>
        <time>2014-06-01T10:56:37Z</time>
      </trkpt>
      <trkpt lat="42.80326" lon="0.12741">
        <ele>2781.8245488224</ele>
        <time>2014-06-01T10:56:41Z</time>
      </trkpt>
      <trkpt lat="42.80323" lon="0.12743">
        <ele>2779.0612946584</ele>
        <time>2014-06-01T10:56:45Z</time>
      </trkpt>
      <trkpt lat="42.80319" lon="0.12746">
        <ele>2779.0612946584</ele>
        <time>2014-06-01T10:56:52Z</time>
      </trkpt>
      <trkpt lat="42.80317" lon="0.12748">
        <ele>2779.0612946584</ele>
        <time>2014-06-01T10:56:56Z</time>
      </trkpt>
      <trkpt lat="42.80317" lon="0.1275">
        <ele>2779.0612946584</ele>
        <time>2014-06-01T10:57:02Z</time>
      </trkpt>
      <trkpt lat="42.80313" lon="0.12753">
        <ele>2776.8408425324</ele>
        <time>2014-06-01T10:57:11Z</time>
      </trkpt>
      <trkpt lat="42.8031" lon="0.12755">
        <ele>2776.8408425324</ele>
        <time>2014-06-01T10:57:16Z</time>
      </trkpt>
      <trkpt lat="42.80308" lon="0.12757">
        <ele>2776.8408425324</ele>
        <time>2014-06-01T10:57:21Z</time>
      </trkpt>
      <trkpt lat="42.80308" lon="0.12756">
        <ele>2776.8408425324</ele>
        <time>2014-06-01T10:57:26Z</time>
      </trkpt>
      <trkpt lat="42.80308" lon="0.12758">
        <ele>2776.8408425324</ele>
        <time>2014-06-01T10:57:56Z</time>
      </trkpt>
      <trkpt lat="42.80305" lon="0.1276">
        <ele>2775.3625535631</ele>
        <time>2014-06-01T10:58:01Z</time>
      </trkpt>
      <trkpt lat="42.803" lon="0.12762">
        <ele>2775.3625535631</ele>
        <time>2014-06-01T10:58:06Z</time>
      </trkpt>
      <trkpt lat="42.80296" lon="0.12765">
        <ele>2774.2175816546</ele>
        <time>2014-06-01T10:58:11Z</time>
      </trkpt>
      <trkpt lat="42.80293" lon="0.12767">
        <ele>2774.2175816546</ele>
        <time>2014-06-01T10:58:16Z</time>
      </trkpt>
      <trkpt lat="42.80292" lon="0.12767">
        <ele>2774.2175816546</ele>
        <time>2014-06-01T10:58:21Z</time>
      </trkpt>
      <trkpt lat="42.80286" lon="0.1277">
        <ele>2773.3858606321</ele>
        <time>2014-06-01T10:58:26Z</time>
      </trkpt>
      <trkpt lat="42.80283" lon="0.12773">
        <ele>2773.3858606321</ele>
        <time>2014-06-01T10:58:31Z</time>
      </trkpt>
      <trkpt lat="42.80281" lon="0.12774">
        <ele>2773.3858606321</ele>
        <time>2014-06-01T10:58:36Z</time>
      </trkpt>
      <trkpt lat="42.80277" lon="0.12775">
        <ele>2772.8905879624</ele>
        <time>2014-06-01T10:58:42Z</time>
      </trkpt>
      <trkpt lat="42.80274" lon="0.12777">
        <ele>2772.8905879624</ele>
        <time>2014-06-01T10:58:46Z</time>
      </trkpt>
      <trkpt lat="42.80271" lon="0.1278">
        <ele>2772.8905879624</ele>
        <time>2014-06-01T10:58:51Z</time>
      </trkpt>
      <trkpt lat="42.80267" lon="0.12782">
        <ele>2772.6941378721</ele>
        <time>2014-06-01T10:58:56Z</time>
      </trkpt>
      <trkpt lat="42.80265" lon="0.12783">
        <ele>2772.6941378721</ele>
        <time>2014-06-01T10:59:02Z</time>
      </trkpt>
      <trkpt lat="42.80264" lon="0.12783">
        <ele>2772.6941378721</ele>
        <time>2014-06-01T10:59:06Z</time>
      </trkpt>
      <trkpt lat="42.80261" lon="0.12784">
        <ele>2772.6941378721</ele>
        <time>2014-06-01T10:59:11Z</time>
      </trkpt>
      <trkpt lat="42.80256" lon="0.12785">
        <ele>2772.7026706016</ele>
        <time>2014-06-01T10:59:16Z</time>
      </trkpt>
      <trkpt lat="42.80253" lon="0.12785">
        <ele>2772.7026706016</ele>
        <time>2014-06-01T10:59:21Z</time>
      </trkpt>
      <trkpt lat="42.80251" lon="0.12785">
        <ele>2772.7026706016</ele>
        <time>2014-06-01T10:59:26Z</time>
      </trkpt>
      <trkpt lat="42.80251" lon="0.12785">
        <ele>2772.7026706016</ele>
        <time>2014-06-01T10:59:31Z</time>
      </trkpt>
      <trkpt lat="42.80246" lon="0.12786">
        <ele>2773.0443733229</ele>
        <time>2014-06-01T10:59:41Z</time>
      </trkpt>
      <trkpt lat="42.80242" lon="0.12786">
        <ele>2773.0443733229</ele>
        <time>2014-06-01T10:59:46Z</time>
      </trkpt>
      <trkpt lat="42.8024" lon="0.12785">
        <ele>2773.0443733229</ele>
        <time>2014-06-01T10:59:51Z</time>
      </trkpt>
      <trkpt lat="42.80237" lon="0.12785">
        <ele>2773.5916726867</ele>
        <time>2014-06-01T10:59:57Z</time>
      </trkpt>
      <trkpt lat="42.80234" lon="0.12785">
        <ele>2773.5916726867</ele>
        <time>2014-06-01T11:00:01Z</time>
      </trkpt>
      <trkpt lat="42.80232" lon="0.12784">
        <ele>2773.5916726867</ele>
        <time>2014-06-01T11:00:06Z</time>
      </trkpt>
      <trkpt lat="42.80229" lon="0.12784">
        <ele>2773.5916726867</ele>
        <time>2014-06-01T11:00:11Z</time>
      </trkpt>
      <trkpt lat="42.80229" lon="0.12783">
        <ele>2773.5916726867</ele>
        <time>2014-06-01T11:00:17Z</time>
      </trkpt>
      <trkpt lat="42.80223" lon="0.12783">
        <ele>2774.5280418426</ele>
        <time>2014-06-01T11:00:36Z</time>
      </trkpt>
      <trkpt lat="42.80221" lon="0.12782">
        <ele>2774.5280418426</ele>
        <time>2014-06-01T11:00:41Z</time>
      </trkpt>
      <trkpt lat="42.80218" lon="0.12781">
        <ele>2774.5280418426</ele>
        <time>2014-06-01T11:00:46Z</time>
      </trkpt>
      <trkpt lat="42.80216" lon="0.1278">
        <ele>2774.5280418426</ele>
        <time>2014-06-01T11:00:51Z</time>
      </trkpt>
      <trkpt lat="42.80212" lon="0.12779">
        <ele>2775.7338199163</ele>
        <time>2014-06-01T11:00:56Z</time>
      </trkpt>
      <trkpt lat="42.8021" lon="0.12778">
        <ele>2775.7338199163</ele>
        <time>2014-06-01T11:01:01Z</time>
      </trkpt>
      <trkpt lat="42.80207" lon="0.12777">
        <ele>2775.7338199163</ele>
        <time>2014-06-01T11:01:06Z</time>
      </trkpt>
      <trkpt lat="42.80204" lon="0.12774">
        <ele>2777.2267779401</ele>
        <time>2014-06-01T11:01:11Z</time>
      </trkpt>
      <trkpt lat="42.80201" lon="0.12773">
        <ele>2777.2267779401</ele>
        <time>2014-06-01T11:01:16Z</time>
      </trkpt>
      <trkpt lat="42.80198" lon="0.12773">
        <ele>2777.2267779401</ele>
        <time>2014-06-01T11:01:22Z</time>
      </trkpt>
      <trkpt lat="42.80196" lon="0.12772">
        <ele>2777.2267779401</ele>
        <time>2014-06-01T11:01:26Z</time>
      </trkpt>
      <trkpt lat="42.80195" lon="0.12771">
        <ele>2779.0079023578</ele>
        <time>2014-06-01T11:01:31Z</time>
      </trkpt>
      <trkpt lat="42.80193" lon="0.12768">
        <ele>2779.0079023578</ele>
        <time>2014-06-01T11:01:36Z</time>
      </trkpt>
      <trkpt lat="42.80189" lon="0.12764">
        <ele>2779.0079023578</ele>
        <time>2014-06-01T11:01:41Z</time>
      </trkpt>
      <trkpt lat="42.80188" lon="0.12762">
        <ele>2781.1058991077</ele>
        <time>2014-06-01T11:01:46Z</time>
      </trkpt>
      <trkpt lat="42.80188" lon="0.12762">
        <ele>2781.1058991077</ele>
        <time>2014-06-01T11:01:50Z</time>
      </trkpt>
      <trkpt lat="42.80182" lon="0.12763">
        <ele>2781.1058991077</ele>
        <time>2014-06-01T11:02:21Z</time>
      </trkpt>
      <trkpt lat="42.80181" lon="0.1276">
        <ele>2781.1058991077</ele>
        <time>2014-06-01T11:02:26Z</time>
      </trkpt>
      <trkpt lat="42.80181" lon="0.12756">
        <ele>2783.5462952511</ele>
        <time>2014-06-01T11:02:31Z</time>
      </trkpt>
      <trkpt lat="42.80181" lon="0.12751">
        <ele>2783.5462952511</ele>
        <time>2014-06-01T11:02:37Z</time>
      </trkpt>
      <trkpt lat="42.80181" lon="0.12748">
        <ele>2783.5462952511</ele>
        <time>2014-06-01T11:02:41Z</time>
      </trkpt>
      <trkpt lat="42.8018" lon="0.12742">
        <ele>2786.1498857036</ele>
        <time>2014-06-01T11:02:51Z</time>
      </trkpt>
      <trkpt lat="42.8018" lon="0.12739">
        <ele>2786.1498857036</ele>
        <time>2014-06-01T11:02:56Z</time>
      </trkpt>
      <trkpt lat="42.80181" lon="0.1273">
        <ele>2786.1498857036</ele>
        <time>2014-06-01T11:03:01Z</time>
      </trkpt>
      <trkpt lat="42.80179" lon="0.12733">
        <ele>2789.0382936667</ele>
        <time>2014-06-01T11:03:06Z</time>
      </trkpt>
      <trkpt lat="42.80179" lon="0.12734">
        <ele>2789.0382936667</ele>
        <time>2014-06-01T11:03:11Z</time>
      </trkpt>
      <trkpt lat="42.80177" lon="0.12735">
        <ele>2789.0382936667</ele>
        <time>2014-06-01T11:03:37Z</time>
      </trkpt>
      <trkpt lat="42.80174" lon="0.12737">
        <ele>2789.0382936667</ele>
        <time>2014-06-01T11:03:41Z</time>
      </trkpt>
      <trkpt lat="42.80174" lon="0.12737">
        <ele>2789.0382936667</ele>
        <time>2014-06-01T11:03:47Z</time>
      </trkpt>
      <trkpt lat="42.8017" lon="0.12739">
        <ele>2792.3809929994</ele>
        <time>2014-06-01T11:03:57Z</time>
      </trkpt>
      <trkpt lat="42.80167" lon="0.12741">
        <ele>2792.3809929994</ele>
        <time>2014-06-01T11:04:01Z</time>
      </trkpt>
      <trkpt lat="42.80165" lon="0.12744">
        <ele>2792.3809929994</ele>
        <time>2014-06-01T11:04:06Z</time>
      </trkpt>
      <trkpt lat="42.80162" lon="0.12746">
        <ele>2792.3809929994</ele>
        <time>2014-06-01T11:04:10Z</time>
      </trkpt>
      <trkpt lat="42.80161" lon="0.12747">
        <ele>2795.8581458374</ele>
        <time>2014-06-01T11:04:16Z</time>
      </trkpt>
      <trkpt lat="42.80159" lon="0.12749">
        <ele>2795.8581458374</ele>
        <time>2014-06-01T11:04:21Z</time>
      </trkpt>
      <trkpt lat="42.80158" lon="0.12749">
        <ele>2795.8581458374</ele>
        <time>2014-06-01T11:04:25Z</time>
      </trkpt>
      <trkpt lat="42.80154" lon="0.12752">
        <ele>2795.8581458374</ele>
        <time>2014-06-01T11:04:31Z</time>
      </trkpt>
      <trkpt lat="42.80154" lon="0.12752">
        <ele>2795.8581458374</ele>
        <time>2014-06-01T11:04:36Z</time>
      </trkpt>
      <trkpt lat="42.8015" lon="0.12758">
        <ele>2799.9800732892</ele>
        <time>2014-06-01T11:05:16Z</time>
      </trkpt>
      <trkpt lat="42.8015" lon="0.1276">
        <ele>2799.9800732892</ele>
        <time>2014-06-01T11:05:21Z</time>
      </trkpt>
      <trkpt lat="42.8015" lon="0.12763">
        <ele>2799.9800732892</ele>
        <time>2014-06-01T11:05:26Z</time>
      </trkpt>
      <trkpt lat="42.80149" lon="0.12766">
        <ele>2799.9800732892</ele>
        <time>2014-06-01T11:05:31Z</time>
      </trkpt>
      <trkpt lat="42.80148" lon="0.12768">
        <ele>2799.9800732892</ele>
        <time>2014-06-01T11:05:36Z</time>
      </trkpt>
      <trkpt lat="42.80148" lon="0.12773">
        <ele>2804.4684797703</ele>
        <time>2014-06-01T11:05:46Z</time>
      </trkpt>
      <trkpt lat="42.80147" lon="0.12776">
        <ele>2804.4684797703</ele>
        <time>2014-06-01T11:05:51Z</time>
      </trkpt>
      <trkpt lat="42.80146" lon="0.12778">
        <ele>2804.4684797703</ele>
        <time>2014-06-01T11:05:56Z</time>
      </trkpt>
      <trkpt lat="42.80145" lon="0.12779">
        <ele>2804.4684797703</ele>
        <time>2014-06-01T11:06:37Z</time>
      </trkpt>
      <trkpt lat="42.80145" lon="0.12778">
        <ele>2804.4684797703</ele>
        <time>2014-06-01T11:06:41Z</time>
      </trkpt>
      <trkpt lat="42.8014" lon="0.12776">
        <ele>2809.2663382974</ele>
        <time>2014-06-01T11:06:51Z</time>
      </trkpt>
      <trkpt lat="42.80138" lon="0.12773">
        <ele>2809.2663382974</ele>
        <time>2014-06-01T11:06:56Z</time>
      </trkpt>
      <trkpt lat="42.80131" lon="0.1277">
        <ele>2813.7724565317</ele>
        <time>2014-06-01T11:07:01Z</time>
      </trkpt>
      <trkpt lat="42.80129" lon="0.12767">
        <ele>2813.7724565317</ele>
        <time>2014-06-01T11:07:07Z</time>
      </trkpt>
      <trkpt lat="42.8013" lon="0.12766">
        <ele>2813.7724565317</ele>
        <time>2014-06-01T11:07:11Z</time>
      </trkpt>
      <trkpt lat="42.80128" lon="0.12765">
        <ele>2813.7724565317</ele>
        <time>2014-06-01T11:07:16Z</time>
      </trkpt>
      <trkpt lat="42.80125" lon="0.12759">
        <ele>2818.2666414503</ele>
        <time>2014-06-01T11:07:21Z</time>
      </trkpt>
      <trkpt lat="42.80123" lon="0.12756">
        <ele>2818.2666414503</ele>
        <time>2014-06-01T11:07:26Z</time>
      </trkpt>
      <trkpt lat="42.8012" lon="0.12753">
        <ele>2818.2666414503</ele>
        <time>2014-06-01T11:07:31Z</time>
      </trkpt>
      <trkpt lat="42.80117" lon="0.1275">
        <ele>2822.6625190235</ele>
        <time>2014-06-01T11:07:37Z</time>
      </trkpt>
      <trkpt lat="42.80117" lon="0.1275">
        <ele>2822.6625190235</ele>
        <time>2014-06-01T11:07:41Z</time>
      </trkpt>
      <trkpt lat="42.80117" lon="0.1275">
        <ele>2822.6625190235</ele>
        <time>2014-06-01T11:07:47Z</time>
      </trkpt>
      <trkpt lat="42.80118" lon="0.1275">
        <ele>2822.6625190235</ele>
        <time>2014-06-01T11:07:59Z</time>
      </trkpt>
      <trkpt lat="42.80112" lon="0.12751">
        <ele>2822.6625190235</ele>
        <time>2014-06-01T11:08:06Z</time>
      </trkpt>
      <trkpt lat="42.80109" lon="0.12752">
        <ele>2827.2264402021</ele>
        <time>2014-06-01T11:08:11Z</time>
      </trkpt>
      <trkpt lat="42.80104" lon="0.12752">
        <ele>2827.2264402021</ele>
        <time>2014-06-01T11:08:16Z</time>
      </trkpt>
      <trkpt lat="42.80103" lon="0.12752">
        <ele>2827.2264402021</ele>
        <time>2014-06-01T11:08:22Z</time>
      </trkpt>
      <trkpt lat="42.80103" lon="0.12752">
        <ele>2827.2264402021</ele>
        <time>2014-06-01T11:08:27Z</time>
      </trkpt>
      <trkpt lat="42.801" lon="0.12752">
        <ele>2832.0176390231</ele>
        <time>2014-06-01T11:08:57Z</time>
      </trkpt>
      <trkpt lat="42.80096" lon="0.12752">
        <ele>2832.0176390231</ele>
        <time>2014-06-01T11:09:01Z</time>
      </trkpt>
      <trkpt lat="42.80092" lon="0.12751">
        <ele>2832.0176390231</ele>
        <time>2014-06-01T11:09:06Z</time>
      </trkpt>
      <trkpt lat="42.80089" lon="0.12752">
        <ele>2836.6294947176</ele>
        <time>2014-06-01T11:09:11Z</time>
      </trkpt>
      <trkpt lat="42.80086" lon="0.12754">
        <ele>2836.6294947176</ele>
        <time>2014-06-01T11:09:16Z</time>
      </trkpt>
      <trkpt lat="42.80083" lon="0.12754">
        <ele>2836.6294947176</ele>
        <time>2014-06-01T11:09:22Z</time>
      </trkpt>
      <trkpt lat="42.80079" lon="0.12755">
        <ele>2841.1328164479</ele>
        <time>2014-06-01T11:09:26Z</time>
      </trkpt>
      <trkpt lat="42.80076" lon="0.12755">
        <ele>2841.1328164479</ele>
        <time>2014-06-01T11:09:31Z</time>
      </trkpt>
      <trkpt lat="42.80074" lon="0.12755">
        <ele>2841.1328164479</ele>
        <time>2014-06-01T11:09:36Z</time>
      </trkpt>
      <trkpt lat="42.8007" lon="0.12755">
        <ele>2845.5217923479</ele>
        <time>2014-06-01T11:09:42Z</time>
      </trkpt>
      <trkpt lat="42.80071" lon="0.12756">
        <ele>2845.5217923479</ele>
        <time>2014-06-01T11:09:47Z</time>
      </trkpt>
      <trkpt lat="42.80071" lon="0.12756">
        <ele>2845.5217923479</ele>
        <time>2014-06-01T11:09:51Z</time>
      </trkpt>
      <trkpt lat="42.80069" lon="0.12756">
        <ele>2845.5217923479</ele>
        <time>2014-06-01T11:10:01Z</time>
      </trkpt>
      <trkpt lat="42.80066" lon="0.12756">
        <ele>2845.5217923479</ele>
        <time>2014-06-01T11:10:06Z</time>
      </trkpt>
      <trkpt lat="42.80061" lon="0.12756">
        <ele>2849.8061175588</ele>
        <time>2014-06-01T11:10:11Z</time>
      </trkpt>
      <trkpt lat="42.80058" lon="0.12757">
        <ele>2849.8061175588</ele>
        <time>2014-06-01T11:10:16Z</time>
      </trkpt>
      <trkpt lat="42.80054" lon="0.12758">
        <ele>2849.8061175588</ele>
        <time>2014-06-01T11:10:21Z</time>
      </trkpt>
      <trkpt lat="42.80051" lon="0.12759">
        <ele>2853.8224962618</ele>
        <time>2014-06-01T11:10:26Z</time>
      </trkpt>
      <trkpt lat="42.80048" lon="0.12759">
        <ele>2853.8224962618</ele>
        <time>2014-06-01T11:10:31Z</time>
      </trkpt>
      <trkpt lat="42.80047" lon="0.12759">
        <ele>2853.8224962618</ele>
        <time>2014-06-01T11:10:36Z</time>
      </trkpt>
      <trkpt lat="42.80047" lon="0.12759">
        <ele>2853.8224962618</ele>
        <time>2014-06-01T11:10:42Z</time>
      </trkpt>
      <trkpt lat="42.80046" lon="0.12762">
        <ele>2853.8224962618</ele>
        <time>2014-06-01T11:11:06Z</time>
      </trkpt>
      <trkpt lat="42.80042" lon="0.12762">
        <ele>2857.665739526</ele>
        <time>2014-06-01T11:11:11Z</time>
      </trkpt>
      <trkpt lat="42.80037" lon="0.12762">
        <ele>2857.665739526</ele>
        <time>2014-06-01T11:11:17Z</time>
      </trkpt>
      <trkpt lat="42.80034" lon="0.12763">
        <ele>2857.665739526</ele>
        <time>2014-06-01T11:11:21Z</time>
      </trkpt>
      <trkpt lat="42.8003" lon="0.12763">
        <ele>2861.2372115414</ele>
        <time>2014-06-01T11:11:26Z</time>
      </trkpt>
      <trkpt lat="42.80028" lon="0.12763">
        <ele>2861.2372115414</ele>
        <time>2014-06-01T11:11:31Z</time>
      </trkpt>
      <trkpt lat="42.80025" lon="0.12762">
        <ele>2861.2372115414</ele>
        <time>2014-06-01T11:11:36Z</time>
      </trkpt>
      <trkpt lat="42.80022" lon="0.12763">
        <ele>2861.2372115414</ele>
        <time>2014-06-01T11:11:42Z</time>
      </trkpt>
      <trkpt lat="42.8002" lon="0.12764">
        <ele>2864.5763640637</ele>
        <time>2014-06-01T11:11:46Z</time>
      </trkpt>
      <trkpt lat="42.80017" lon="0.12764">
        <ele>2864.5763640637</ele>
        <time>2014-06-01T11:11:51Z</time>
      </trkpt>
      <trkpt lat="42.80014" lon="0.12764">
        <ele>2864.5763640637</ele>
        <time>2014-06-01T11:11:56Z</time>
      </trkpt>
      <trkpt lat="42.80011" lon="0.12765">
        <ele>2867.7351924112</ele>
        <time>2014-06-01T11:12:01Z</time>
      </trkpt>
      <trkpt lat="42.80011" lon="0.12765">
        <ele>2867.7351924112</ele>
        <time>2014-06-01T11:12:07Z</time>
      </trkpt>
      <trkpt lat="42.80007" lon="0.12764">
        <ele>2867.7351924112</ele>
        <time>2014-06-01T11:12:22Z</time>
      </trkpt>
      <trkpt lat="42.80002" lon="0.12763">
        <ele>2867.7351924112</ele>
        <time>2014-06-01T11:12:26Z</time>
      </trkpt>
      <trkpt lat="42.80001" lon="0.12763">
        <ele>2870.7195202255</ele>
        <time>2014-06-01T11:12:31Z</time>
      </trkpt>
      <trkpt lat="42.79997" lon="0.12764">
        <ele>2870.7195202255</ele>
        <time>2014-06-01T11:12:36Z</time>
      </trkpt>
      <trkpt lat="42.79995" lon="0.12763">
        <ele>2870.7195202255</ele>
        <time>2014-06-01T11:12:42Z</time>
      </trkpt>
      <trkpt lat="42.79991" lon="0.12763">
        <ele>2873.4491353087</ele>
        <time>2014-06-01T11:12:46Z</time>
      </trkpt>
      <trkpt lat="42.79992" lon="0.12763">
        <ele>2873.4491353087</ele>
        <time>2014-06-01T11:12:51Z</time>
      </trkpt>
      <trkpt lat="42.79988" lon="0.12763">
        <ele>2873.4491353087</ele>
        <time>2014-06-01T11:13:21Z</time>
      </trkpt>
      <trkpt lat="42.79985" lon="0.12762">
        <ele>2873.4491353087</ele>
        <time>2014-06-01T11:13:26Z</time>
      </trkpt>
      <trkpt lat="42.79982" lon="0.12764">
        <ele>2876.0525486598</ele>
        <time>2014-06-01T11:13:31Z</time>
      </trkpt>
      <trkpt lat="42.7998" lon="0.12764">
        <ele>2876.0525486598</ele>
        <time>2014-06-01T11:13:36Z</time>
      </trkpt>
      <trkpt lat="42.79977" lon="0.12765">
        <ele>2876.0525486598</ele>
        <time>2014-06-01T11:13:41Z</time>
      </trkpt>
      <trkpt lat="42.79972" lon="0.12765">
        <ele>2878.4333683204</ele>
        <time>2014-06-01T11:13:47Z</time>
      </trkpt>
      <trkpt lat="42.7997" lon="0.12766">
        <ele>2878.4333683204</ele>
        <time>2014-06-01T11:13:51Z</time>
      </trkpt>
      <trkpt lat="42.79967" lon="0.12767">
        <ele>2878.4333683204</ele>
        <time>2014-06-01T11:13:56Z</time>
      </trkpt>
      <trkpt lat="42.79963" lon="0.12766">
        <ele>2880.6329453718</ele>
        <time>2014-06-01T11:14:02Z</time>
      </trkpt>
      <trkpt lat="42.7996" lon="0.12766">
        <ele>2880.6329453718</ele>
        <time>2014-06-01T11:14:06Z</time>
      </trkpt>
      <trkpt lat="42.79956" lon="0.12768">
        <ele>2880.6329453718</ele>
        <time>2014-06-01T11:14:11Z</time>
      </trkpt>
      <trkpt lat="42.79953" lon="0.12768">
        <ele>2882.719247578</ele>
        <time>2014-06-01T11:14:16Z</time>
      </trkpt>
      <trkpt lat="42.79951" lon="0.12767">
        <ele>2882.719247578</ele>
        <time>2014-06-01T11:14:22Z</time>
      </trkpt>
      <trkpt lat="42.79951" lon="0.12767">
        <ele>2882.719247578</ele>
        <time>2014-06-01T11:14:26Z</time>
      </trkpt>
      <trkpt lat="42.79953" lon="0.12769">
        <ele>2882.719247578</ele>
        <time>2014-06-01T11:15:11Z</time>
      </trkpt>
      <trkpt lat="42.79949" lon="0.12769">
        <ele>2882.719247578</ele>
        <time>2014-06-01T11:15:16Z</time>
      </trkpt>
      <trkpt lat="42.79944" lon="0.12769">
        <ele>2884.9432209252</ele>
        <time>2014-06-01T11:15:22Z</time>
      </trkpt>
      <trkpt lat="42.79941" lon="0.12769">
        <ele>2884.9432209252</ele>
        <time>2014-06-01T11:15:26Z</time>
      </trkpt>
      <trkpt lat="42.79938" lon="0.12769">
        <ele>2884.9432209252</ele>
        <time>2014-06-01T11:15:31Z</time>
      </trkpt>
      <trkpt lat="42.79937" lon="0.1277">
        <ele>2884.9432209252</ele>
        <time>2014-06-01T11:15:36Z</time>
      </trkpt>
      <trkpt lat="42.79934" lon="0.1277">
        <ele>2887.3931735379</ele>
        <time>2014-06-01T11:15:41Z</time>
      </trkpt>
      <trkpt lat="42.79931" lon="0.12771">
        <ele>2887.3931735379</ele>
        <time>2014-06-01T11:15:46Z</time>
      </trkpt>
      <trkpt lat="42.79931" lon="0.12771">
        <ele>2887.3931735379</ele>
        <time>2014-06-01T11:15:50Z</time>
      </trkpt>
      <trkpt lat="42.79928" lon="0.12773">
        <ele>2887.3931735379</ele>
        <time>2014-06-01T11:16:31Z</time>
      </trkpt>
      <trkpt lat="42.79924" lon="0.12775">
        <ele>2889.7038269529</ele>
        <time>2014-06-01T11:16:36Z</time>
      </trkpt>
      <trkpt lat="42.79919" lon="0.12775">
        <ele>2889.7038269529</ele>
        <time>2014-06-01T11:16:42Z</time>
      </trkpt>
      <trkpt lat="42.79918" lon="0.12776">
        <ele>2889.7038269529</ele>
        <time>2014-06-01T11:16:46Z</time>
      </trkpt>
      <trkpt lat="42.79917" lon="0.12777">
        <ele>2889.7038269529</ele>
        <time>2014-06-01T11:16:52Z</time>
      </trkpt>
      <trkpt lat="42.79914" lon="0.12778">
        <ele>2891.8544357985</ele>
        <time>2014-06-01T11:16:56Z</time>
      </trkpt>
      <trkpt lat="42.7991" lon="0.12779">
        <ele>2891.8544357985</ele>
        <time>2014-06-01T11:17:02Z</time>
      </trkpt>
      <trkpt lat="42.79906" lon="0.12779">
        <ele>2891.8544357985</ele>
        <time>2014-06-01T11:17:06Z</time>
      </trkpt>
      <trkpt lat="42.79902" lon="0.12779">
        <ele>2893.8120667888</ele>
        <time>2014-06-01T11:17:12Z</time>
      </trkpt>
      <trkpt lat="42.79901" lon="0.12779">
        <ele>2893.8120667888</ele>
        <time>2014-06-01T11:17:16Z</time>
      </trkpt>
      <trkpt lat="42.79901" lon="0.12779">
        <ele>2893.8120667888</ele>
        <time>2014-06-01T11:17:21Z</time>
      </trkpt>
      <trkpt lat="42.79898" lon="0.12781">
        <ele>2893.8120667888</ele>
        <time>2014-06-01T11:17:42Z</time>
      </trkpt>
      <trkpt lat="42.79895" lon="0.1278">
        <ele>2893.8120667888</ele>
        <time>2014-06-01T11:17:46Z</time>
      </trkpt>
      <trkpt lat="42.79893" lon="0.12781">
        <ele>2895.8352054457</ele>
        <time>2014-06-01T11:17:51Z</time>
      </trkpt>
      <trkpt lat="42.7989" lon="0.12781">
        <ele>2895.8352054457</ele>
        <time>2014-06-01T11:17:56Z</time>
      </trkpt>
      <trkpt lat="42.79885" lon="0.1278">
        <ele>2895.8352054457</ele>
        <time>2014-06-01T11:18:02Z</time>
      </trkpt>
      <trkpt lat="42.79883" lon="0.1278">
        <ele>2897.5581188996</ele>
        <time>2014-06-01T11:18:06Z</time>
      </trkpt>
      <trkpt lat="42.79881" lon="0.1278">
        <ele>2897.5581188996</ele>
        <time>2014-06-01T11:18:11Z</time>
      </trkpt>
      <trkpt lat="42.79875" lon="0.1278">
        <ele>2897.5581188996</ele>
        <time>2014-06-01T11:18:15Z</time>
      </trkpt>
      <trkpt lat="42.79874" lon="0.1278">
        <ele>2897.5581188996</ele>
        <time>2014-06-01T11:18:22Z</time>
      </trkpt>
      <trkpt lat="42.79873" lon="0.1278">
        <ele>2899.1329654535</ele>
        <time>2014-06-01T11:18:41Z</time>
      </trkpt>
      <trkpt lat="42.7987" lon="0.12779">
        <ele>2899.1329654535</ele>
        <time>2014-06-01T11:18:46Z</time>
      </trkpt>
      <trkpt lat="42.79868" lon="0.12779">
        <ele>2899.1329654535</ele>
        <time>2014-06-01T11:18:52Z</time>
      </trkpt>
      <trkpt lat="42.79867" lon="0.12778">
        <ele>2899.1329654535</ele>
        <time>2014-06-01T11:18:56Z</time>
      </trkpt>
      <trkpt lat="42.79864" lon="0.12779">
        <ele>2899.1329654535</ele>
        <time>2014-06-01T11:19:01Z</time>
      </trkpt>
      <trkpt lat="42.7986" lon="0.12779">
        <ele>2900.6436848567</ele>
        <time>2014-06-01T11:19:07Z</time>
      </trkpt>
      <trkpt lat="42.79856" lon="0.12778">
        <ele>2900.6436848567</ele>
        <time>2014-06-01T11:19:11Z</time>
      </trkpt>
      <trkpt lat="42.79853" lon="0.12778">
        <ele>2900.6436848567</ele>
        <time>2014-06-01T11:19:16Z</time>
      </trkpt>
      <trkpt lat="42.79852" lon="0.12778">
        <ele>2900.6436848567</ele>
        <time>2014-06-01T11:19:21Z</time>
      </trkpt>
      <trkpt lat="42.79847" lon="0.12777">
        <ele>2902.1828130788</ele>
        <time>2014-06-01T11:19:27Z</time>
      </trkpt>
      <trkpt lat="42.79846" lon="0.12776">
        <ele>2902.1828130788</ele>
        <time>2014-06-01T11:19:31Z</time>
      </trkpt>
      <trkpt lat="42.79845" lon="0.12775">
        <ele>2902.1828130788</ele>
        <time>2014-06-01T11:19:36Z</time>
      </trkpt>
      <trkpt lat="42.79845" lon="0.12775">
        <ele>2902.1828130788</ele>
        <time>2014-06-01T11:19:42Z</time>
      </trkpt>
      <trkpt lat="42.79842" lon="0.12776">
        <ele>2902.1828130788</ele>
        <time>2014-06-01T11:20:16Z</time>
      </trkpt>
      <trkpt lat="42.79838" lon="0.12775">
        <ele>2903.6632299523</ele>
        <time>2014-06-01T11:20:20Z</time>
      </trkpt>
      <trkpt lat="42.79834" lon="0.12773">
        <ele>2903.6632299523</ele>
        <time>2014-06-01T11:20:26Z</time>
      </trkpt>
      <trkpt lat="42.79831" lon="0.12773">
        <ele>2903.6632299523</ele>
        <time>2014-06-01T11:20:31Z</time>
      </trkpt>
      <trkpt lat="42.79827" lon="0.12772">
        <ele>2905.0765735553</ele>
        <time>2014-06-01T11:20:35Z</time>
      </trkpt>
      <trkpt lat="42.79823" lon="0.12772">
        <ele>2905.0765735553</ele>
        <time>2014-06-01T11:20:42Z</time>
      </trkpt>
      <trkpt lat="42.79821" lon="0.12771">
        <ele>2905.0765735553</ele>
        <time>2014-06-01T11:20:46Z</time>
      </trkpt>
      <trkpt lat="42.79816" lon="0.1277">
        <ele>2906.4730511508</ele>
        <time>2014-06-01T11:20:51Z</time>
      </trkpt>
      <trkpt lat="42.79814" lon="0.12768">
        <ele>2906.4730511508</ele>
        <time>2014-06-01T11:20:56Z</time>
      </trkpt>
      <trkpt lat="42.79811" lon="0.12766">
        <ele>2906.4730511508</ele>
        <time>2014-06-01T11:21:02Z</time>
      </trkpt>
      <trkpt lat="42.79809" lon="0.12765">
        <ele>2906.4730511508</ele>
        <time>2014-06-01T11:21:06Z</time>
      </trkpt>
      <trkpt lat="42.79806" lon="0.12764">
        <ele>2907.8416916343</ele>
        <time>2014-06-01T11:21:11Z</time>
      </trkpt>
      <trkpt lat="42.79804" lon="0.12762">
        <ele>2907.8416916343</ele>
        <time>2014-06-01T11:21:16Z</time>
      </trkpt>
      <trkpt lat="42.798" lon="0.12759">
        <ele>2907.8416916343</ele>
        <time>2014-06-01T11:21:21Z</time>
      </trkpt>
      <trkpt lat="42.79798" lon="0.12756">
        <ele>2909.0860332317</ele>
        <time>2014-06-01T11:21:27Z</time>
      </trkpt>
      <trkpt lat="42.79795" lon="0.12753">
        <ele>2909.0860332317</ele>
        <time>2014-06-01T11:21:31Z</time>
      </trkpt>
      <trkpt lat="42.79791" lon="0.12751">
        <ele>2909.0860332317</ele>
        <time>2014-06-01T11:21:36Z</time>
      </trkpt>
      <trkpt lat="42.79788" lon="0.12751">
        <ele>2910.2612374855</ele>
        <time>2014-06-01T11:21:42Z</time>
      </trkpt>
      <trkpt lat="42.79786" lon="0.12752">
        <ele>2910.2612374855</ele>
        <time>2014-06-01T11:21:46Z</time>
      </trkpt>
      <trkpt lat="42.79783" lon="0.12748">
        <ele>2910.2612374855</ele>
        <time>2014-06-01T11:22:02Z</time>
      </trkpt>
      <trkpt lat="42.79783" lon="0.12747">
        <ele>2910.2612374855</ele>
        <time>2014-06-01T11:22:06Z</time>
      </trkpt>
      <trkpt lat="42.7978" lon="0.12742">
        <ele>2911.447493309</ele>
        <time>2014-06-01T11:22:15Z</time>
      </trkpt>
      <trkpt lat="42.79778" lon="0.12739">
        <ele>2911.447493309</ele>
        <time>2014-06-01T11:22:22Z</time>
      </trkpt>
      <trkpt lat="42.79774" lon="0.12736">
        <ele>2911.447493309</ele>
        <time>2014-06-01T11:22:26Z</time>
      </trkpt>
      <trkpt lat="42.79771" lon="0.12734">
        <ele>2912.4741284051</ele>
        <time>2014-06-01T11:22:31Z</time>
      </trkpt>
      <trkpt lat="42.7977" lon="0.12733">
        <ele>2912.4741284051</ele>
        <time>2014-06-01T11:22:36Z</time>
      </trkpt>
      <trkpt lat="42.79771" lon="0.12733">
        <ele>2912.4741284051</ele>
        <time>2014-06-01T11:22:41Z</time>
      </trkpt>
      <trkpt lat="42.7977" lon="0.1273">
        <ele>2912.4741284051</ele>
        <time>2014-06-01T11:23:02Z</time>
      </trkpt>
      <trkpt lat="42.79768" lon="0.12729">
        <ele>2912.4741284051</ele>
        <time>2014-06-01T11:23:06Z</time>
      </trkpt>
      <trkpt lat="42.79765" lon="0.12727">
        <ele>2913.4861250756</ele>
        <time>2014-06-01T11:23:11Z</time>
      </trkpt>
      <trkpt lat="42.79762" lon="0.12727">
        <ele>2913.4861250756</ele>
        <time>2014-06-01T11:23:16Z</time>
      </trkpt>
      <trkpt lat="42.79761" lon="0.12727">
        <ele>2913.4861250756</ele>
        <time>2014-06-01T11:23:21Z</time>
      </trkpt>
      <trkpt lat="42.79758" lon="0.1272">
        <ele>2915.1078582543</ele>
        <time>2014-06-01T11:27:16Z</time>
      </trkpt>
      <trkpt lat="42.79755" lon="0.12718">
        <ele>2915.1078582543</ele>
        <time>2014-06-01T11:27:21Z</time>
      </trkpt>
      <trkpt lat="42.79751" lon="0.12714">
        <ele>2915.1078582543</ele>
        <time>2014-06-01T11:27:26Z</time>
      </trkpt>
      <trkpt lat="42.79748" lon="0.12712">
        <ele>2916.5182607621</ele>
        <time>2014-06-01T11:27:31Z</time>
      </trkpt>
      <trkpt lat="42.79745" lon="0.12712">
        <ele>2916.5182607621</ele>
        <time>2014-06-01T11:27:36Z</time>
      </trkpt>
      <trkpt lat="42.79742" lon="0.12713">
        <ele>2916.5182607621</ele>
        <time>2014-06-01T11:27:41Z</time>
      </trkpt>
      <trkpt lat="42.79739" lon="0.12718">
        <ele>2917.8938993264</ele>
        <time>2014-06-01T11:27:47Z</time>
      </trkpt>
      <trkpt lat="42.79737" lon="0.12723">
        <ele>2917.8938993264</ele>
        <time>2014-06-01T11:27:52Z</time>
      </trkpt>
      <trkpt lat="42.79736" lon="0.12728">
        <ele>2917.8938993264</ele>
        <time>2014-06-01T11:27:56Z</time>
      </trkpt>
      <trkpt lat="42.79735" lon="0.12731">
        <ele>2919.211118348</ele>
        <time>2014-06-01T11:28:01Z</time>
      </trkpt>
      <trkpt lat="42.79735" lon="0.12732">
        <ele>2919.211118348</ele>
        <time>2014-06-01T11:28:07Z</time>
      </trkpt>
      <trkpt lat="42.79735" lon="0.12736">
        <ele>2919.211118348</ele>
        <time>2014-06-01T11:28:22Z</time>
      </trkpt>
      <trkpt lat="42.79736" lon="0.12738">
        <ele>2919.211118348</ele>
        <time>2014-06-01T11:28:26Z</time>
      </trkpt>
      <trkpt lat="42.79734" lon="0.12739">
        <ele>2919.211118348</ele>
        <time>2014-06-01T11:28:46Z</time>
      </trkpt>
      <trkpt lat="42.79729" lon="0.12742">
        <ele>2920.6787298073</ele>
        <time>2014-06-01T11:28:52Z</time>
      </trkpt>
      <trkpt lat="42.79726" lon="0.12741">
        <ele>2920.6787298073</ele>
        <time>2014-06-01T11:28:56Z</time>
      </trkpt>
      <trkpt lat="42.79723" lon="0.12742">
        <ele>2920.6787298073</ele>
        <time>2014-06-01T11:29:01Z</time>
      </trkpt>
      <trkpt lat="42.7972" lon="0.12743">
        <ele>2922.1006657035</ele>
        <time>2014-06-01T11:29:07Z</time>
      </trkpt>
      <trkpt lat="42.79717" lon="0.12745">
        <ele>2922.1006657035</ele>
        <time>2014-06-01T11:29:11Z</time>
      </trkpt>
      <trkpt lat="42.79714" lon="0.12746">
        <ele>2922.1006657035</ele>
        <time>2014-06-01T11:29:16Z</time>
      </trkpt>
      <trkpt lat="42.79712" lon="0.12747">
        <ele>2922.1006657035</ele>
        <time>2014-06-01T11:29:21Z</time>
      </trkpt>
      <trkpt lat="42.7971" lon="0.12751">
        <ele>2923.5979978892</ele>
        <time>2014-06-01T11:29:56Z</time>
      </trkpt>
      <trkpt lat="42.79706" lon="0.12753">
        <ele>2923.5979978892</ele>
        <time>2014-06-01T11:30:01Z</time>
      </trkpt>
      <trkpt lat="42.79703" lon="0.12755">
        <ele>2923.5979978892</ele>
        <time>2014-06-01T11:30:06Z</time>
      </trkpt>
      <trkpt lat="42.797" lon="0.12759">
        <ele>2924.9944402857</ele>
        <time>2014-06-01T11:30:11Z</time>
      </trkpt>
      <trkpt lat="42.79697" lon="0.12762">
        <ele>2924.9944402857</ele>
        <time>2014-06-01T11:30:16Z</time>
      </trkpt>
      <trkpt lat="42.79699" lon="0.12763">
        <ele>2924.9944402857</ele>
        <time>2014-06-01T11:30:21Z</time>
      </trkpt>
      <trkpt lat="42.79702" lon="0.12766">
        <ele>2926.3718936274</ele>
        <time>2014-06-01T11:30:26Z</time>
      </trkpt>
      <trkpt lat="42.79704" lon="0.12768">
        <ele>2926.3718936274</ele>
        <time>2014-06-01T11:30:31Z</time>
      </trkpt>
      <trkpt lat="42.79707" lon="0.12771">
        <ele>2926.3718936274</ele>
        <time>2014-06-01T11:30:36Z</time>
      </trkpt>
      <trkpt lat="42.79709" lon="0.12774">
        <ele>2927.7053780651</ele>
        <time>2014-06-01T11:30:40Z</time>
      </trkpt>
      <trkpt lat="42.7971" lon="0.12776">
        <ele>2927.7053780651</ele>
        <time>2014-06-01T11:30:47Z</time>
      </trkpt>
      <trkpt lat="42.79711" lon="0.12776">
        <ele>2927.7053780651</ele>
        <time>2014-06-01T11:30:51Z</time>
      </trkpt>
      <trkpt lat="42.79713" lon="0.1278">
        <ele>2927.7053780651</ele>
        <time>2014-06-01T11:31:26Z</time>
      </trkpt>
      <trkpt lat="42.79715" lon="0.12785">
        <ele>2929.0006502924</ele>
        <time>2014-06-01T11:31:32Z</time>
      </trkpt>
      <trkpt lat="42.79717" lon="0.12788">
        <ele>2929.0006502924</ele>
        <time>2014-06-01T11:31:36Z</time>
      </trkpt>
      <trkpt lat="42.79719" lon="0.12791">
        <ele>2929.0006502924</ele>
        <time>2014-06-01T11:31:41Z</time>
      </trkpt>
      <trkpt lat="42.79719" lon="0.12792">
        <ele>2929.0006502924</ele>
        <time>2014-06-01T11:31:46Z</time>
      </trkpt>
      <trkpt lat="42.79723" lon="0.128">
        <ele>2930.7819040866</ele>
        <time>2014-06-01T11:33:16Z</time>
      </trkpt>
      <trkpt lat="42.79724" lon="0.12801">
        <ele>2930.7819040866</ele>
        <time>2014-06-01T11:33:21Z</time>
      </trkpt>
      <trkpt lat="42.79726" lon="0.12803">
        <ele>2930.7819040866</ele>
        <time>2014-06-01T11:33:27Z</time>
      </trkpt>
      <trkpt lat="42.79727" lon="0.12806">
        <ele>2930.7819040866</ele>
        <time>2014-06-01T11:33:31Z</time>
      </trkpt>
      <trkpt lat="42.79729" lon="0.12808">
        <ele>2930.7819040866</ele>
        <time>2014-06-01T11:33:36Z</time>
      </trkpt>
      <trkpt lat="42.7973" lon="0.12809">
        <ele>2932.5102236078</ele>
        <time>2014-06-01T11:33:41Z</time>
      </trkpt>
      <trkpt lat="42.79731" lon="0.12811">
        <ele>2932.5102236078</ele>
        <time>2014-06-01T11:33:47Z</time>
      </trkpt>
      <trkpt lat="42.79731" lon="0.12812">
        <ele>2932.5102236078</ele>
        <time>2014-06-01T11:33:51Z</time>
      </trkpt>
      <trkpt lat="42.79734" lon="0.12815">
        <ele>2932.5102236078</ele>
        <time>2014-06-01T11:33:56Z</time>
      </trkpt>
      <trkpt lat="42.79734" lon="0.12816">
        <ele>2932.5102236078</ele>
        <time>2014-06-01T11:34:01Z</time>
      </trkpt>
      <trkpt lat="42.79736" lon="0.12821">
        <ele>2934.4645791245</ele>
        <time>2014-06-01T11:34:27Z</time>
      </trkpt>
      <trkpt lat="42.79738" lon="0.12824">
        <ele>2934.4645791245</ele>
        <time>2014-06-01T11:34:31Z</time>
      </trkpt>
      <trkpt lat="42.79738" lon="0.12825">
        <ele>2934.4645791245</ele>
        <time>2014-06-01T11:34:36Z</time>
      </trkpt>
      <trkpt lat="42.79733" lon="0.12829">
        <ele>2936.7586523791</ele>
        <time>2014-06-01T11:35:16Z</time>
      </trkpt>
      <trkpt lat="42.7973" lon="0.1283">
        <ele>2936.7586523791</ele>
        <time>2014-06-01T11:35:21Z</time>
      </trkpt>
      <trkpt lat="42.79727" lon="0.1283">
        <ele>2936.7586523791</ele>
        <time>2014-06-01T11:35:27Z</time>
      </trkpt>
      <trkpt lat="42.79726" lon="0.12831">
        <ele>2936.7586523791</ele>
        <time>2014-06-01T11:35:31Z</time>
      </trkpt>
      <trkpt lat="42.79725" lon="0.12832">
        <ele>2936.7586523791</ele>
        <time>2014-06-01T11:35:36Z</time>
      </trkpt>
      <trkpt lat="42.79721" lon="0.12832">
        <ele>2939.6408854512</ele>
        <time>2014-06-01T11:36:16Z</time>
      </trkpt>
      <trkpt lat="42.79721" lon="0.12832">
        <ele>2939.6408854512</ele>
        <time>2014-06-01T11:36:21Z</time>
      </trkpt>
      <trkpt lat="42.79724" lon="0.12836">
        <ele>2939.6408854512</ele>
        <time>2014-06-01T11:36:31Z</time>
      </trkpt>
      <trkpt lat="42.79725" lon="0.12838">
        <ele>2939.6408854512</ele>
        <time>2014-06-01T11:36:37Z</time>
      </trkpt>
      <trkpt lat="42.79727" lon="0.1284">
        <ele>2939.6408854512</ele>
        <time>2014-06-01T11:36:40Z</time>
      </trkpt>
      <trkpt lat="42.79728" lon="0.12843">
        <ele>2942.3742333366</ele>
        <time>2014-06-01T11:36:46Z</time>
      </trkpt>
      <trkpt lat="42.7973" lon="0.12847">
        <ele>2942.3742333366</ele>
        <time>2014-06-01T11:36:52Z</time>
      </trkpt>
      <trkpt lat="42.79732" lon="0.12849">
        <ele>2942.3742333366</ele>
        <time>2014-06-01T11:36:56Z</time>
      </trkpt>
      <trkpt lat="42.79732" lon="0.12849">
        <ele>2942.3742333366</ele>
        <time>2014-06-01T11:37:01Z</time>
      </trkpt>
      <trkpt lat="42.79733" lon="0.12849">
        <ele>2942.3742333366</ele>
        <time>2014-06-01T11:37:20Z</time>
      </trkpt>
      <trkpt lat="42.79734" lon="0.1285">
        <ele>2942.3742333366</ele>
        <time>2014-06-01T11:37:27Z</time>
      </trkpt>
      <trkpt lat="42.79735" lon="0.12852">
        <ele>2945.2128991339</ele>
        <time>2014-06-01T11:37:47Z</time>
      </trkpt>
      <trkpt lat="42.79735" lon="0.12853">
        <ele>2945.2128991339</ele>
        <time>2014-06-01T11:37:51Z</time>
      </trkpt>
      <trkpt lat="42.79737" lon="0.12856">
        <ele>2945.2128991339</ele>
        <time>2014-06-01T11:37:56Z</time>
      </trkpt>
      <trkpt lat="42.79737" lon="0.12857">
        <ele>2945.2128991339</ele>
        <time>2014-06-01T11:38:01Z</time>
      </trkpt>
      <trkpt lat="42.79738" lon="0.12857">
        <ele>2945.2128991339</ele>
        <time>2014-06-01T11:38:06Z</time>
      </trkpt>
      <trkpt lat="42.79739" lon="0.12867">
        <ele>2948.8388357398</ele>
        <time>2014-06-01T11:39:36Z</time>
      </trkpt>
      <trkpt lat="42.79739" lon="0.12867">
        <ele>2948.8388357398</ele>
        <time>2014-06-01T11:39:41Z</time>
      </trkpt>
      <trkpt lat="42.79735" lon="0.12867">
        <ele>2948.8388357398</ele>
        <time>2014-06-01T11:39:51Z</time>
      </trkpt>
      <trkpt lat="42.79733" lon="0.12867">
        <ele>2948.8388357398</ele>
        <time>2014-06-01T11:39:56Z</time>
      </trkpt>
      <trkpt lat="42.79732" lon="0.12867">
        <ele>2948.8388357398</ele>
        <time>2014-06-01T11:40:01Z</time>
      </trkpt>
      <trkpt lat="42.79728" lon="0.12867">
        <ele>2952.4117423387</ele>
        <time>2014-06-01T11:40:06Z</time>
      </trkpt>
      <trkpt lat="42.79728" lon="0.12867">
        <ele>2952.4117423387</ele>
        <time>2014-06-01T11:40:11Z</time>
      </trkpt>
      <trkpt lat="42.79724" lon="0.12867">
        <ele>2952.4117423387</ele>
        <time>2014-06-01T11:40:46Z</time>
      </trkpt>
      <trkpt lat="42.79724" lon="0.12869">
        <ele>2952.4117423387</ele>
        <time>2014-06-01T11:40:52Z</time>
      </trkpt>
      <trkpt lat="42.79727" lon="0.12871">
        <ele>2956.0178576603</ele>
        <time>2014-06-01T11:41:07Z</time>
      </trkpt>
      <trkpt lat="42.79729" lon="0.12873">
        <ele>2956.0178576603</ele>
        <time>2014-06-01T11:41:11Z</time>
      </trkpt>
      <trkpt lat="42.7973" lon="0.12874">
        <ele>2956.0178576603</ele>
        <time>2014-06-01T11:41:16Z</time>
      </trkpt>
      <trkpt lat="42.79731" lon="0.12879">
        <ele>2956.0178576603</ele>
        <time>2014-06-01T11:41:37Z</time>
      </trkpt>
      <trkpt lat="42.79732" lon="0.12881">
        <ele>2956.0178576603</ele>
        <time>2014-06-01T11:41:40Z</time>
      </trkpt>
      <trkpt lat="42.79733" lon="0.12882">
        <ele>2959.4343662363</ele>
        <time>2014-06-01T11:41:46Z</time>
      </trkpt>
      <trkpt lat="42.79734" lon="0.12885">
        <ele>2959.4343662363</ele>
        <time>2014-06-01T11:41:51Z</time>
      </trkpt>
      <trkpt lat="42.79735" lon="0.12885">
        <ele>2959.4343662363</ele>
        <time>2014-06-01T11:41:56Z</time>
      </trkpt>
      <trkpt lat="42.79737" lon="0.12888">
        <ele>2959.4343662363</ele>
        <time>2014-06-01T11:42:01Z</time>
      </trkpt>
      <trkpt lat="42.7974" lon="0.12892">
        <ele>2962.815649254</ele>
        <time>2014-06-01T11:42:11Z</time>
      </trkpt>
      <trkpt lat="42.7974" lon="0.12892">
        <ele>2962.815649254</ele>
        <time>2014-06-01T11:42:17Z</time>
      </trkpt>
      <trkpt lat="42.79737" lon="0.12894">
        <ele>2962.815649254</ele>
        <time>2014-06-01T11:43:07Z</time>
      </trkpt>
      <trkpt lat="42.79735" lon="0.12893">
        <ele>2962.815649254</ele>
        <time>2014-06-01T11:43:11Z</time>
      </trkpt>
      <trkpt lat="42.79732" lon="0.12894">
        <ele>2962.815649254</ele>
        <time>2014-06-01T11:43:16Z</time>
      </trkpt>
      <trkpt lat="42.79732" lon="0.12895">
        <ele>2962.815649254</ele>
        <time>2014-06-01T11:43:21Z</time>
      </trkpt>
      <trkpt lat="42.79728" lon="0.12895">
        <ele>2966.6795648912</ele>
        <time>2014-06-01T11:43:31Z</time>
      </trkpt>
      <trkpt lat="42.79724" lon="0.12895">
        <ele>2966.6795648912</ele>
        <time>2014-06-01T11:43:37Z</time>
      </trkpt>
      <trkpt lat="42.79723" lon="0.12894">
        <ele>2966.6795648912</ele>
        <time>2014-06-01T11:43:41Z</time>
      </trkpt>
      <trkpt lat="42.7972" lon="0.12895">
        <ele>2966.6795648912</ele>
        <time>2014-06-01T11:43:46Z</time>
      </trkpt>
      <trkpt lat="42.79716" lon="0.12894">
        <ele>2970.4526043231</ele>
        <time>2014-06-01T11:43:52Z</time>
      </trkpt>
      <trkpt lat="42.79715" lon="0.12893">
        <ele>2970.4526043231</ele>
        <time>2014-06-01T11:43:56Z</time>
      </trkpt>
      <trkpt lat="42.79714" lon="0.12892">
        <ele>2970.4526043231</ele>
        <time>2014-06-01T11:44:01Z</time>
      </trkpt>
      <trkpt lat="42.79714" lon="0.12892">
        <ele>2970.4526043231</ele>
        <time>2014-06-01T11:44:06Z</time>
      </trkpt>
      <trkpt lat="42.79711" lon="0.12893">
        <ele>2970.4526043231</ele>
        <time>2014-06-01T11:44:41Z</time>
      </trkpt>
      <trkpt lat="42.79711" lon="0.12894">
        <ele>2970.4526043231</ele>
        <time>2014-06-01T11:44:46Z</time>
      </trkpt>
      <trkpt lat="42.79708" lon="0.12895">
        <ele>2970.4526043231</ele>
        <time>2014-06-01T11:44:51Z</time>
      </trkpt>
      <trkpt lat="42.79706" lon="0.12895">
        <ele>2974.4683604567</ele>
        <time>2014-06-01T11:44:56Z</time>
      </trkpt>
      <trkpt lat="42.79706" lon="0.12895">
        <ele>2974.4683604567</ele>
        <time>2014-06-01T11:45:01Z</time>
      </trkpt>
      <trkpt lat="42.79709" lon="0.129">
        <ele>2974.4683604567</ele>
        <time>2014-06-01T11:45:46Z</time>
      </trkpt>
      <trkpt lat="42.7971" lon="0.12901">
        <ele>2974.4683604567</ele>
        <time>2014-06-01T11:45:52Z</time>
      </trkpt>
      <trkpt lat="42.79715" lon="0.12913">
        <ele>2979.0353012082</ele>
        <time>2014-06-01T11:46:51Z</time>
      </trkpt>
      <trkpt lat="42.79712" lon="0.12914">
        <ele>2979.0353012082</ele>
        <time>2014-06-01T11:47:21Z</time>
      </trkpt>
      <trkpt lat="42.7971" lon="0.12914">
        <ele>2979.0353012082</ele>
        <time>2014-06-01T11:47:26Z</time>
      </trkpt>
      <trkpt lat="42.79707" lon="0.12914">
        <ele>2979.0353012082</ele>
        <time>2014-06-01T11:47:31Z</time>
      </trkpt>
      <trkpt lat="42.79708" lon="0.12916">
        <ele>2983.7748506928</ele>
        <time>2014-06-01T11:47:56Z</time>
      </trkpt>
      <trkpt lat="42.79708" lon="0.12916">
        <ele>2983.7748506928</ele>
        <time>2014-06-01T11:48:01Z</time>
      </trkpt>
      <trkpt lat="42.79709" lon="0.1292">
        <ele>2983.7748506928</ele>
        <time>2014-06-01T11:48:11Z</time>
      </trkpt>
      <trkpt lat="42.7971" lon="0.12921">
        <ele>2983.7748506928</ele>
        <time>2014-06-01T11:48:17Z</time>
      </trkpt>
      <trkpt lat="42.7971" lon="0.12924">
        <ele>2983.7748506928</ele>
        <time>2014-06-01T11:49:01Z</time>
      </trkpt>
      <trkpt lat="42.79713" lon="0.12927">
        <ele>2988.5231897744</ele>
        <time>2014-06-01T11:49:06Z</time>
      </trkpt>
      <trkpt lat="42.79713" lon="0.12927">
        <ele>2988.5231897744</ele>
        <time>2014-06-01T11:49:12Z</time>
      </trkpt>
      <trkpt lat="42.79711" lon="0.12923">
        <ele>2988.5231897744</ele>
        <time>2014-06-01T11:54:06Z</time>
      </trkpt>
      <trkpt lat="42.79713" lon="0.12928">
        <ele>2988.5231897744</ele>
        <time>2014-06-01T11:54:41Z</time>
      </trkpt>
      <trkpt lat="42.79714" lon="0.1293">
        <ele>2993.3591865983</ele>
        <time>2014-06-01T11:54:46Z</time>
      </trkpt>
      <trkpt lat="42.79715" lon="0.1293">
        <ele>2993.3591865983</ele>
        <time>2014-06-01T11:54:51Z</time>
      </trkpt>
      <trkpt lat="42.79718" lon="0.12932">
        <ele>2993.3591865983</ele>
        <time>2014-06-01T11:55:10Z</time>
      </trkpt>
      <trkpt lat="42.79719" lon="0.12932">
        <ele>2993.3591865983</ele>
        <time>2014-06-01T11:55:17Z</time>
      </trkpt>
      <trkpt lat="42.79719" lon="0.12933">
        <ele>2993.3591865983</ele>
        <time>2014-06-01T11:55:41Z</time>
      </trkpt>
      <trkpt lat="42.79719" lon="0.12936">
        <ele>2993.3591865983</ele>
        <time>2014-06-01T11:55:46Z</time>
      </trkpt>
      <trkpt lat="42.79719" lon="0.12938">
        <ele>2998.2693166606</ele>
        <time>2014-06-01T11:55:50Z</time>
      </trkpt>
      <trkpt lat="42.79719" lon="0.12938">
        <ele>2998.2693166606</ele>
        <time>2014-06-01T11:55:57Z</time>
      </trkpt>
    </trkseg>
  </trk>
</gpx>